<?xml version="1.0" encoding="UTF-8" standalone="no" ?>
<gpx xmlns="http://www.topografix.com/GPX/1/1" xmlns:xsi="http://www.w3.org/2001/XMLSchema-instance" xsi:schemaLocation="http://www.topografix.com/GPX/1/1 http://www.topografix.com/GPX/1/1/gpx.xsd" version="1.1" creator="VisuGPX - https://www.visugpx.com">
  <metadata>
    <name>qcc 01-05-26</name>
  </metadata>
  <trk>
    <name><![CDATA[qcc 01-05-24_1]]></name>
    <extensions>
      <line xmlns="http://www.topografix.com/GPX/gpx_style/0/2">
        <color>0000FF</color>
        <opacity>1</opacity>
        <width>4</width>
      </line>
    </extensions>
    <trkseg>
      <trkpt lat="48.00718" lon="-4.11584">
        <ele>6</ele>
        <time>2024-04-10T16:44:59.000Z</time>
      </trkpt>
      <trkpt lat="48.00708" lon="-4.11582">
        <ele>6</ele>
        <time>2024-04-10T16:45:00.699Z</time>
      </trkpt>
      <trkpt lat="48.0071" lon="-4.11595">
        <ele>6.4</ele>
        <time>2024-04-10T16:45:03.145Z</time>
      </trkpt>
      <trkpt lat="48.00698" lon="-4.11599">
        <ele>6.6</ele>
        <time>2024-04-10T16:45:05.573Z</time>
      </trkpt>
      <trkpt lat="48.00683" lon="-4.11606">
        <ele>6.5</ele>
        <time>2024-04-10T16:45:08.058Z</time>
      </trkpt>
      <trkpt lat="48.00657" lon="-4.11625">
        <ele>6.3</ele>
        <time>2024-04-10T16:45:12.610Z</time>
      </trkpt>
      <trkpt lat="48.00649" lon="-4.11631">
        <ele>6.3</ele>
        <time>2024-04-10T16:45:14.112Z</time>
      </trkpt>
      <trkpt lat="48.00643" lon="-4.11635">
        <ele>6.1</ele>
        <time>2024-04-10T16:45:14.960Z</time>
      </trkpt>
      <trkpt lat="48.00638" lon="-4.11642">
        <ele>6</ele>
        <time>2024-04-10T16:45:15.967Z</time>
      </trkpt>
      <trkpt lat="48.00633" lon="-4.11645">
        <ele>6</ele>
        <time>2024-04-10T16:45:16.870Z</time>
      </trkpt>
      <trkpt lat="48.00626" lon="-4.11648">
        <ele>6.2</ele>
        <time>2024-04-10T16:45:18.495Z</time>
      </trkpt>
      <trkpt lat="48.00619" lon="-4.11646">
        <ele>6.2</ele>
        <time>2024-04-10T16:45:19.691Z</time>
      </trkpt>
      <trkpt lat="48.00613" lon="-4.11648">
        <ele>6.3</ele>
        <time>2024-04-10T16:45:20.905Z</time>
      </trkpt>
      <trkpt lat="48.00596" lon="-4.11658">
        <ele>6.3</ele>
        <time>2024-04-10T16:45:23.969Z</time>
      </trkpt>
      <trkpt lat="48.00537" lon="-4.117">
        <ele>6.5</ele>
        <time>2024-04-10T16:45:35.259Z</time>
      </trkpt>
      <trkpt lat="48.00511" lon="-4.11712">
        <ele>6.6</ele>
        <time>2024-04-10T16:45:39.988Z</time>
      </trkpt>
      <trkpt lat="48.00484" lon="-4.11719">
        <ele>7.5</ele>
        <time>2024-04-10T16:45:46.492Z</time>
      </trkpt>
      <trkpt lat="48.00478" lon="-4.11721">
        <ele>7.7</ele>
        <time>2024-04-10T16:45:47.946Z</time>
      </trkpt>
      <trkpt lat="48.00469" lon="-4.11731">
        <ele>8</ele>
        <time>2024-04-10T16:45:50.429Z</time>
      </trkpt>
      <trkpt lat="48.00459" lon="-4.11758">
        <ele>9.1</ele>
        <time>2024-04-10T16:45:56.730Z</time>
      </trkpt>
      <trkpt lat="48.00423" lon="-4.11729">
        <ele>8.2</ele>
        <time>2024-04-10T16:46:02.376Z</time>
      </trkpt>
      <trkpt lat="48.00419" lon="-4.11734">
        <ele>8.4</ele>
        <time>2024-04-10T16:46:03.697Z</time>
      </trkpt>
      <trkpt lat="48.00416" lon="-4.11732">
        <ele>8.4</ele>
        <time>2024-04-10T16:46:04.248Z</time>
      </trkpt>
      <trkpt lat="48.00415" lon="-4.11728">
        <ele>8.2</ele>
        <time>2024-04-10T16:46:04.536Z</time>
      </trkpt>
      <trkpt lat="48.00393" lon="-4.1169">
        <ele>7</ele>
        <time>2024-04-10T16:46:08.705Z</time>
      </trkpt>
      <trkpt lat="48.00384" lon="-4.11673">
        <ele>7</ele>
        <time>2024-04-10T16:46:11.138Z</time>
      </trkpt>
      <trkpt lat="48.00362" lon="-4.11617">
        <ele>6</ele>
        <time>2024-04-10T16:46:17.088Z</time>
      </trkpt>
      <trkpt lat="48.00361" lon="-4.11614">
        <ele>6</ele>
        <time>2024-04-10T16:46:17.464Z</time>
      </trkpt>
      <trkpt lat="48.00357" lon="-4.11609">
        <ele>6</ele>
        <time>2024-04-10T16:46:18.339Z</time>
      </trkpt>
      <trkpt lat="48.00351" lon="-4.11597">
        <ele>6</ele>
        <time>2024-04-10T16:46:20.020Z</time>
      </trkpt>
      <trkpt lat="48.00346" lon="-4.11582">
        <ele>6</ele>
        <time>2024-04-10T16:46:21.901Z</time>
      </trkpt>
      <trkpt lat="48.00343" lon="-4.11572">
        <ele>5.9</ele>
        <time>2024-04-10T16:46:22.988Z</time>
      </trkpt>
      <trkpt lat="48.00343" lon="-4.1157">
        <ele>5.8</ele>
        <time>2024-04-10T16:46:23.123Z</time>
      </trkpt>
      <trkpt lat="48.00304" lon="-4.11477">
        <ele>5</ele>
        <time>2024-04-10T16:46:34.270Z</time>
      </trkpt>
      <trkpt lat="48.003" lon="-4.1147">
        <ele>4.9</ele>
        <time>2024-04-10T16:46:35.162Z</time>
      </trkpt>
      <trkpt lat="48.00268" lon="-4.11444">
        <ele>5</ele>
        <time>2024-04-10T16:46:41.435Z</time>
      </trkpt>
      <trkpt lat="48.00252" lon="-4.11432">
        <ele>5</ele>
        <time>2024-04-10T16:46:44.438Z</time>
      </trkpt>
      <trkpt lat="48.00244" lon="-4.11423">
        <ele>5.2</ele>
        <time>2024-04-10T16:46:46.495Z</time>
      </trkpt>
      <trkpt lat="48.00234" lon="-4.11417">
        <ele>5.6</ele>
        <time>2024-04-10T16:46:49.185Z</time>
      </trkpt>
      <trkpt lat="48.0023" lon="-4.11419">
        <ele>5.7</ele>
        <time>2024-04-10T16:46:50.088Z</time>
      </trkpt>
      <trkpt lat="48.00225" lon="-4.11417">
        <ele>5.9</ele>
        <time>2024-04-10T16:46:51.404Z</time>
      </trkpt>
      <trkpt lat="48.00222" lon="-4.11414">
        <ele>6</ele>
        <time>2024-04-10T16:46:52.211Z</time>
      </trkpt>
      <trkpt lat="48.0022" lon="-4.11407">
        <ele>6</ele>
        <time>2024-04-10T16:46:53.066Z</time>
      </trkpt>
      <trkpt lat="48.0022" lon="-4.11399">
        <ele>6</ele>
        <time>2024-04-10T16:46:53.964Z</time>
      </trkpt>
      <trkpt lat="48.00222" lon="-4.11393">
        <ele>6</ele>
        <time>2024-04-10T16:46:54.716Z</time>
      </trkpt>
      <trkpt lat="48.00224" lon="-4.11391">
        <ele>5.9</ele>
        <time>2024-04-10T16:46:55.002Z</time>
      </trkpt>
      <trkpt lat="48.00223" lon="-4.11372">
        <ele>5.4</ele>
        <time>2024-04-10T16:46:56.543Z</time>
      </trkpt>
      <trkpt lat="48.00222" lon="-4.11365">
        <ele>5.2</ele>
        <time>2024-04-10T16:46:57.111Z</time>
      </trkpt>
      <trkpt lat="48.00213" lon="-4.11313">
        <ele>6.3</ele>
        <time>2024-04-10T16:47:05.423Z</time>
      </trkpt>
      <trkpt lat="48.0021" lon="-4.11271">
        <ele>6</ele>
        <time>2024-04-10T16:47:09.723Z</time>
      </trkpt>
      <trkpt lat="48.00206" lon="-4.11231">
        <ele>6</ele>
        <time>2024-04-10T16:47:14.263Z</time>
      </trkpt>
      <trkpt lat="48.00201" lon="-4.11216">
        <ele>5.8</ele>
        <time>2024-04-10T16:47:15.866Z</time>
      </trkpt>
      <trkpt lat="48.00192" lon="-4.11195">
        <ele>5.1</ele>
        <time>2024-04-10T16:47:17.842Z</time>
      </trkpt>
      <trkpt lat="48.00175" lon="-4.11168">
        <ele>6</ele>
        <time>2024-04-10T16:47:23.973Z</time>
      </trkpt>
      <trkpt lat="48.00143" lon="-4.11124">
        <ele>5.5</ele>
        <time>2024-04-10T16:47:30.538Z</time>
      </trkpt>
      <trkpt lat="48.00135" lon="-4.1111">
        <ele>5.2</ele>
        <time>2024-04-10T16:47:32.207Z</time>
      </trkpt>
      <trkpt lat="48.00128" lon="-4.11099">
        <ele>5.5</ele>
        <time>2024-04-10T16:47:34.528Z</time>
      </trkpt>
      <trkpt lat="48.00125" lon="-4.11092">
        <ele>5.5</ele>
        <time>2024-04-10T16:47:35.461Z</time>
      </trkpt>
      <trkpt lat="48.0012" lon="-4.1109">
        <ele>5.4</ele>
        <time>2024-04-10T16:47:36.191Z</time>
      </trkpt>
      <trkpt lat="48.00117" lon="-4.11083">
        <ele>5.2</ele>
        <time>2024-04-10T16:47:36.880Z</time>
      </trkpt>
      <trkpt lat="48.00114" lon="-4.1108">
        <ele>5.1</ele>
        <time>2024-04-10T16:47:37.356Z</time>
      </trkpt>
      <trkpt lat="48.00109" lon="-4.11071">
        <ele>5.1</ele>
        <time>2024-04-10T16:47:38.669Z</time>
      </trkpt>
      <trkpt lat="48.00089" lon="-4.1104">
        <ele>6.4</ele>
        <time>2024-04-10T16:47:46.598Z</time>
      </trkpt>
      <trkpt lat="48.00064" lon="-4.11007">
        <ele>8.2</ele>
        <time>2024-04-10T16:47:56.869Z</time>
      </trkpt>
      <trkpt lat="48.00018" lon="-4.10973">
        <ele>5.4</ele>
        <time>2024-04-10T16:48:02.444Z</time>
      </trkpt>
      <trkpt lat="48.00013" lon="-4.10969">
        <ele>5.5</ele>
        <time>2024-04-10T16:48:03.580Z</time>
      </trkpt>
      <trkpt lat="47.99942" lon="-4.10915">
        <ele>5</ele>
        <time>2024-04-10T16:48:16.185Z</time>
      </trkpt>
      <trkpt lat="47.99926" lon="-4.10902">
        <ele>5</ele>
        <time>2024-04-10T16:48:19.240Z</time>
      </trkpt>
      <trkpt lat="47.99923" lon="-4.109">
        <ele>5</ele>
        <time>2024-04-10T16:48:19.791Z</time>
      </trkpt>
      <trkpt lat="47.99851" lon="-4.10845">
        <ele>5</ele>
        <time>2024-04-10T16:48:33.356Z</time>
        <extensions>
          <visugpx:TrkExtension xmlns:visugpx="https://www.visugpx.com/editgpx/">
            <visugpx:node>1</visugpx:node>
            </visugpx:TrkExtension>
        </extensions>
      </trkpt>
      <trkpt lat="47.99847" lon="-4.10842">
        <ele>5</ele>
        <time>2024-04-10T16:48:34.107Z</time>
      </trkpt>
      <trkpt lat="47.99837" lon="-4.10844">
        <ele>5</ele>
        <time>2024-04-10T16:48:35.799Z</time>
      </trkpt>
      <trkpt lat="47.99751" lon="-4.10887">
        <ele>6</ele>
        <time>2024-04-10T16:48:52.758Z</time>
      </trkpt>
      <trkpt lat="47.99749" lon="-4.10893">
        <ele>6.2</ele>
        <time>2024-04-10T16:48:53.985Z</time>
      </trkpt>
      <trkpt lat="47.99746" lon="-4.10913">
        <ele>6.9</ele>
        <time>2024-04-10T16:48:58.052Z</time>
      </trkpt>
      <trkpt lat="47.99745" lon="-4.10945">
        <ele>8.8</ele>
        <time>2024-04-10T16:49:08.568Z</time>
      </trkpt>
      <trkpt lat="47.99726" lon="-4.10929">
        <ele>7.5</ele>
        <time>2024-04-10T16:49:10.862Z</time>
      </trkpt>
      <trkpt lat="47.99706" lon="-4.10912">
        <ele>7</ele>
        <time>2024-04-10T16:49:14.046Z</time>
      </trkpt>
      <trkpt lat="47.99647" lon="-4.10861">
        <ele>6.3</ele>
        <time>2024-04-10T16:49:24.449Z</time>
      </trkpt>
      <trkpt lat="47.99626" lon="-4.10853">
        <ele>6</ele>
        <time>2024-04-10T16:49:27.655Z</time>
      </trkpt>
      <trkpt lat="47.99607" lon="-4.10847">
        <ele>6</ele>
        <time>2024-04-10T16:49:30.913Z</time>
      </trkpt>
      <trkpt lat="47.99572" lon="-4.10836">
        <ele>5.6</ele>
        <time>2024-04-10T16:49:36.328Z</time>
      </trkpt>
      <trkpt lat="47.9954" lon="-4.10826">
        <ele>5</ele>
        <time>2024-04-10T16:49:40.981Z</time>
      </trkpt>
      <trkpt lat="47.99507" lon="-4.10815">
        <ele>5</ele>
        <time>2024-04-10T16:49:46.653Z</time>
      </trkpt>
      <trkpt lat="47.9949" lon="-4.10807">
        <ele>5</ele>
        <time>2024-04-10T16:49:49.642Z</time>
      </trkpt>
      <trkpt lat="47.9947" lon="-4.10793">
        <ele>4.5</ele>
        <time>2024-04-10T16:49:52.676Z</time>
      </trkpt>
      <trkpt lat="47.99441" lon="-4.10764">
        <ele>4</ele>
        <time>2024-04-10T16:49:57.816Z</time>
      </trkpt>
      <trkpt lat="47.9943" lon="-4.10752">
        <ele>4</ele>
        <time>2024-04-10T16:50:00.100Z</time>
      </trkpt>
      <trkpt lat="47.99405" lon="-4.10723">
        <ele>4</ele>
        <time>2024-04-10T16:50:05.410Z</time>
      </trkpt>
      <trkpt lat="47.99398" lon="-4.10715">
        <ele>4</ele>
        <time>2024-04-10T16:50:06.888Z</time>
      </trkpt>
      <trkpt lat="47.99391" lon="-4.10704">
        <ele>4</ele>
        <time>2024-04-10T16:50:08.592Z</time>
      </trkpt>
      <trkpt lat="47.99371" lon="-4.10661">
        <ele>3.5</ele>
        <time>2024-04-10T16:50:13.756Z</time>
      </trkpt>
      <trkpt lat="47.99367" lon="-4.10649">
        <ele>3.7</ele>
        <time>2024-04-10T16:50:15.647Z</time>
      </trkpt>
      <trkpt lat="47.99365" lon="-4.10644">
        <ele>3.8</ele>
        <time>2024-04-10T16:50:16.499Z</time>
      </trkpt>
      <trkpt lat="47.99363" lon="-4.1064">
        <ele>4</ele>
        <time>2024-04-10T16:50:17.610Z</time>
      </trkpt>
      <trkpt lat="47.99362" lon="-4.10637">
        <ele>4</ele>
        <time>2024-04-10T16:50:17.987Z</time>
      </trkpt>
      <trkpt lat="47.99351" lon="-4.10607">
        <ele>4.1</ele>
        <time>2024-04-10T16:50:21.992Z</time>
      </trkpt>
      <trkpt lat="47.99348" lon="-4.10591">
        <ele>4.3</ele>
        <time>2024-04-10T16:50:24.228Z</time>
      </trkpt>
      <trkpt lat="47.99348" lon="-4.10582">
        <ele>4.5</ele>
        <time>2024-04-10T16:50:25.664Z</time>
      </trkpt>
      <trkpt lat="47.99352" lon="-4.10566">
        <ele>4.3</ele>
        <time>2024-04-10T16:50:27.302Z</time>
      </trkpt>
      <trkpt lat="47.99361" lon="-4.1056">
        <ele>4</ele>
        <time>2024-04-10T16:50:28.574Z</time>
      </trkpt>
      <trkpt lat="47.99367" lon="-4.10556">
        <ele>4</ele>
        <time>2024-04-10T16:50:29.677Z</time>
      </trkpt>
      <trkpt lat="47.99378" lon="-4.10547">
        <ele>4.1</ele>
        <time>2024-04-10T16:50:31.951Z</time>
      </trkpt>
      <trkpt lat="47.99388" lon="-4.10534">
        <ele>4</ele>
        <time>2024-04-10T16:50:34.024Z</time>
      </trkpt>
      <trkpt lat="47.9939" lon="-4.10529">
        <ele>3.9</ele>
        <time>2024-04-10T16:50:34.546Z</time>
      </trkpt>
      <trkpt lat="47.99399" lon="-4.10507">
        <ele>3.5</ele>
        <time>2024-04-10T16:50:36.906Z</time>
      </trkpt>
      <trkpt lat="47.99422" lon="-4.1043">
        <ele>4.7</ele>
        <time>2024-04-10T16:50:48.662Z</time>
      </trkpt>
      <trkpt lat="47.99425" lon="-4.1042">
        <ele>4.7</ele>
        <time>2024-04-10T16:50:49.892Z</time>
      </trkpt>
      <trkpt lat="47.9945" lon="-4.10342">
        <ele>4.3</ele>
        <time>2024-04-10T16:50:58.996Z</time>
      </trkpt>
      <trkpt lat="47.99461" lon="-4.10266">
        <ele>3.2</ele>
        <time>2024-04-10T16:51:06.232Z</time>
      </trkpt>
      <trkpt lat="47.99462" lon="-4.1026">
        <ele>3</ele>
        <time>2024-04-10T16:51:06.701Z</time>
      </trkpt>
      <trkpt lat="47.99462" lon="-4.10254">
        <ele>2.8</ele>
        <time>2024-04-10T16:51:07.151Z</time>
      </trkpt>
      <trkpt lat="47.99468" lon="-4.10188">
        <ele>4</ele>
        <time>2024-04-10T16:51:17.037Z</time>
      </trkpt>
      <trkpt lat="47.9947" lon="-4.10171">
        <ele>4</ele>
        <time>2024-04-10T16:51:18.974Z</time>
      </trkpt>
      <trkpt lat="47.99473" lon="-4.10139">
        <ele>4.9</ele>
        <time>2024-04-10T16:51:24.674Z</time>
      </trkpt>
      <trkpt lat="47.99476" lon="-4.10118">
        <ele>4.7</ele>
        <time>2024-04-10T16:51:26.798Z</time>
      </trkpt>
      <trkpt lat="47.99481" lon="-4.10089">
        <ele>4.4</ele>
        <time>2024-04-10T16:51:29.734Z</time>
      </trkpt>
      <trkpt lat="47.9949" lon="-4.10015">
        <ele>4</ele>
        <time>2024-04-10T16:51:37.577Z</time>
      </trkpt>
      <trkpt lat="47.99492" lon="-4.09991">
        <ele>4.2</ele>
        <time>2024-04-10T16:51:40.646Z</time>
      </trkpt>
      <trkpt lat="47.9949" lon="-4.09981">
        <ele>4.1</ele>
        <time>2024-04-10T16:51:41.675Z</time>
      </trkpt>
      <trkpt lat="47.9949" lon="-4.09959">
        <ele>4.5</ele>
        <time>2024-04-10T16:51:44.949Z</time>
      </trkpt>
      <trkpt lat="47.99492" lon="-4.09936">
        <ele>4.9</ele>
        <time>2024-04-10T16:51:48.347Z</time>
      </trkpt>
      <trkpt lat="47.99495" lon="-4.099">
        <ele>4.3</ele>
        <time>2024-04-10T16:51:51.626Z</time>
      </trkpt>
      <trkpt lat="47.99497" lon="-4.09883">
        <ele>4.2</ele>
        <time>2024-04-10T16:51:53.414Z</time>
      </trkpt>
      <trkpt lat="47.99501" lon="-4.09843">
        <ele>4.9</ele>
        <time>2024-04-10T16:51:59.346Z</time>
      </trkpt>
      <trkpt lat="47.99503" lon="-4.09822">
        <ele>4.7</ele>
        <time>2024-04-10T16:52:01.441Z</time>
      </trkpt>
      <trkpt lat="47.99504" lon="-4.09809">
        <ele>4.7</ele>
        <time>2024-04-10T16:52:02.910Z</time>
      </trkpt>
      <trkpt lat="47.99506" lon="-4.09789">
        <ele>4.6</ele>
        <time>2024-04-10T16:52:05.030Z</time>
      </trkpt>
      <trkpt lat="47.99509" lon="-4.09759">
        <ele>4.1</ele>
        <time>2024-04-10T16:52:07.773Z</time>
      </trkpt>
      <trkpt lat="47.99513" lon="-4.09716">
        <ele>3.8</ele>
        <time>2024-04-10T16:52:12.205Z</time>
      </trkpt>
      <trkpt lat="47.99517" lon="-4.09675">
        <ele>4.8</ele>
        <time>2024-04-10T16:52:19.041Z</time>
      </trkpt>
      <trkpt lat="47.99513" lon="-4.09663">
        <ele>4.9</ele>
        <time>2024-04-10T16:52:20.720Z</time>
      </trkpt>
      <trkpt lat="47.99525" lon="-4.09668">
        <ele>5</ele>
        <time>2024-04-10T16:52:22.980Z</time>
      </trkpt>
      <trkpt lat="47.99529" lon="-4.0967">
        <ele>4.9</ele>
        <time>2024-04-10T16:52:23.555Z</time>
      </trkpt>
      <trkpt lat="47.99545" lon="-4.09676">
        <ele>4.9</ele>
        <time>2024-04-10T16:52:26.322Z</time>
      </trkpt>
      <trkpt lat="47.99552" lon="-4.0968">
        <ele>4.9</ele>
        <time>2024-04-10T16:52:27.579Z</time>
      </trkpt>
      <trkpt lat="47.99559" lon="-4.09686">
        <ele>5</ele>
        <time>2024-04-10T16:52:29.110Z</time>
      </trkpt>
      <trkpt lat="47.99598" lon="-4.09705">
        <ele>5.5</ele>
        <time>2024-04-10T16:52:36.873Z</time>
      </trkpt>
      <trkpt lat="47.99605" lon="-4.09706">
        <ele>5.8</ele>
        <time>2024-04-10T16:52:38.750Z</time>
      </trkpt>
      <trkpt lat="47.99607" lon="-4.097">
        <ele>5.9</ele>
        <time>2024-04-10T16:52:39.695Z</time>
      </trkpt>
      <trkpt lat="47.99612" lon="-4.09677">
        <ele>6.2</ele>
        <time>2024-04-10T16:52:42.968Z</time>
      </trkpt>
      <trkpt lat="47.99616" lon="-4.09625">
        <ele>8.2</ele>
        <time>2024-04-10T16:52:54.204Z</time>
      </trkpt>
      <trkpt lat="47.99616" lon="-4.09623">
        <ele>8.2</ele>
        <time>2024-04-10T16:52:54.428Z</time>
      </trkpt>
      <trkpt lat="47.99618" lon="-4.09587">
        <ele>9.6</ele>
        <time>2024-04-10T16:53:02.266Z</time>
      </trkpt>
      <trkpt lat="47.99618" lon="-4.09554">
        <ele>9.2</ele>
        <time>2024-04-10T16:53:05.415Z</time>
      </trkpt>
      <trkpt lat="47.99603" lon="-4.0937">
        <ele>6.5</ele>
        <time>2024-04-10T16:53:22.575Z</time>
      </trkpt>
      <trkpt lat="47.99598" lon="-4.09306">
        <ele>6.7</ele>
        <time>2024-04-10T16:53:30.139Z</time>
      </trkpt>
      <trkpt lat="47.99589" lon="-4.09138">
        <ele>6.6</ele>
        <time>2024-04-10T16:53:48.900Z</time>
      </trkpt>
      <trkpt lat="47.99591" lon="-4.09005">
        <ele>6.6</ele>
        <time>2024-04-10T16:54:03.834Z</time>
      </trkpt>
      <trkpt lat="47.99588" lon="-4.08912">
        <ele>6</ele>
        <time>2024-04-10T16:54:13.399Z</time>
      </trkpt>
      <trkpt lat="47.99585" lon="-4.08885">
        <ele>4.8</ele>
        <time>2024-04-10T16:54:15.255Z</time>
      </trkpt>
      <trkpt lat="47.99576" lon="-4.08854">
        <ele>4.7</ele>
        <time>2024-04-10T16:54:18.895Z</time>
      </trkpt>
      <trkpt lat="47.99559" lon="-4.08821">
        <ele>4.5</ele>
        <time>2024-04-10T16:54:23.268Z</time>
      </trkpt>
      <trkpt lat="47.99549" lon="-4.08787">
        <ele>4.8</ele>
        <time>2024-04-10T16:54:27.966Z</time>
      </trkpt>
      <trkpt lat="47.9955" lon="-4.08733">
        <ele>5</ele>
        <time>2024-04-10T16:54:34.364Z</time>
      </trkpt>
      <trkpt lat="47.99549" lon="-4.08691">
        <ele>5.2</ele>
        <time>2024-04-10T16:54:39.420Z</time>
      </trkpt>
      <trkpt lat="47.99543" lon="-4.08615">
        <ele>5.5</ele>
        <time>2024-04-10T16:54:48.512Z</time>
      </trkpt>
      <trkpt lat="47.99545" lon="-4.08548">
        <ele>5.5</ele>
        <time>2024-04-10T16:54:56.041Z</time>
      </trkpt>
      <trkpt lat="47.99547" lon="-4.08521">
        <ele>5.8</ele>
        <time>2024-04-10T16:54:59.640Z</time>
      </trkpt>
      <trkpt lat="47.99546" lon="-4.08515">
        <ele>5.7</ele>
        <time>2024-04-10T16:55:00.201Z</time>
      </trkpt>
      <trkpt lat="47.99546" lon="-4.08497">
        <ele>5.3</ele>
        <time>2024-04-10T16:55:01.723Z</time>
      </trkpt>
      <trkpt lat="47.9955" lon="-4.08457">
        <ele>5.6</ele>
        <time>2024-04-10T16:55:06.787Z</time>
      </trkpt>
      <trkpt lat="47.99551" lon="-4.08432">
        <ele>6</ele>
        <time>2024-04-10T16:55:10.380Z</time>
      </trkpt>
      <trkpt lat="47.9955" lon="-4.08416">
        <ele>6</ele>
        <time>2024-04-10T16:55:12.184Z</time>
      </trkpt>
      <trkpt lat="47.9949" lon="-4.0839">
        <ele>6</ele>
        <time>2024-04-10T16:55:22.664Z</time>
      </trkpt>
      <trkpt lat="47.99498" lon="-4.08087">
        <ele>6.1</ele>
        <time>2024-04-10T16:55:56.865Z</time>
      </trkpt>
      <trkpt lat="47.99499" lon="-4.08069">
        <ele>6</ele>
        <time>2024-04-10T16:55:58.743Z</time>
      </trkpt>
      <trkpt lat="47.99502" lon="-4.07973">
        <ele>6</ele>
        <time>2024-04-10T16:56:09.531Z</time>
      </trkpt>
      <trkpt lat="47.99506" lon="-4.07831">
        <ele>7</ele>
        <time>2024-04-10T16:56:27.225Z</time>
      </trkpt>
      <trkpt lat="47.99509" lon="-4.0781">
        <ele>7</ele>
        <time>2024-04-10T16:56:29.636Z</time>
      </trkpt>
      <trkpt lat="47.9951" lon="-4.07808">
        <ele>7</ele>
        <time>2024-04-10T16:56:29.916Z</time>
        <extensions>
          <visugpx:TrkExtension xmlns:visugpx="https://www.visugpx.com/editgpx/">
            <visugpx:node>2</visugpx:node>
            </visugpx:TrkExtension>
        </extensions>
      </trkpt>
      <trkpt lat="47.9951" lon="-4.07808">
        <ele>7</ele>
        <time>2024-04-10T16:56:29.916Z</time>
      </trkpt>
      <trkpt lat="47.99514" lon="-4.07793">
        <ele>7</ele>
        <time>2024-04-10T16:56:31.729Z</time>
      </trkpt>
      <trkpt lat="47.99548" lon="-4.07715">
        <ele>6.7</ele>
        <time>2024-04-10T16:56:41.718Z</time>
      </trkpt>
      <trkpt lat="47.99561" lon="-4.07694">
        <ele>7</ele>
        <time>2024-04-10T16:56:45.474Z</time>
      </trkpt>
      <trkpt lat="47.9957" lon="-4.07684">
        <ele>7</ele>
        <time>2024-04-10T16:56:47.356Z</time>
      </trkpt>
      <trkpt lat="47.99582" lon="-4.07677">
        <ele>7</ele>
        <time>2024-04-10T16:56:49.517Z</time>
      </trkpt>
      <trkpt lat="47.996" lon="-4.07675">
        <ele>7.6</ele>
        <time>2024-04-10T16:56:53.821Z</time>
      </trkpt>
      <trkpt lat="47.99601" lon="-4.07565">
        <ele>8.5</ele>
        <time>2024-04-10T16:57:07.758Z</time>
      </trkpt>
      <trkpt lat="47.996" lon="-4.07552">
        <ele>8.7</ele>
        <time>2024-04-10T16:57:09.614Z</time>
      </trkpt>
      <trkpt lat="47.99598" lon="-4.07545">
        <ele>8.7</ele>
        <time>2024-04-10T16:57:10.468Z</time>
      </trkpt>
      <trkpt lat="47.99592" lon="-4.07537">
        <ele>8.8</ele>
        <time>2024-04-10T16:57:11.994Z</time>
      </trkpt>
      <trkpt lat="47.99584" lon="-4.07534">
        <ele>8.8</ele>
        <time>2024-04-10T16:57:13.378Z</time>
      </trkpt>
      <trkpt lat="47.99535" lon="-4.07549">
        <ele>8.3</ele>
        <time>2024-04-10T16:57:21.031Z</time>
      </trkpt>
      <trkpt lat="47.99524" lon="-4.07552">
        <ele>8</ele>
        <time>2024-04-10T16:57:22.515Z</time>
      </trkpt>
      <trkpt lat="47.99519" lon="-4.07549">
        <ele>8</ele>
        <time>2024-04-10T16:57:23.419Z</time>
      </trkpt>
      <trkpt lat="47.99515" lon="-4.07542">
        <ele>8</ele>
        <time>2024-04-10T16:57:24.453Z</time>
      </trkpt>
      <trkpt lat="47.99513" lon="-4.07529">
        <ele>8</ele>
        <time>2024-04-10T16:57:25.950Z</time>
      </trkpt>
      <trkpt lat="47.99511" lon="-4.07497">
        <ele>8</ele>
        <time>2024-04-10T16:57:29.558Z</time>
      </trkpt>
      <trkpt lat="47.99511" lon="-4.07461">
        <ele>8</ele>
        <time>2024-04-10T16:57:33.599Z</time>
      </trkpt>
      <trkpt lat="47.99506" lon="-4.07367">
        <ele>9</ele>
        <time>2024-04-10T16:57:46.005Z</time>
      </trkpt>
      <trkpt lat="47.99499" lon="-4.07347">
        <ele>9.5</ele>
        <time>2024-04-10T16:57:49.600Z</time>
      </trkpt>
      <trkpt lat="47.99485" lon="-4.07328">
        <ele>9.6</ele>
        <time>2024-04-10T16:57:52.939Z</time>
      </trkpt>
      <trkpt lat="47.99473" lon="-4.07319">
        <ele>9.5</ele>
        <time>2024-04-10T16:57:55.041Z</time>
      </trkpt>
      <trkpt lat="47.99466" lon="-4.07309">
        <ele>9.9</ele>
        <time>2024-04-10T16:57:57.584Z</time>
      </trkpt>
      <trkpt lat="47.99462" lon="-4.07298">
        <ele>9.7</ele>
        <time>2024-04-10T16:57:58.723Z</time>
      </trkpt>
      <trkpt lat="47.99461" lon="-4.07285">
        <ele>9.3</ele>
        <time>2024-04-10T16:57:59.733Z</time>
      </trkpt>
      <trkpt lat="47.99462" lon="-4.07277">
        <ele>9</ele>
        <time>2024-04-10T16:58:00.323Z</time>
      </trkpt>
      <trkpt lat="47.99465" lon="-4.07262">
        <ele>9</ele>
        <time>2024-04-10T16:58:02.081Z</time>
      </trkpt>
      <trkpt lat="47.99465" lon="-4.07237">
        <ele>9</ele>
        <time>2024-04-10T16:58:04.887Z</time>
      </trkpt>
      <trkpt lat="47.99462" lon="-4.07224">
        <ele>9</ele>
        <time>2024-04-10T16:58:06.431Z</time>
      </trkpt>
      <trkpt lat="47.99443" lon="-4.07176">
        <ele>9</ele>
        <time>2024-04-10T16:58:12.691Z</time>
      </trkpt>
      <trkpt lat="47.99436" lon="-4.07152">
        <ele>8.6</ele>
        <time>2024-04-10T16:58:15.094Z</time>
      </trkpt>
      <trkpt lat="47.99425" lon="-4.07103">
        <ele>8.7</ele>
        <time>2024-04-10T16:58:21.059Z</time>
      </trkpt>
      <trkpt lat="47.99418" lon="-4.0703">
        <ele>9</ele>
        <time>2024-04-10T16:58:29.841Z</time>
      </trkpt>
      <trkpt lat="47.99406" lon="-4.06858">
        <ele>9</ele>
        <time>2024-04-10T16:58:49.254Z</time>
      </trkpt>
      <trkpt lat="47.99403" lon="-4.06822">
        <ele>8.7</ele>
        <time>2024-04-10T16:58:52.892Z</time>
      </trkpt>
      <trkpt lat="47.994" lon="-4.06768">
        <ele>11.9</ele>
        <time>2024-04-10T16:59:10.591Z</time>
      </trkpt>
      <trkpt lat="47.99391" lon="-4.06744">
        <ele>12.3</ele>
        <time>2024-04-10T16:59:14.446Z</time>
      </trkpt>
      <trkpt lat="47.99381" lon="-4.06739">
        <ele>12</ele>
        <time>2024-04-10T16:59:15.829Z</time>
      </trkpt>
      <trkpt lat="47.99378" lon="-4.06734">
        <ele>12</ele>
        <time>2024-04-10T16:59:16.582Z</time>
      </trkpt>
      <trkpt lat="47.99375" lon="-4.06723">
        <ele>12</ele>
        <time>2024-04-10T16:59:17.916Z</time>
      </trkpt>
      <trkpt lat="47.99374" lon="-4.06717">
        <ele>11.9</ele>
        <time>2024-04-10T16:59:18.477Z</time>
      </trkpt>
      <trkpt lat="47.99376" lon="-4.06706">
        <ele>12.1</ele>
        <time>2024-04-10T16:59:20.156Z</time>
      </trkpt>
      <trkpt lat="47.99379" lon="-4.06701">
        <ele>12.5</ele>
        <time>2024-04-10T16:59:22.371Z</time>
      </trkpt>
      <trkpt lat="47.99385" lon="-4.06694">
        <ele>13.4</ele>
        <time>2024-04-10T16:59:27.525Z</time>
      </trkpt>
      <trkpt lat="47.9939" lon="-4.06692">
        <ele>14</ele>
        <time>2024-04-10T16:59:30.970Z</time>
      </trkpt>
      <trkpt lat="47.99396" lon="-4.06684">
        <ele>14.2</ele>
        <time>2024-04-10T16:59:32.713Z</time>
      </trkpt>
      <trkpt lat="47.99402" lon="-4.06672">
        <ele>14.5</ele>
        <time>2024-04-10T16:59:35.013Z</time>
      </trkpt>
      <trkpt lat="47.99421" lon="-4.06606">
        <ele>17.9</ele>
        <time>2024-04-10T16:59:53.521Z</time>
      </trkpt>
      <trkpt lat="47.99458" lon="-4.06495">
        <ele>22.3</ele>
        <time>2024-04-10T17:00:18.764Z</time>
      </trkpt>
      <trkpt lat="47.99481" lon="-4.06449">
        <ele>26.7</ele>
        <time>2024-04-10T17:00:44.043Z</time>
      </trkpt>
      <trkpt lat="47.99495" lon="-4.0643">
        <ele>27</ele>
        <time>2024-04-10T17:00:47.761Z</time>
      </trkpt>
      <trkpt lat="47.99508" lon="-4.06419">
        <ele>27.7</ele>
        <time>2024-04-10T17:00:51.963Z</time>
      </trkpt>
      <trkpt lat="47.99547" lon="-4.06399">
        <ele>31.1</ele>
        <time>2024-04-10T17:01:10.586Z</time>
      </trkpt>
      <trkpt lat="47.99573" lon="-4.06372">
        <ele>32.6</ele>
        <time>2024-04-10T17:01:19.548Z</time>
      </trkpt>
      <trkpt lat="47.99596" lon="-4.06343">
        <ele>34.2</ele>
        <time>2024-04-10T17:01:28.720Z</time>
      </trkpt>
      <trkpt lat="47.99614" lon="-4.06314">
        <ele>37</ele>
        <time>2024-04-10T17:01:44.730Z</time>
      </trkpt>
      <trkpt lat="47.99631" lon="-4.06272">
        <ele>39.3</ele>
        <time>2024-04-10T17:01:57.255Z</time>
      </trkpt>
      <trkpt lat="47.99666" lon="-4.06156">
        <ele>41</ele>
        <time>2024-04-10T17:02:14.746Z</time>
      </trkpt>
      <trkpt lat="47.9968" lon="-4.06113">
        <ele>41.5</ele>
        <time>2024-04-10T17:02:21.022Z</time>
      </trkpt>
      <trkpt lat="47.99684" lon="-4.06084">
        <ele>41</ele>
        <time>2024-04-10T17:02:23.687Z</time>
      </trkpt>
      <trkpt lat="47.99692" lon="-4.06049">
        <ele>41</ele>
        <time>2024-04-10T17:02:27.838Z</time>
      </trkpt>
      <trkpt lat="47.99716" lon="-4.06004">
        <ele>39.6</ele>
        <time>2024-04-10T17:02:32.590Z</time>
      </trkpt>
      <trkpt lat="47.99731" lon="-4.0596">
        <ele>39.2</ele>
        <time>2024-04-10T17:02:37.552Z</time>
      </trkpt>
      <trkpt lat="47.99765" lon="-4.05877">
        <ele>38.3</ele>
        <time>2024-04-10T17:02:47.187Z</time>
      </trkpt>
      <trkpt lat="47.99769" lon="-4.05867">
        <ele>38.1</ele>
        <time>2024-04-10T17:02:48.232Z</time>
      </trkpt>
      <trkpt lat="47.99794" lon="-4.0581">
        <ele>37.9</ele>
        <time>2024-04-10T17:02:55.574Z</time>
      </trkpt>
      <trkpt lat="47.99826" lon="-4.05733">
        <ele>39.2</ele>
        <time>2024-04-10T17:03:08.233Z</time>
      </trkpt>
      <trkpt lat="47.99832" lon="-4.05715">
        <ele>39.9</ele>
        <time>2024-04-10T17:03:12.274Z</time>
      </trkpt>
      <trkpt lat="47.99834" lon="-4.05711">
        <ele>40</ele>
        <time>2024-04-10T17:03:13.041Z</time>
      </trkpt>
      <trkpt lat="47.99837" lon="-4.05697">
        <ele>40.1</ele>
        <time>2024-04-10T17:03:14.864Z</time>
      </trkpt>
      <trkpt lat="47.99848" lon="-4.05671">
        <ele>40.1</ele>
        <time>2024-04-10T17:03:18.317Z</time>
      </trkpt>
      <trkpt lat="47.99867" lon="-4.05617">
        <ele>41.6</ele>
        <time>2024-04-10T17:03:28.462Z</time>
      </trkpt>
      <trkpt lat="47.99872" lon="-4.05607">
        <ele>42.3</ele>
        <time>2024-04-10T17:03:32.304Z</time>
      </trkpt>
      <trkpt lat="47.99906" lon="-4.05496">
        <ele>46.2</ele>
        <time>2024-04-10T17:03:55.535Z</time>
      </trkpt>
      <trkpt lat="47.99913" lon="-4.05464">
        <ele>46.5</ele>
        <time>2024-04-10T17:03:59.848Z</time>
      </trkpt>
      <trkpt lat="47.99919" lon="-4.05438">
        <ele>46.3</ele>
        <time>2024-04-10T17:04:02.642Z</time>
      </trkpt>
      <trkpt lat="47.99924" lon="-4.05413">
        <ele>47</ele>
        <time>2024-04-10T17:04:07.159Z</time>
      </trkpt>
      <trkpt lat="47.9994" lon="-4.05348">
        <ele>48.4</ele>
        <time>2024-04-10T17:04:17.829Z</time>
      </trkpt>
      <trkpt lat="47.99948" lon="-4.05316">
        <ele>49.2</ele>
        <time>2024-04-10T17:04:23.393Z</time>
      </trkpt>
      <trkpt lat="47.99967" lon="-4.05232">
        <ele>50.3</ele>
        <time>2024-04-10T17:04:35.395Z</time>
      </trkpt>
      <trkpt lat="47.99976" lon="-4.05185">
        <ele>50.7</ele>
        <time>2024-04-10T17:04:41.588Z</time>
      </trkpt>
      <trkpt lat="47.99974" lon="-4.05163">
        <ele>51.1</ele>
        <time>2024-04-10T17:04:44.883Z</time>
      </trkpt>
      <trkpt lat="47.99969" lon="-4.0515">
        <ele>51.6</ele>
        <time>2024-04-10T17:04:47.813Z</time>
      </trkpt>
      <trkpt lat="47.9997" lon="-4.05134">
        <ele>52</ele>
        <time>2024-04-10T17:04:50.500Z</time>
      </trkpt>
      <trkpt lat="47.99972" lon="-4.05127">
        <ele>52</ele>
        <time>2024-04-10T17:04:51.354Z</time>
      </trkpt>
      <trkpt lat="47.99976" lon="-4.05122">
        <ele>51.9</ele>
        <time>2024-04-10T17:04:52.091Z</time>
      </trkpt>
      <trkpt lat="47.99976" lon="-4.05104">
        <ele>51.6</ele>
        <time>2024-04-10T17:04:53.716Z</time>
      </trkpt>
      <trkpt lat="47.99987" lon="-4.05106">
        <ele>51.2</ele>
        <time>2024-04-10T17:04:55.086Z</time>
      </trkpt>
      <trkpt lat="47.9999" lon="-4.05103">
        <ele>50.9</ele>
        <time>2024-04-10T17:04:55.449Z</time>
      </trkpt>
      <trkpt lat="47.99998" lon="-4.05083">
        <ele>49.1</ele>
        <time>2024-04-10T17:04:57.018Z</time>
      </trkpt>
      <trkpt lat="48.00017" lon="-4.05016">
        <ele>49.5</ele>
        <time>2024-04-10T17:05:05.869Z</time>
      </trkpt>
      <trkpt lat="48.00036" lon="-4.04937">
        <ele>53.5</ele>
        <time>2024-04-10T17:05:27.637Z</time>
        <extensions>
          <visugpx:TrkExtension xmlns:visugpx="https://www.visugpx.com/editgpx/">
            <visugpx:node>3</visugpx:node>
            </visugpx:TrkExtension>
        </extensions>
      </trkpt>
      <trkpt lat="48.0004" lon="-4.04922">
        <ele>53.1</ele>
        <time>2024-04-10T17:05:28.963Z</time>
      </trkpt>
      <trkpt lat="48.00037" lon="-4.04908">
        <ele>53.3</ele>
        <time>2024-04-10T17:05:30.992Z</time>
      </trkpt>
      <trkpt lat="48.00038" lon="-4.04889">
        <ele>54</ele>
        <time>2024-04-10T17:05:34.966Z</time>
      </trkpt>
      <trkpt lat="48.00045" lon="-4.04874">
        <ele>54.5</ele>
        <time>2024-04-10T17:05:38.162Z</time>
      </trkpt>
      <trkpt lat="48.00055" lon="-4.04869">
        <ele>54.7</ele>
        <time>2024-04-10T17:05:40.305Z</time>
      </trkpt>
      <trkpt lat="48.00083" lon="-4.04775">
        <ele>56.1</ele>
        <time>2024-04-10T17:05:54.503Z</time>
      </trkpt>
      <trkpt lat="48.00124" lon="-4.04654">
        <ele>58</ele>
        <time>2024-04-10T17:06:13.342Z</time>
      </trkpt>
      <trkpt lat="48.00126" lon="-4.0464">
        <ele>58</ele>
        <time>2024-04-10T17:06:14.949Z</time>
      </trkpt>
      <trkpt lat="48.00121" lon="-4.0462">
        <ele>58.7</ele>
        <time>2024-04-10T17:06:19.077Z</time>
      </trkpt>
      <trkpt lat="48.00121" lon="-4.04605">
        <ele>59</ele>
        <time>2024-04-10T17:06:21.379Z</time>
      </trkpt>
      <trkpt lat="48.00124" lon="-4.04589">
        <ele>59</ele>
        <time>2024-04-10T17:06:23.244Z</time>
      </trkpt>
      <trkpt lat="48.00129" lon="-4.04589">
        <ele>59</ele>
        <time>2024-04-10T17:06:24.083Z</time>
      </trkpt>
      <trkpt lat="48.00137" lon="-4.04578">
        <ele>59</ele>
        <time>2024-04-10T17:06:25.906Z</time>
      </trkpt>
      <trkpt lat="48.00144" lon="-4.04562">
        <ele>59</ele>
        <time>2024-04-10T17:06:28.052Z</time>
      </trkpt>
      <trkpt lat="48.00153" lon="-4.0454">
        <ele>59.3</ele>
        <time>2024-04-10T17:06:31.500Z</time>
      </trkpt>
      <trkpt lat="48.00164" lon="-4.04526">
        <ele>59.2</ele>
        <time>2024-04-10T17:06:33.772Z</time>
      </trkpt>
      <trkpt lat="48.00213" lon="-4.04445">
        <ele>60</ele>
        <time>2024-04-10T17:06:47.425Z</time>
      </trkpt>
      <trkpt lat="48.00225" lon="-4.04417">
        <ele>60</ele>
        <time>2024-04-10T17:06:51.157Z</time>
      </trkpt>
      <trkpt lat="48.00239" lon="-4.04377">
        <ele>61</ele>
        <time>2024-04-10T17:06:58.349Z</time>
      </trkpt>
      <trkpt lat="48.00261" lon="-4.04288">
        <ele>61.3</ele>
        <time>2024-04-10T17:07:09.495Z</time>
      </trkpt>
      <trkpt lat="48.00282" lon="-4.04191">
        <ele>61.2</ele>
        <time>2024-04-10T17:07:20.781Z</time>
      </trkpt>
      <trkpt lat="48.00299" lon="-4.04099">
        <ele>61.8</ele>
        <time>2024-04-10T17:07:32.527Z</time>
      </trkpt>
      <trkpt lat="48.00314" lon="-4.03994">
        <ele>63</ele>
        <time>2024-04-10T17:07:46.778Z</time>
      </trkpt>
      <trkpt lat="48.00318" lon="-4.03946">
        <ele>63</ele>
        <time>2024-04-10T17:07:52.207Z</time>
      </trkpt>
      <trkpt lat="48.00324" lon="-4.03845">
        <ele>63.7</ele>
        <time>2024-04-10T17:08:04.804Z</time>
      </trkpt>
      <trkpt lat="48.00323" lon="-4.03829">
        <ele>64</ele>
        <time>2024-04-10T17:08:07.215Z</time>
      </trkpt>
      <trkpt lat="48.0032" lon="-4.03821">
        <ele>64</ele>
        <time>2024-04-10T17:08:08.244Z</time>
      </trkpt>
      <trkpt lat="48.00318" lon="-4.03807">
        <ele>64</ele>
        <time>2024-04-10T17:08:09.851Z</time>
      </trkpt>
      <trkpt lat="48.0032" lon="-4.03791">
        <ele>64</ele>
        <time>2024-04-10T17:08:11.678Z</time>
      </trkpt>
      <trkpt lat="48.00323" lon="-4.03797">
        <ele>64</ele>
        <time>2024-04-10T17:08:12.519Z</time>
      </trkpt>
      <trkpt lat="48.00336" lon="-4.03805">
        <ele>63.8</ele>
        <time>2024-04-10T17:08:14.591Z</time>
      </trkpt>
      <trkpt lat="48.00357" lon="-4.03666">
        <ele>62.4</ele>
        <time>2024-04-10T17:08:28.592Z</time>
        <extensions>
          <visugpx:TrkExtension xmlns:visugpx="https://www.visugpx.com/editgpx/">
            <visugpx:node>4</visugpx:node>
            </visugpx:TrkExtension>
        </extensions>
      </trkpt>
      <trkpt lat="48.00366" lon="-4.03606">
        <ele>59</ele>
        <time>2024-04-10T17:08:32.733Z</time>
      </trkpt>
      <trkpt lat="48.00378" lon="-4.03547">
        <ele>58.1</ele>
        <time>2024-04-10T17:08:38.439Z</time>
      </trkpt>
      <trkpt lat="48.00387" lon="-4.03521">
        <ele>57.4</ele>
        <time>2024-04-10T17:08:40.867Z</time>
      </trkpt>
      <trkpt lat="48.00402" lon="-4.03466">
        <ele>54.2</ele>
        <time>2024-04-10T17:08:44.867Z</time>
      </trkpt>
      <trkpt lat="48.00425" lon="-4.03403">
        <ele>52.8</ele>
        <time>2024-04-10T17:08:51.127Z</time>
      </trkpt>
      <trkpt lat="48.00458" lon="-4.03334">
        <ele>50.5</ele>
        <time>2024-04-10T17:08:57.918Z</time>
      </trkpt>
      <trkpt lat="48.00486" lon="-4.03287">
        <ele>49.7</ele>
        <time>2024-04-10T17:09:03.878Z</time>
      </trkpt>
      <trkpt lat="48.00491" lon="-4.03279">
        <ele>49.6</ele>
        <time>2024-04-10T17:09:04.963Z</time>
      </trkpt>
      <trkpt lat="48.0052" lon="-4.03238">
        <ele>49.3</ele>
        <time>2024-04-10T17:09:11.208Z</time>
      </trkpt>
      <trkpt lat="48.00646" lon="-4.03079">
        <ele>55.8</ele>
        <time>2024-04-10T17:09:53.524Z</time>
      </trkpt>
      <trkpt lat="48.00664" lon="-4.03053">
        <ele>56.8</ele>
        <time>2024-04-10T17:09:59.989Z</time>
      </trkpt>
      <trkpt lat="48.00932" lon="-4.02699">
        <ele>72.1</ele>
        <time>2024-04-10T17:11:35.604Z</time>
      </trkpt>
      <trkpt lat="48.00968" lon="-4.02649">
        <ele>74.4</ele>
        <time>2024-04-10T17:11:49.415Z</time>
      </trkpt>
      <trkpt lat="48.00987" lon="-4.02617">
        <ele>75.9</ele>
        <time>2024-04-10T17:11:58.054Z</time>
      </trkpt>
      <trkpt lat="48.01019" lon="-4.02549">
        <ele>78.6</ele>
        <time>2024-04-10T17:12:14.032Z</time>
      </trkpt>
      <trkpt lat="48.01035" lon="-4.02506">
        <ele>78.6</ele>
        <time>2024-04-10T17:12:19.554Z</time>
      </trkpt>
      <trkpt lat="48.01045" lon="-4.02474">
        <ele>81.2</ele>
        <time>2024-04-10T17:12:34.482Z</time>
      </trkpt>
      <trkpt lat="48.01057" lon="-4.02415">
        <ele>82.8</ele>
        <time>2024-04-10T17:12:44.987Z</time>
      </trkpt>
      <trkpt lat="48.01073" lon="-4.02308">
        <ele>85.3</ele>
        <time>2024-04-10T17:13:02.651Z</time>
      </trkpt>
      <trkpt lat="48.01078" lon="-4.02232">
        <ele>87.8</ele>
        <time>2024-04-10T17:13:17.400Z</time>
      </trkpt>
      <trkpt lat="48.01079" lon="-4.02214">
        <ele>88.2</ele>
        <time>2024-04-10T17:13:20.277Z</time>
      </trkpt>
      <trkpt lat="48.0109" lon="-4.02126">
        <ele>89.5</ele>
        <time>2024-04-10T17:13:32.814Z</time>
      </trkpt>
      <trkpt lat="48.01096" lon="-4.02091">
        <ele>89.8</ele>
        <time>2024-04-10T17:13:37.399Z</time>
      </trkpt>
      <trkpt lat="48.01111" lon="-4.02021">
        <ele>92.2</ele>
        <time>2024-04-10T17:13:51.572Z</time>
      </trkpt>
      <trkpt lat="48.01167" lon="-4.01832">
        <ele>95</ele>
        <time>2024-04-10T17:14:20.064Z</time>
      </trkpt>
      <trkpt lat="48.01177" lon="-4.01798">
        <ele>95.7</ele>
        <time>2024-04-10T17:14:25.653Z</time>
      </trkpt>
      <trkpt lat="48.01183" lon="-4.01771">
        <ele>96</ele>
        <time>2024-04-10T17:14:29.391Z</time>
      </trkpt>
      <trkpt lat="48.01203" lon="-4.01648">
        <ele>96.7</ele>
        <time>2024-04-10T17:14:44.791Z</time>
      </trkpt>
      <trkpt lat="48.0121" lon="-4.01584">
        <ele>97.4</ele>
        <time>2024-04-10T17:14:53.346Z</time>
      </trkpt>
      <trkpt lat="48.01215" lon="-4.01517">
        <ele>97.4</ele>
        <time>2024-04-10T17:15:00.911Z</time>
      </trkpt>
      <trkpt lat="48.01216" lon="-4.01506">
        <ele>97.8</ele>
        <time>2024-04-10T17:15:03.195Z</time>
      </trkpt>
      <trkpt lat="48.01222" lon="-4.01453">
        <ele>99</ele>
        <time>2024-04-10T17:15:11.783Z</time>
      </trkpt>
      <trkpt lat="48.01222" lon="-4.01444">
        <ele>99</ele>
        <time>2024-04-10T17:15:12.793Z</time>
      </trkpt>
      <trkpt lat="48.01218" lon="-4.01426">
        <ele>99</ele>
        <time>2024-04-10T17:15:14.921Z</time>
      </trkpt>
      <trkpt lat="48.01215" lon="-4.01425">
        <ele>99</ele>
        <time>2024-04-10T17:15:15.437Z</time>
      </trkpt>
      <trkpt lat="48.01212" lon="-4.01423">
        <ele>99</ele>
        <time>2024-04-10T17:15:15.988Z</time>
      </trkpt>
      <trkpt lat="48.01203" lon="-4.01413">
        <ele>99.1</ele>
        <time>2024-04-10T17:15:18.041Z</time>
      </trkpt>
      <trkpt lat="48.012" lon="-4.01406">
        <ele>99.4</ele>
        <time>2024-04-10T17:15:19.753Z</time>
      </trkpt>
      <trkpt lat="48.01198" lon="-4.01396">
        <ele>99.7</ele>
        <time>2024-04-10T17:15:21.624Z</time>
      </trkpt>
      <trkpt lat="48.01198" lon="-4.01386">
        <ele>100</ele>
        <time>2024-04-10T17:15:23.458Z</time>
      </trkpt>
      <trkpt lat="48.012" lon="-4.01376">
        <ele>100</ele>
        <time>2024-04-10T17:15:24.630Z</time>
      </trkpt>
      <trkpt lat="48.01203" lon="-4.01367">
        <ele>100</ele>
        <time>2024-04-10T17:15:25.758Z</time>
      </trkpt>
      <trkpt lat="48.01209" lon="-4.0136">
        <ele>100</ele>
        <time>2024-04-10T17:15:27.035Z</time>
      </trkpt>
      <trkpt lat="48.01215" lon="-4.01356">
        <ele>99.9</ele>
        <time>2024-04-10T17:15:27.995Z</time>
      </trkpt>
      <trkpt lat="48.01222" lon="-4.01355">
        <ele>99.8</ele>
        <time>2024-04-10T17:15:29.032Z</time>
      </trkpt>
      <trkpt lat="48.01229" lon="-4.01356">
        <ele>99.4</ele>
        <time>2024-04-10T17:15:29.784Z</time>
      </trkpt>
      <trkpt lat="48.01246" lon="-4.01341">
        <ele>98.8</ele>
        <time>2024-04-10T17:15:32.333Z</time>
      </trkpt>
      <trkpt lat="48.01255" lon="-4.01328">
        <ele>99</ele>
        <time>2024-04-10T17:15:34.797Z</time>
      </trkpt>
      <trkpt lat="48.01275" lon="-4.0129">
        <ele>98.7</ele>
        <time>2024-04-10T17:15:39.778Z</time>
      </trkpt>
      <trkpt lat="48.01276" lon="-4.01288">
        <ele>98.7</ele>
        <time>2024-04-10T17:15:40.058Z</time>
      </trkpt>
      <trkpt lat="48.01316" lon="-4.01173">
        <ele>100.9</ele>
        <time>2024-04-10T17:15:58.958Z</time>
      </trkpt>
      <trkpt lat="48.01342" lon="-4.01087">
        <ele>102.2</ele>
        <time>2024-04-10T17:16:12.014Z</time>
      </trkpt>
      <trkpt lat="48.01369" lon="-4.00986">
        <ele>104.5</ele>
        <time>2024-04-10T17:16:29.038Z</time>
      </trkpt>
      <trkpt lat="48.01393" lon="-4.00879">
        <ele>107</ele>
        <time>2024-04-10T17:16:47.014Z</time>
      </trkpt>
      <trkpt lat="48.01409" lon="-4.00807">
        <ele>107</ele>
        <time>2024-04-10T17:16:55.527Z</time>
      </trkpt>
      <trkpt lat="48.01429" lon="-4.00724">
        <ele>107</ele>
        <time>2024-04-10T17:17:05.427Z</time>
      </trkpt>
      <trkpt lat="48.01454" lon="-4.00635">
        <ele>106</ele>
        <time>2024-04-10T17:17:14.844Z</time>
      </trkpt>
      <trkpt lat="48.01464" lon="-4.00599">
        <ele>106</ele>
        <time>2024-04-10T17:17:19.218Z</time>
      </trkpt>
      <trkpt lat="48.01478" lon="-4.00549">
        <ele>105.4</ele>
        <time>2024-04-10T17:17:24.458Z</time>
      </trkpt>
      <trkpt lat="48.01504" lon="-4.00469">
        <ele>104.9</ele>
        <time>2024-04-10T17:17:33.692Z</time>
      </trkpt>
      <trkpt lat="48.01545" lon="-4.0036">
        <ele>105.4</ele>
        <time>2024-04-10T17:17:48.562Z</time>
      </trkpt>
      <trkpt lat="48.01585" lon="-4.00268">
        <ele>107</ele>
        <time>2024-04-10T17:18:03.942Z</time>
      </trkpt>
      <trkpt lat="48.01636" lon="-4.00179">
        <ele>107.7</ele>
        <time>2024-04-10T17:18:18.294Z</time>
      </trkpt>
      <trkpt lat="48.01688" lon="-4.00104">
        <ele>108.1</ele>
        <time>2024-04-10T17:18:31.082Z</time>
      </trkpt>
      <trkpt lat="48.01828" lon="-3.99934">
        <ele>105.2</ele>
        <time>2024-04-10T17:18:57.252Z</time>
      </trkpt>
      <trkpt lat="48.01853" lon="-3.99906">
        <ele>104.2</ele>
        <time>2024-04-10T17:19:01.236Z</time>
      </trkpt>
      <trkpt lat="48.0188" lon="-3.99875">
        <ele>103.2</ele>
        <time>2024-04-10T17:19:05.666Z</time>
      </trkpt>
      <trkpt lat="48.01915" lon="-3.99835">
        <ele>103.9</ele>
        <time>2024-04-10T17:19:14.331Z</time>
      </trkpt>
      <trkpt lat="48.01941" lon="-3.99804">
        <ele>103</ele>
        <time>2024-04-10T17:19:18.739Z</time>
      </trkpt>
      <trkpt lat="48.01979" lon="-3.99761">
        <ele>103.6</ele>
        <time>2024-04-10T17:19:27.795Z</time>
      </trkpt>
      <trkpt lat="48.02061" lon="-3.99659">
        <ele>106.2</ele>
        <time>2024-04-10T17:19:50.789Z</time>
      </trkpt>
      <trkpt lat="48.02164" lon="-3.99519">
        <ele>109.9</ele>
        <time>2024-04-10T17:20:21.544Z</time>
      </trkpt>
      <trkpt lat="48.02177" lon="-3.99497">
        <ele>110.3</ele>
        <time>2024-04-10T17:20:25.595Z</time>
      </trkpt>
      <trkpt lat="48.0221" lon="-3.99436">
        <ele>110.4</ele>
        <time>2024-04-10T17:20:34.559Z</time>
      </trkpt>
      <trkpt lat="48.0226" lon="-3.99322">
        <ele>110.4</ele>
        <time>2024-04-10T17:20:49.855Z</time>
        <extensions>
          <visugpx:TrkExtension xmlns:visugpx="https://www.visugpx.com/editgpx/">
            <visugpx:node>5</visugpx:node>
            </visugpx:TrkExtension>
        </extensions>
      </trkpt>
      <trkpt lat="48.02326" lon="-3.9917">
        <ele>110.8</ele>
        <time>2024-04-10T17:21:10.843Z</time>
      </trkpt>
      <trkpt lat="48.02368" lon="-3.99057">
        <ele>111.2</ele>
        <time>2024-04-10T17:21:26.010Z</time>
      </trkpt>
      <trkpt lat="48.02379" lon="-3.99015">
        <ele>111.3</ele>
        <time>2024-04-10T17:21:31.234Z</time>
      </trkpt>
      <trkpt lat="48.02405" lon="-3.98889">
        <ele>109.6</ele>
        <time>2024-04-10T17:21:43.689Z</time>
      </trkpt>
      <trkpt lat="48.02411" lon="-3.98838">
        <ele>108.2</ele>
        <time>2024-04-10T17:21:47.837Z</time>
      </trkpt>
      <trkpt lat="48.02415" lon="-3.9877">
        <ele>106.7</ele>
        <time>2024-04-10T17:21:53.621Z</time>
      </trkpt>
      <trkpt lat="48.0242" lon="-3.98628">
        <ele>103.1</ele>
        <time>2024-04-10T17:22:05.227Z</time>
      </trkpt>
      <trkpt lat="48.02432" lon="-3.9823">
        <ele>99.1</ele>
        <time>2024-04-10T17:22:44.245Z</time>
      </trkpt>
      <trkpt lat="48.02434" lon="-3.98142">
        <ele>98.6</ele>
        <time>2024-04-10T17:22:53.378Z</time>
      </trkpt>
      <trkpt lat="48.02435" lon="-3.98003">
        <ele>100</ele>
        <time>2024-04-10T17:23:11.504Z</time>
      </trkpt>
      <trkpt lat="48.02437" lon="-3.97931">
        <ele>101.8</ele>
        <time>2024-04-10T17:23:23.568Z</time>
      </trkpt>
      <trkpt lat="48.02441" lon="-3.97891">
        <ele>102.2</ele>
        <time>2024-04-10T17:23:28.827Z</time>
      </trkpt>
      <trkpt lat="48.02457" lon="-3.97826">
        <ele>103.5</ele>
        <time>2024-04-10T17:23:39.234Z</time>
      </trkpt>
      <trkpt lat="48.02585" lon="-3.9743">
        <ele>99.1</ele>
        <time>2024-04-10T17:24:22.328Z</time>
      </trkpt>
      <trkpt lat="48.02606" lon="-3.9737">
        <ele>98.6</ele>
        <time>2024-04-10T17:24:29.194Z</time>
      </trkpt>
      <trkpt lat="48.02646" lon="-3.97269">
        <ele>96.3</ele>
        <time>2024-04-10T17:24:39.417Z</time>
      </trkpt>
      <trkpt lat="48.02654" lon="-3.9725">
        <ele>95.5</ele>
        <time>2024-04-10T17:24:41.062Z</time>
      </trkpt>
      <trkpt lat="48.02697" lon="-3.97141">
        <ele>94.9</ele>
        <time>2024-04-10T17:24:54.355Z</time>
      </trkpt>
      <trkpt lat="48.02708" lon="-3.97099">
        <ele>95.7</ele>
        <time>2024-04-10T17:25:01.015Z</time>
      </trkpt>
      <trkpt lat="48.02712" lon="-3.97076">
        <ele>96.3</ele>
        <time>2024-04-10T17:25:05.012Z</time>
      </trkpt>
      <trkpt lat="48.02714" lon="-3.97055">
        <ele>97</ele>
        <time>2024-04-10T17:25:09.129Z</time>
      </trkpt>
      <trkpt lat="48.02715" lon="-3.97003">
        <ele>98.9</ele>
        <time>2024-04-10T17:25:19.933Z</time>
      </trkpt>
      <trkpt lat="48.02714" lon="-3.96952">
        <ele>101.4</ele>
        <time>2024-04-10T17:25:33.532Z</time>
      </trkpt>
      <trkpt lat="48.02704" lon="-3.9677">
        <ele>108.1</ele>
        <time>2024-04-10T17:26:11.578Z</time>
      </trkpt>
      <trkpt lat="48.02707" lon="-3.96734">
        <ele>109</ele>
        <time>2024-04-10T17:26:17.632Z</time>
      </trkpt>
      <trkpt lat="48.02714" lon="-3.96689">
        <ele>110.2</ele>
        <time>2024-04-10T17:26:25.506Z</time>
      </trkpt>
      <trkpt lat="48.0272" lon="-3.96668">
        <ele>111</ele>
        <time>2024-04-10T17:26:30.114Z</time>
      </trkpt>
      <trkpt lat="48.02746" lon="-3.96601">
        <ele>114.4</ele>
        <time>2024-04-10T17:26:48.728Z</time>
      </trkpt>
      <trkpt lat="48.02768" lon="-3.96551">
        <ele>117</ele>
        <time>2024-04-10T17:27:02.981Z</time>
      </trkpt>
      <trkpt lat="48.02781" lon="-3.96518">
        <ele>118.2</ele>
        <time>2024-04-10T17:27:10.184Z</time>
      </trkpt>
      <trkpt lat="48.02808" lon="-3.96433">
        <ele>119</ele>
        <time>2024-04-10T17:27:22.158Z</time>
      </trkpt>
      <trkpt lat="48.02818" lon="-3.96394">
        <ele>118.6</ele>
        <time>2024-04-10T17:27:26.273Z</time>
      </trkpt>
      <trkpt lat="48.02826" lon="-3.96357">
        <ele>117.4</ele>
        <time>2024-04-10T17:27:29.263Z</time>
      </trkpt>
      <trkpt lat="48.0286" lon="-3.96078">
        <ele>111.1</ele>
        <time>2024-04-10T17:27:53.226Z</time>
      </trkpt>
      <trkpt lat="48.02861" lon="-3.96052">
        <ele>112</ele>
        <time>2024-04-10T17:27:58.433Z</time>
      </trkpt>
      <trkpt lat="48.0286" lon="-3.96024">
        <ele>112.1</ele>
        <time>2024-04-10T17:28:01.745Z</time>
      </trkpt>
      <trkpt lat="48.02856" lon="-3.95992">
        <ele>113.3</ele>
        <time>2024-04-10T17:28:08.550Z</time>
      </trkpt>
      <trkpt lat="48.02841" lon="-3.95903">
        <ele>116.8</ele>
        <time>2024-04-10T17:28:28.219Z</time>
      </trkpt>
      <trkpt lat="48.02837" lon="-3.95848">
        <ele>118.2</ele>
        <time>2024-04-10T17:28:37.535Z</time>
      </trkpt>
      <trkpt lat="48.02837" lon="-3.95817">
        <ele>118.8</ele>
        <time>2024-04-10T17:28:42.239Z</time>
      </trkpt>
      <trkpt lat="48.02845" lon="-3.95553">
        <ele>127.5</ele>
        <time>2024-04-10T17:29:33.452Z</time>
      </trkpt>
      <trkpt lat="48.0285" lon="-3.95488">
        <ele>129</ele>
        <time>2024-04-10T17:29:44.013Z</time>
      </trkpt>
      <trkpt lat="48.02859" lon="-3.95423">
        <ele>130.7</ele>
        <time>2024-04-10T17:29:55.252Z</time>
      </trkpt>
      <trkpt lat="48.02864" lon="-3.95397">
        <ele>131.8</ele>
        <time>2024-04-10T17:30:01.346Z</time>
      </trkpt>
      <trkpt lat="48.02875" lon="-3.95333">
        <ele>134</ele>
        <time>2024-04-10T17:30:14.242Z</time>
      </trkpt>
      <trkpt lat="48.02889" lon="-3.95244">
        <ele>136.2</ele>
        <time>2024-04-10T17:30:29.300Z</time>
      </trkpt>
      <trkpt lat="48.02897" lon="-3.95165">
        <ele>137</ele>
        <time>2024-04-10T17:30:39.708Z</time>
      </trkpt>
      <trkpt lat="48.02904" lon="-3.95055">
        <ele>139</ele>
        <time>2024-04-10T17:30:56.124Z</time>
      </trkpt>
      <trkpt lat="48.02911" lon="-3.94993">
        <ele>139.4</ele>
        <time>2024-04-10T17:31:03.867Z</time>
      </trkpt>
      <trkpt lat="48.02916" lon="-3.94973">
        <ele>140</ele>
        <time>2024-04-10T17:31:07.649Z</time>
      </trkpt>
      <trkpt lat="48.02929" lon="-3.94933">
        <ele>140.7</ele>
        <time>2024-04-10T17:31:14.001Z</time>
      </trkpt>
      <trkpt lat="48.02967" lon="-3.94837">
        <ele>142</ele>
        <time>2024-04-10T17:31:28.914Z</time>
      </trkpt>
      <trkpt lat="48.0309" lon="-3.94546">
        <ele>142.7</ele>
        <time>2024-04-10T17:32:08.678Z</time>
      </trkpt>
      <trkpt lat="48.03153" lon="-3.94391">
        <ele>142.5</ele>
        <time>2024-04-10T17:32:28.711Z</time>
      </trkpt>
      <trkpt lat="48.0317" lon="-3.94333">
        <ele>143</ele>
        <time>2024-04-10T17:32:36.694Z</time>
      </trkpt>
      <trkpt lat="48.0318" lon="-3.94281">
        <ele>143.5</ele>
        <time>2024-04-10T17:32:43.657Z</time>
      </trkpt>
      <trkpt lat="48.03184" lon="-3.94251">
        <ele>143.6</ele>
        <time>2024-04-10T17:32:47.255Z</time>
      </trkpt>
      <trkpt lat="48.03187" lon="-3.94212">
        <ele>143.7</ele>
        <time>2024-04-10T17:32:51.823Z</time>
      </trkpt>
      <trkpt lat="48.03186" lon="-3.94175">
        <ele>143.7</ele>
        <time>2024-04-10T17:32:55.977Z</time>
      </trkpt>
      <trkpt lat="48.03183" lon="-3.94135">
        <ele>143.7</ele>
        <time>2024-04-10T17:33:00.493Z</time>
      </trkpt>
      <trkpt lat="48.03153" lon="-3.93879">
        <ele>147.7</ele>
        <time>2024-04-10T17:33:37.399Z</time>
      </trkpt>
      <trkpt lat="48.03143" lon="-3.93783">
        <ele>148.8</ele>
        <time>2024-04-10T17:33:50.319Z</time>
      </trkpt>
      <trkpt lat="48.03108" lon="-3.93363">
        <ele>152</ele>
        <time>2024-04-10T17:34:43.401Z</time>
      </trkpt>
      <trkpt lat="48.03108" lon="-3.93335">
        <ele>152</ele>
        <time>2024-04-10T17:34:46.542Z</time>
      </trkpt>
      <trkpt lat="48.03109" lon="-3.93314">
        <ele>152</ele>
        <time>2024-04-10T17:34:48.903Z</time>
      </trkpt>
      <trkpt lat="48.03116" lon="-3.93262">
        <ele>152</ele>
        <time>2024-04-10T17:34:54.854Z</time>
      </trkpt>
      <trkpt lat="48.0313" lon="-3.93202">
        <ele>152.5</ele>
        <time>2024-04-10T17:35:02.861Z</time>
      </trkpt>
      <trkpt lat="48.03151" lon="-3.93132">
        <ele>153</ele>
        <time>2024-04-10T17:35:12.332Z</time>
      </trkpt>
      <trkpt lat="48.03211" lon="-3.92952">
        <ele>155.7</ele>
        <time>2024-04-10T17:35:39.991Z</time>
      </trkpt>
      <trkpt lat="48.03255" lon="-3.9286">
        <ele>156</ele>
        <time>2024-04-10T17:35:53.173Z</time>
      </trkpt>
      <trkpt lat="48.03317" lon="-3.92738">
        <ele>156</ele>
        <time>2024-04-10T17:36:10.363Z</time>
      </trkpt>
      <trkpt lat="48.0336" lon="-3.92649">
        <ele>155</ele>
        <time>2024-04-10T17:36:21.244Z</time>
      </trkpt>
      <trkpt lat="48.03376" lon="-3.92613">
        <ele>155</ele>
        <time>2024-04-10T17:36:26.093Z</time>
      </trkpt>
      <trkpt lat="48.03394" lon="-3.92563">
        <ele>154</ele>
        <time>2024-04-10T17:36:31.155Z</time>
      </trkpt>
      <trkpt lat="48.03413" lon="-3.92518">
        <ele>153.1</ele>
        <time>2024-04-10T17:36:35.939Z</time>
      </trkpt>
      <trkpt lat="48.03423" lon="-3.925">
        <ele>153</ele>
        <time>2024-04-10T17:36:38.413Z</time>
      </trkpt>
      <trkpt lat="48.03461" lon="-3.92441">
        <ele>152.9</ele>
        <time>2024-04-10T17:36:47.444Z</time>
      </trkpt>
      <trkpt lat="48.03508" lon="-3.9238">
        <ele>152.2</ele>
        <time>2024-04-10T17:36:56.861Z</time>
      </trkpt>
      <trkpt lat="48.03661" lon="-3.92178">
        <ele>154.6</ele>
        <time>2024-04-10T17:37:35.315Z</time>
      </trkpt>
      <trkpt lat="48.03744" lon="-3.92062">
        <ele>156.9</ele>
        <time>2024-04-10T17:37:58.721Z</time>
      </trkpt>
      <trkpt lat="48.03784" lon="-3.9201">
        <ele>158</ele>
        <time>2024-04-10T17:38:09.701Z</time>
      </trkpt>
      <trkpt lat="48.0382" lon="-3.91967">
        <ele>158.5</ele>
        <time>2024-04-10T17:38:18.302Z</time>
      </trkpt>
      <trkpt lat="48.03861" lon="-3.91918">
        <ele>159</ele>
        <time>2024-04-10T17:38:27.968Z</time>
      </trkpt>
      <trkpt lat="48.03919" lon="-3.91846">
        <ele>158</ele>
        <time>2024-04-10T17:38:39.174Z</time>
      </trkpt>
      <trkpt lat="48.03947" lon="-3.91808">
        <ele>157.9</ele>
        <time>2024-04-10T17:38:45.360Z</time>
      </trkpt>
      <trkpt lat="48.0398" lon="-3.9177">
        <ele>157</ele>
        <time>2024-04-10T17:38:51.129Z</time>
      </trkpt>
      <trkpt lat="48.0407" lon="-3.91682">
        <ele>157</ele>
        <time>2024-04-10T17:39:09.167Z</time>
        <extensions>
          <visugpx:TrkExtension xmlns:visugpx="https://www.visugpx.com/editgpx/">
            <visugpx:node>6</visugpx:node>
            </visugpx:TrkExtension>
        </extensions>
      </trkpt>
      <trkpt lat="48.04136" lon="-3.91618">
        <ele>156.2</ele>
        <time>2024-04-10T17:39:21.183Z</time>
      </trkpt>
      <trkpt lat="48.0417" lon="-3.91584">
        <ele>157</ele>
        <time>2024-04-10T17:39:29.548Z</time>
      </trkpt>
      <trkpt lat="48.04192" lon="-3.91557">
        <ele>157</ele>
        <time>2024-04-10T17:39:34.321Z</time>
      </trkpt>
      <trkpt lat="48.04282" lon="-3.91424">
        <ele>158.2</ele>
        <time>2024-04-10T17:39:57.614Z</time>
      </trkpt>
      <trkpt lat="48.04311" lon="-3.91378">
        <ele>159.2</ele>
        <time>2024-04-10T17:40:06.654Z</time>
      </trkpt>
      <trkpt lat="48.04367" lon="-3.9127">
        <ele>160.2</ele>
        <time>2024-04-10T17:40:23.728Z</time>
      </trkpt>
      <trkpt lat="48.04417" lon="-3.9117">
        <ele>161</ele>
        <time>2024-04-10T17:40:39.113Z</time>
      </trkpt>
      <trkpt lat="48.04485" lon="-3.91053">
        <ele>162</ele>
        <time>2024-04-10T17:40:58.226Z</time>
      </trkpt>
      <trkpt lat="48.04508" lon="-3.91008">
        <ele>162</ele>
        <time>2024-04-10T17:41:04.579Z</time>
      </trkpt>
      <trkpt lat="48.0452" lon="-3.90982">
        <ele>162</ele>
        <time>2024-04-10T17:41:08.122Z</time>
      </trkpt>
      <trkpt lat="48.04537" lon="-3.9093">
        <ele>162</ele>
        <time>2024-04-10T17:41:14.614Z</time>
      </trkpt>
      <trkpt lat="48.04545" lon="-3.90898">
        <ele>162</ele>
        <time>2024-04-10T17:41:18.445Z</time>
      </trkpt>
      <trkpt lat="48.04554" lon="-3.90846">
        <ele>162</ele>
        <time>2024-04-10T17:41:24.469Z</time>
      </trkpt>
      <trkpt lat="48.04559" lon="-3.90785">
        <ele>162</ele>
        <time>2024-04-10T17:41:31.361Z</time>
      </trkpt>
      <trkpt lat="48.04578" lon="-3.90464">
        <ele>162</ele>
        <time>2024-04-10T17:42:07.502Z</time>
      </trkpt>
      <trkpt lat="48.04578" lon="-3.90418">
        <ele>162</ele>
        <time>2024-04-10T17:42:12.661Z</time>
      </trkpt>
      <trkpt lat="48.04568" lon="-3.90299">
        <ele>161.1</ele>
        <time>2024-04-10T17:42:24.796Z</time>
      </trkpt>
      <trkpt lat="48.04564" lon="-3.90209">
        <ele>161</ele>
        <time>2024-04-10T17:42:34.754Z</time>
      </trkpt>
      <trkpt lat="48.04558" lon="-3.9008">
        <ele>161</ele>
        <time>2024-04-10T17:42:49.257Z</time>
      </trkpt>
      <trkpt lat="48.04556" lon="-3.89988">
        <ele>162</ele>
        <time>2024-04-10T17:43:01.406Z</time>
      </trkpt>
      <trkpt lat="48.04558" lon="-3.89895">
        <ele>162</ele>
        <time>2024-04-10T17:43:11.841Z</time>
      </trkpt>
      <trkpt lat="48.04561" lon="-3.89859">
        <ele>162</ele>
        <time>2024-04-10T17:43:15.910Z</time>
      </trkpt>
      <trkpt lat="48.04575" lon="-3.89761">
        <ele>162</ele>
        <time>2024-04-10T17:43:27.148Z</time>
      </trkpt>
      <trkpt lat="48.04618" lon="-3.89504">
        <ele>162</ele>
        <time>2024-04-10T17:43:56.859Z</time>
      </trkpt>
      <trkpt lat="48.04625" lon="-3.89416">
        <ele>161.5</ele>
        <time>2024-04-10T17:44:06.052Z</time>
      </trkpt>
      <trkpt lat="48.04635" lon="-3.89131">
        <ele>161.9</ele>
        <time>2024-04-10T17:44:38.706Z</time>
      </trkpt>
      <trkpt lat="48.04645" lon="-3.88991">
        <ele>163.5</ele>
        <time>2024-04-10T17:44:57.437Z</time>
      </trkpt>
      <trkpt lat="48.04647" lon="-3.88968">
        <ele>164.3</ele>
        <time>2024-04-10T17:45:02.068Z</time>
      </trkpt>
      <trkpt lat="48.04653" lon="-3.88885">
        <ele>165</ele>
        <time>2024-04-10T17:45:12.669Z</time>
      </trkpt>
      <trkpt lat="48.0469" lon="-3.88488">
        <ele>166.5</ele>
        <time>2024-04-10T17:46:00.125Z</time>
      </trkpt>
      <trkpt lat="48.04704" lon="-3.88395">
        <ele>165.5</ele>
        <time>2024-04-10T17:46:09.403Z</time>
      </trkpt>
      <trkpt lat="48.04717" lon="-3.88334">
        <ele>164.6</ele>
        <time>2024-04-10T17:46:15.360Z</time>
      </trkpt>
      <trkpt lat="48.04726" lon="-3.88307">
        <ele>164.2</ele>
        <time>2024-04-10T17:46:18.195Z</time>
      </trkpt>
      <trkpt lat="48.04779" lon="-3.88178">
        <ele>161.5</ele>
        <time>2024-04-10T17:46:31.653Z</time>
      </trkpt>
      <trkpt lat="48.04786" lon="-3.88163">
        <ele>161.2</ele>
        <time>2024-04-10T17:46:33.307Z</time>
      </trkpt>
      <trkpt lat="48.04828" lon="-3.8806">
        <ele>159.8</ele>
        <time>2024-04-10T17:46:44.883Z</time>
      </trkpt>
      <trkpt lat="48.04847" lon="-3.88012">
        <ele>160</ele>
        <time>2024-04-10T17:46:51.472Z</time>
      </trkpt>
      <trkpt lat="48.04853" lon="-3.87993">
        <ele>160.2</ele>
        <time>2024-04-10T17:46:54.187Z</time>
      </trkpt>
      <trkpt lat="48.0486" lon="-3.87964">
        <ele>159.9</ele>
        <time>2024-04-10T17:46:57.217Z</time>
      </trkpt>
      <trkpt lat="48.04939" lon="-3.87507">
        <ele>165.8</ele>
        <time>2024-04-10T17:48:01.157Z</time>
      </trkpt>
      <trkpt lat="48.0494" lon="-3.87498">
        <ele>165.9</ele>
        <time>2024-04-10T17:48:02.363Z</time>
      </trkpt>
      <trkpt lat="48.04945" lon="-3.87433">
        <ele>167</ele>
        <time>2024-04-10T17:48:11.873Z</time>
      </trkpt>
      <trkpt lat="48.04956" lon="-3.87223">
        <ele>168.4</ele>
        <time>2024-04-10T17:48:37.918Z</time>
      </trkpt>
      <trkpt lat="48.04974" lon="-3.86978">
        <ele>169.9</ele>
        <time>2024-04-10T17:49:08.135Z</time>
      </trkpt>
      <trkpt lat="48.04979" lon="-3.8692">
        <ele>170.7</ele>
        <time>2024-04-10T17:49:16.209Z</time>
      </trkpt>
      <trkpt lat="48.04986" lon="-3.86853">
        <ele>170.5</ele>
        <time>2024-04-10T17:49:23.505Z</time>
      </trkpt>
      <trkpt lat="48.05016" lon="-3.86636">
        <ele>172.4</ele>
        <time>2024-04-10T17:49:51.724Z</time>
      </trkpt>
      <trkpt lat="48.05038" lon="-3.86467">
        <ele>174.7</ele>
        <time>2024-04-10T17:50:15.370Z</time>
      </trkpt>
      <trkpt lat="48.05055" lon="-3.86368">
        <ele>176</ele>
        <time>2024-04-10T17:50:29.264Z</time>
      </trkpt>
      <trkpt lat="48.05066" lon="-3.86322">
        <ele>176.8</ele>
        <time>2024-04-10T17:50:36.313Z</time>
      </trkpt>
      <trkpt lat="48.05089" lon="-3.86232">
        <ele>177.9</ele>
        <time>2024-04-10T17:50:49.141Z</time>
      </trkpt>
      <trkpt lat="48.05123" lon="-3.86102">
        <ele>179.7</ele>
        <time>2024-04-10T17:51:08.170Z</time>
      </trkpt>
      <trkpt lat="48.05135" lon="-3.8606">
        <ele>180</ele>
        <time>2024-04-10T17:51:13.811Z</time>
      </trkpt>
      <trkpt lat="48.05152" lon="-3.85983">
        <ele>180.5</ele>
        <time>2024-04-10T17:51:23.764Z</time>
      </trkpt>
      <trkpt lat="48.05177" lon="-3.85848">
        <ele>180.8</ele>
        <time>2024-04-10T17:51:39.964Z</time>
      </trkpt>
      <trkpt lat="48.05197" lon="-3.85768">
        <ele>181</ele>
        <time>2024-04-10T17:51:49.869Z</time>
      </trkpt>
      <trkpt lat="48.0521" lon="-3.85728">
        <ele>181</ele>
        <time>2024-04-10T17:51:54.857Z</time>
      </trkpt>
      <trkpt lat="48.05364" lon="-3.8531">
        <ele>180.1</ele>
        <time>2024-04-10T17:52:46.973Z</time>
      </trkpt>
      <trkpt lat="48.05393" lon="-3.85229">
        <ele>182.1</ele>
        <time>2024-04-10T17:53:01.503Z</time>
      </trkpt>
      <trkpt lat="48.05411" lon="-3.85173">
        <ele>183.2</ele>
        <time>2024-04-10T17:53:10.670Z</time>
      </trkpt>
      <trkpt lat="48.05464" lon="-3.84987">
        <ele>186</ele>
        <time>2024-04-10T17:53:38.658Z</time>
      </trkpt>
      <trkpt lat="48.05499" lon="-3.84886">
        <ele>187</ele>
        <time>2024-04-10T17:53:53.193Z</time>
      </trkpt>
      <trkpt lat="48.05522" lon="-3.84827">
        <ele>187.8</ele>
        <time>2024-04-10T17:54:02.329Z</time>
      </trkpt>
      <trkpt lat="48.05559" lon="-3.84729">
        <ele>189</ele>
        <time>2024-04-10T17:54:17.134Z</time>
      </trkpt>
      <trkpt lat="48.05569" lon="-3.84695">
        <ele>189</ele>
        <time>2024-04-10T17:54:21.300Z</time>
      </trkpt>
      <trkpt lat="48.05584" lon="-3.84633">
        <ele>190</ele>
        <time>2024-04-10T17:54:30.625Z</time>
      </trkpt>
      <trkpt lat="48.05609" lon="-3.84506">
        <ele>191</ele>
        <time>2024-04-10T17:54:47.220Z</time>
      </trkpt>
      <trkpt lat="48.0563" lon="-3.84411">
        <ele>192</ele>
        <time>2024-04-10T17:55:00.245Z</time>
      </trkpt>
      <trkpt lat="48.05638" lon="-3.84378">
        <ele>192</ele>
        <time>2024-04-10T17:55:04.181Z</time>
      </trkpt>
      <trkpt lat="48.05645" lon="-3.84357">
        <ele>192</ele>
        <time>2024-04-10T17:55:06.813Z</time>
      </trkpt>
      <trkpt lat="48.05647" lon="-3.8435">
        <ele>191.9</ele>
        <time>2024-04-10T17:55:07.529Z</time>
      </trkpt>
      <trkpt lat="48.05675" lon="-3.84256">
        <ele>191</ele>
        <time>2024-04-10T17:55:17.771Z</time>
      </trkpt>
      <trkpt lat="48.05697" lon="-3.84179">
        <ele>190</ele>
        <time>2024-04-10T17:55:25.770Z</time>
      </trkpt>
      <trkpt lat="48.05724" lon="-3.84085">
        <ele>189.8</ele>
        <time>2024-04-10T17:55:36.930Z</time>
      </trkpt>
      <trkpt lat="48.05738" lon="-3.84028">
        <ele>190.9</ele>
        <time>2024-04-10T17:55:45.950Z</time>
      </trkpt>
      <trkpt lat="48.05747" lon="-3.83969">
        <ele>191.5</ele>
        <time>2024-04-10T17:55:53.818Z</time>
      </trkpt>
      <trkpt lat="48.05759" lon="-3.83873">
        <ele>194.6</ele>
        <time>2024-04-10T17:56:12.323Z</time>
      </trkpt>
      <trkpt lat="48.05773" lon="-3.83809">
        <ele>196</ele>
        <time>2024-04-10T17:56:22.792Z</time>
      </trkpt>
      <trkpt lat="48.05799" lon="-3.83712">
        <ele>199.6</ele>
        <time>2024-04-10T17:56:43.639Z</time>
      </trkpt>
      <trkpt lat="48.05804" lon="-3.83684">
        <ele>199.5</ele>
        <time>2024-04-10T17:56:46.736Z</time>
      </trkpt>
      <trkpt lat="48.0582" lon="-3.83446">
        <ele>204.4</ele>
        <time>2024-04-10T17:57:23.730Z</time>
      </trkpt>
      <trkpt lat="48.05821" lon="-3.8343">
        <ele>205.1</ele>
        <time>2024-04-10T17:57:27.566Z</time>
      </trkpt>
      <trkpt lat="48.05823" lon="-3.83406">
        <ele>206.1</ele>
        <time>2024-04-10T17:57:33.088Z</time>
      </trkpt>
      <trkpt lat="48.05828" lon="-3.83363">
        <ele>207.1</ele>
        <time>2024-04-10T17:57:40.129Z</time>
      </trkpt>
      <trkpt lat="48.05833" lon="-3.8334">
        <ele>207</ele>
        <time>2024-04-10T17:57:42.689Z</time>
      </trkpt>
      <trkpt lat="48.05837" lon="-3.83326">
        <ele>206.9</ele>
        <time>2024-04-10T17:57:44.249Z</time>
        <extensions>
          <visugpx:TrkExtension xmlns:visugpx="https://www.visugpx.com/editgpx/">
            <visugpx:node>7</visugpx:node>
            </visugpx:TrkExtension>
        </extensions>
      </trkpt>
      <trkpt lat="48.05839" lon="-3.83322">
        <ele>207</ele>
        <time>2024-04-10T17:57:45.015Z</time>
      </trkpt>
      <trkpt lat="48.05853" lon="-3.83294">
        <ele>208.2</ele>
        <time>2024-04-10T17:57:51.973Z</time>
      </trkpt>
      <trkpt lat="48.05894" lon="-3.8324">
        <ele>212</ele>
        <time>2024-04-10T17:58:12.674Z</time>
      </trkpt>
      <trkpt lat="48.05906" lon="-3.83225">
        <ele>212.9</ele>
        <time>2024-04-10T17:58:17.720Z</time>
      </trkpt>
      <trkpt lat="48.0592" lon="-3.83212">
        <ele>213.2</ele>
        <time>2024-04-10T17:58:21.041Z</time>
      </trkpt>
      <trkpt lat="48.05933" lon="-3.83206">
        <ele>213.9</ele>
        <time>2024-04-10T17:58:25.097Z</time>
      </trkpt>
      <trkpt lat="48.05965" lon="-3.832">
        <ele>214.8</ele>
        <time>2024-04-10T17:58:32.329Z</time>
      </trkpt>
      <trkpt lat="48.05996" lon="-3.83185">
        <ele>215.4</ele>
        <time>2024-04-10T17:58:38.911Z</time>
      </trkpt>
      <trkpt lat="48.06014" lon="-3.83171">
        <ele>215.9</ele>
        <time>2024-04-10T17:58:43.298Z</time>
      </trkpt>
      <trkpt lat="48.06057" lon="-3.83135">
        <ele>218.4</ele>
        <time>2024-04-10T17:58:57.853Z</time>
      </trkpt>
      <trkpt lat="48.06065" lon="-3.83128">
        <ele>219.3</ele>
        <time>2024-04-10T17:59:02.922Z</time>
      </trkpt>
      <trkpt lat="48.06079" lon="-3.83119">
        <ele>220.5</ele>
        <time>2024-04-10T17:59:09.466Z</time>
      </trkpt>
      <trkpt lat="48.06093" lon="-3.83109">
        <ele>221.1</ele>
        <time>2024-04-10T17:59:13.412Z</time>
      </trkpt>
      <trkpt lat="48.061" lon="-3.831">
        <ele>221.4</ele>
        <time>2024-04-10T17:59:15.594Z</time>
      </trkpt>
      <trkpt lat="48.06104" lon="-3.83083">
        <ele>222</ele>
        <time>2024-04-10T17:59:19.110Z</time>
      </trkpt>
      <trkpt lat="48.06109" lon="-3.83055">
        <ele>223</ele>
        <time>2024-04-10T17:59:24.898Z</time>
      </trkpt>
      <trkpt lat="48.06107" lon="-3.83052">
        <ele>223.1</ele>
        <time>2024-04-10T17:59:25.590Z</time>
      </trkpt>
      <trkpt lat="48.06107" lon="-3.83047">
        <ele>223.3</ele>
        <time>2024-04-10T17:59:26.701Z</time>
      </trkpt>
      <trkpt lat="48.06111" lon="-3.83044">
        <ele>223.4</ele>
        <time>2024-04-10T17:59:27.644Z</time>
      </trkpt>
      <trkpt lat="48.06114" lon="-3.83046">
        <ele>223.3</ele>
        <time>2024-04-10T17:59:28.068Z</time>
      </trkpt>
      <trkpt lat="48.06118" lon="-3.83035">
        <ele>223.7</ele>
        <time>2024-04-10T17:59:30.450Z</time>
      </trkpt>
      <trkpt lat="48.06142" lon="-3.82998">
        <ele>225.1</ele>
        <time>2024-04-10T17:59:39.423Z</time>
      </trkpt>
      <trkpt lat="48.06153" lon="-3.82979">
        <ele>225.8</ele>
        <time>2024-04-10T17:59:43.854Z</time>
      </trkpt>
      <trkpt lat="48.06163" lon="-3.82956">
        <ele>226.1</ele>
        <time>2024-04-10T17:59:47.478Z</time>
      </trkpt>
      <trkpt lat="48.06176" lon="-3.82916">
        <ele>227</ele>
        <time>2024-04-10T17:59:54.327Z</time>
      </trkpt>
      <trkpt lat="48.06193" lon="-3.82857">
        <ele>227.1</ele>
        <time>2024-04-10T18:00:01.693Z</time>
      </trkpt>
      <trkpt lat="48.06198" lon="-3.82836">
        <ele>227.9</ele>
        <time>2024-04-10T18:00:06.265Z</time>
      </trkpt>
      <trkpt lat="48.06201" lon="-3.82773">
        <ele>227.2</ele>
        <time>2024-04-10T18:00:12.363Z</time>
      </trkpt>
      <trkpt lat="48.06204" lon="-3.82724">
        <ele>226.4</ele>
        <time>2024-04-10T18:00:16.819Z</time>
      </trkpt>
      <trkpt lat="48.06205" lon="-3.82673">
        <ele>224.9</ele>
        <time>2024-04-10T18:00:20.800Z</time>
      </trkpt>
      <trkpt lat="48.06207" lon="-3.82653">
        <ele>224.5</ele>
        <time>2024-04-10T18:00:22.555Z</time>
      </trkpt>
      <trkpt lat="48.06211" lon="-3.82635">
        <ele>223.9</ele>
        <time>2024-04-10T18:00:24.001Z</time>
      </trkpt>
      <trkpt lat="48.06216" lon="-3.82617">
        <ele>223.6</ele>
        <time>2024-04-10T18:00:25.785Z</time>
      </trkpt>
      <trkpt lat="48.06223" lon="-3.826">
        <ele>223.7</ele>
        <time>2024-04-10T18:00:28.193Z</time>
      </trkpt>
      <trkpt lat="48.0623" lon="-3.82587">
        <ele>223.7</ele>
        <time>2024-04-10T18:00:30.065Z</time>
      </trkpt>
      <trkpt lat="48.06242" lon="-3.82571">
        <ele>224</ele>
        <time>2024-04-10T18:00:33.321Z</time>
      </trkpt>
      <trkpt lat="48.06284" lon="-3.82526">
        <ele>225.4</ele>
        <time>2024-04-10T18:00:44.801Z</time>
      </trkpt>
      <trkpt lat="48.06292" lon="-3.8252">
        <ele>225.9</ele>
        <time>2024-04-10T18:00:47.625Z</time>
      </trkpt>
      <trkpt lat="48.0632" lon="-3.82493">
        <ele>226.8</ele>
        <time>2024-04-10T18:00:55.021Z</time>
      </trkpt>
      <trkpt lat="48.06392" lon="-3.82431">
        <ele>229.2</ele>
        <time>2024-04-10T18:01:13.861Z</time>
      </trkpt>
      <trkpt lat="48.0646" lon="-3.82361">
        <ele>231.1</ele>
        <time>2024-04-10T18:01:31.388Z</time>
      </trkpt>
      <trkpt lat="48.06553" lon="-3.82249">
        <ele>230.8</ele>
        <time>2024-04-10T18:01:50.945Z</time>
      </trkpt>
      <trkpt lat="48.06585" lon="-3.82198">
        <ele>231.1</ele>
        <time>2024-04-10T18:01:59.292Z</time>
      </trkpt>
      <trkpt lat="48.06607" lon="-3.82159">
        <ele>231</ele>
        <time>2024-04-10T18:02:04.858Z</time>
      </trkpt>
      <trkpt lat="48.06624" lon="-3.82122">
        <ele>230.9</ele>
        <time>2024-04-10T18:02:09.736Z</time>
      </trkpt>
      <trkpt lat="48.06662" lon="-3.82027">
        <ele>229</ele>
        <time>2024-04-10T18:02:19.651Z</time>
      </trkpt>
      <trkpt lat="48.06681" lon="-3.81986">
        <ele>229</ele>
        <time>2024-04-10T18:02:25.244Z</time>
      </trkpt>
      <trkpt lat="48.06724" lon="-3.81905">
        <ele>226</ele>
        <time>2024-04-10T18:02:33.349Z</time>
      </trkpt>
      <trkpt lat="48.06754" lon="-3.81858">
        <ele>224.8</ele>
        <time>2024-04-10T18:02:39.080Z</time>
      </trkpt>
      <trkpt lat="48.06826" lon="-3.8175">
        <ele>223.7</ele>
        <time>2024-04-10T18:02:54.568Z</time>
      </trkpt>
      <trkpt lat="48.06853" lon="-3.81703">
        <ele>223</ele>
        <time>2024-04-10T18:03:00.536Z</time>
      </trkpt>
      <trkpt lat="48.06871" lon="-3.81666">
        <ele>222.7</ele>
        <time>2024-04-10T18:03:05.223Z</time>
      </trkpt>
      <trkpt lat="48.06892" lon="-3.81607">
        <ele>223</ele>
        <time>2024-04-10T18:03:13.222Z</time>
      </trkpt>
      <trkpt lat="48.06924" lon="-3.81502">
        <ele>222.3</ele>
        <time>2024-04-10T18:03:25.119Z</time>
      </trkpt>
      <trkpt lat="48.06945" lon="-3.81431">
        <ele>222</ele>
        <time>2024-04-10T18:03:33.365Z</time>
      </trkpt>
      <trkpt lat="48.0698" lon="-3.81322">
        <ele>222.4</ele>
        <time>2024-04-10T18:03:47.586Z</time>
      </trkpt>
      <trkpt lat="48.07032" lon="-3.81167">
        <ele>225.1</ele>
        <time>2024-04-10T18:04:12.272Z</time>
      </trkpt>
      <trkpt lat="48.07047" lon="-3.81128">
        <ele>225.8</ele>
        <time>2024-04-10T18:04:18.676Z</time>
      </trkpt>
      <trkpt lat="48.07075" lon="-3.81077">
        <ele>228.5</ele>
        <time>2024-04-10T18:04:33.615Z</time>
      </trkpt>
      <trkpt lat="48.07105" lon="-3.81033">
        <ele>230.9</ele>
        <time>2024-04-10T18:04:47.095Z</time>
      </trkpt>
      <trkpt lat="48.07136" lon="-3.80994">
        <ele>233.8</ele>
        <time>2024-04-10T18:05:02.875Z</time>
      </trkpt>
      <trkpt lat="48.07261" lon="-3.80841">
        <ele>240.8</ele>
        <time>2024-04-10T18:05:46.350Z</time>
      </trkpt>
      <trkpt lat="48.07283" lon="-3.80811">
        <ele>241.4</ele>
        <time>2024-04-10T18:05:52.476Z</time>
      </trkpt>
      <trkpt lat="48.07307" lon="-3.80775">
        <ele>242</ele>
        <time>2024-04-10T18:05:59.286Z</time>
      </trkpt>
      <trkpt lat="48.07319" lon="-3.80757">
        <ele>241.7</ele>
        <time>2024-04-10T18:06:01.718Z</time>
      </trkpt>
      <trkpt lat="48.07349" lon="-3.80699">
        <ele>241.1</ele>
        <time>2024-04-10T18:06:09.069Z</time>
      </trkpt>
      <trkpt lat="48.07431" lon="-3.80526">
        <ele>238.5</ele>
        <time>2024-04-10T18:06:29.241Z</time>
      </trkpt>
      <trkpt lat="48.07457" lon="-3.80481">
        <ele>238.6</ele>
        <time>2024-04-10T18:06:36.072Z</time>
      </trkpt>
      <trkpt lat="48.07482" lon="-3.80445">
        <ele>238.4</ele>
        <time>2024-04-10T18:06:41.587Z</time>
      </trkpt>
      <trkpt lat="48.07642" lon="-3.80245">
        <ele>237.1</ele>
        <time>2024-04-10T18:07:14.583Z</time>
      </trkpt>
      <trkpt lat="48.07729" lon="-3.80125">
        <ele>234.1</ele>
        <time>2024-04-10T18:07:30.479Z</time>
      </trkpt>
      <trkpt lat="48.07757" lon="-3.80085">
        <ele>234.3</ele>
        <time>2024-04-10T18:07:37.305Z</time>
      </trkpt>
      <trkpt lat="48.0778" lon="-3.80041">
        <ele>234.2</ele>
        <time>2024-04-10T18:07:43.410Z</time>
      </trkpt>
      <trkpt lat="48.07796" lon="-3.8">
        <ele>235.3</ele>
        <time>2024-04-10T18:07:51.103Z</time>
      </trkpt>
      <trkpt lat="48.07826" lon="-3.79901">
        <ele>236.7</ele>
        <time>2024-04-10T18:08:05.912Z</time>
      </trkpt>
      <trkpt lat="48.07861" lon="-3.7982">
        <ele>237</ele>
        <time>2024-04-10T18:08:17.220Z</time>
      </trkpt>
      <trkpt lat="48.07918" lon="-3.79685">
        <ele>239.1</ele>
        <time>2024-04-10T18:08:39.070Z</time>
      </trkpt>
      <trkpt lat="48.07946" lon="-3.79614">
        <ele>239.3</ele>
        <time>2024-04-10T18:08:48.638Z</time>
      </trkpt>
      <trkpt lat="48.08078" lon="-3.79301">
        <ele>245</ele>
        <time>2024-04-10T18:09:41.170Z</time>
      </trkpt>
      <trkpt lat="48.08124" lon="-3.79209">
        <ele>245.3</ele>
        <time>2024-04-10T18:09:54.543Z</time>
      </trkpt>
      <trkpt lat="48.08156" lon="-3.79149">
        <ele>245</ele>
        <time>2024-04-10T18:10:02.690Z</time>
      </trkpt>
      <trkpt lat="48.08171" lon="-3.79119">
        <ele>244.8</ele>
        <time>2024-04-10T18:10:06.590Z</time>
      </trkpt>
      <trkpt lat="48.082" lon="-3.7907">
        <ele>245.4</ele>
        <time>2024-04-10T18:10:14.998Z</time>
      </trkpt>
      <trkpt lat="48.08235" lon="-3.79016">
        <ele>245.7</ele>
        <time>2024-04-10T18:10:23.932Z</time>
      </trkpt>
      <trkpt lat="48.0824" lon="-3.79008">
        <ele>245.8</ele>
        <time>2024-04-10T18:10:25.339Z</time>
      </trkpt>
      <trkpt lat="48.08319" lon="-3.78888">
        <ele>246</ele>
        <time>2024-04-10T18:10:44.543Z</time>
      </trkpt>
      <trkpt lat="48.08355" lon="-3.78828">
        <ele>245.1</ele>
        <time>2024-04-10T18:10:52.319Z</time>
      </trkpt>
      <trkpt lat="48.08369" lon="-3.78802">
        <ele>244.1</ele>
        <time>2024-04-10T18:10:54.908Z</time>
      </trkpt>
      <trkpt lat="48.08377" lon="-3.78786">
        <ele>244.3</ele>
        <time>2024-04-10T18:10:57.509Z</time>
      </trkpt>
      <trkpt lat="48.08431" lon="-3.78657">
        <ele>239.8</ele>
        <time>2024-04-10T18:11:09.360Z</time>
      </trkpt>
      <trkpt lat="48.08443" lon="-3.78619">
        <ele>238.3</ele>
        <time>2024-04-10T18:11:12.433Z</time>
      </trkpt>
      <trkpt lat="48.08469" lon="-3.78508">
        <ele>235</ele>
        <time>2024-04-10T18:11:21.738Z</time>
      </trkpt>
      <trkpt lat="48.08493" lon="-3.7839">
        <ele>232</ele>
        <time>2024-04-10T18:11:31.901Z</time>
      </trkpt>
      <trkpt lat="48.08508" lon="-3.78314">
        <ele>229.7</ele>
        <time>2024-04-10T18:11:38.106Z</time>
        <extensions>
          <visugpx:TrkExtension xmlns:visugpx="https://www.visugpx.com/editgpx/">
            <visugpx:node>8</visugpx:node>
            </visugpx:TrkExtension>
        </extensions>
      </trkpt>
      <trkpt lat="48.08537" lon="-3.78171">
        <ele>226.3</ele>
        <time>2024-04-10T18:11:50.639Z</time>
      </trkpt>
      <trkpt lat="48.08575" lon="-3.78009">
        <ele>224.3</ele>
        <time>2024-04-10T18:12:07.090Z</time>
      </trkpt>
      <trkpt lat="48.08593" lon="-3.77945">
        <ele>223.7</ele>
        <time>2024-04-10T18:12:14.006Z</time>
      </trkpt>
      <trkpt lat="48.0861" lon="-3.7789">
        <ele>222.1</ele>
        <time>2024-04-10T18:12:18.886Z</time>
      </trkpt>
      <trkpt lat="48.08633" lon="-3.77821">
        <ele>221.2</ele>
        <time>2024-04-10T18:12:26.273Z</time>
      </trkpt>
      <trkpt lat="48.08653" lon="-3.77767">
        <ele>220.5</ele>
        <time>2024-04-10T18:12:32.212Z</time>
      </trkpt>
      <trkpt lat="48.08677" lon="-3.7771">
        <ele>219.6</ele>
        <time>2024-04-10T18:12:38.530Z</time>
      </trkpt>
      <trkpt lat="48.08692" lon="-3.77679">
        <ele>219</ele>
        <time>2024-04-10T18:12:42.019Z</time>
      </trkpt>
      <trkpt lat="48.08733" lon="-3.77614">
        <ele>219</ele>
        <time>2024-04-10T18:12:52.037Z</time>
      </trkpt>
      <trkpt lat="48.08748" lon="-3.77586">
        <ele>219</ele>
        <time>2024-04-10T18:12:56.059Z</time>
      </trkpt>
      <trkpt lat="48.08816" lon="-3.77445">
        <ele>218.6</ele>
        <time>2024-04-10T18:13:14.925Z</time>
      </trkpt>
      <trkpt lat="48.0888" lon="-3.77302">
        <ele>211.6</ele>
        <time>2024-04-10T18:13:26.920Z</time>
      </trkpt>
      <trkpt lat="48.08896" lon="-3.7727">
        <ele>209.9</ele>
        <time>2024-04-10T18:13:29.658Z</time>
      </trkpt>
      <trkpt lat="48.08927" lon="-3.77218">
        <ele>208</ele>
        <time>2024-04-10T18:13:35.218Z</time>
      </trkpt>
      <trkpt lat="48.08946" lon="-3.77188">
        <ele>207.1</ele>
        <time>2024-04-10T18:13:38.723Z</time>
      </trkpt>
      <trkpt lat="48.09" lon="-3.77101">
        <ele>205.4</ele>
        <time>2024-04-10T18:13:49.728Z</time>
      </trkpt>
      <trkpt lat="48.0903" lon="-3.77048">
        <ele>205.1</ele>
        <time>2024-04-10T18:13:57.058Z</time>
      </trkpt>
      <trkpt lat="48.09147" lon="-3.76806">
        <ele>204.7</ele>
        <time>2024-04-10T18:14:29.904Z</time>
      </trkpt>
      <trkpt lat="48.09181" lon="-3.76744">
        <ele>204.6</ele>
        <time>2024-04-10T18:14:38.735Z</time>
      </trkpt>
      <trkpt lat="48.09187" lon="-3.76733">
        <ele>204.7</ele>
        <time>2024-04-10T18:14:40.500Z</time>
      </trkpt>
      <trkpt lat="48.09245" lon="-3.76645">
        <ele>205</ele>
        <time>2024-04-10T18:14:54.845Z</time>
      </trkpt>
      <trkpt lat="48.09286" lon="-3.76593">
        <ele>204.5</ele>
        <time>2024-04-10T18:15:03.118Z</time>
      </trkpt>
      <trkpt lat="48.09536" lon="-3.763">
        <ele>199.9</ele>
        <time>2024-04-10T18:15:49.818Z</time>
      </trkpt>
      <trkpt lat="48.09812" lon="-3.75923">
        <ele>194</ele>
        <time>2024-04-10T18:16:44.159Z</time>
      </trkpt>
      <trkpt lat="48.09839" lon="-3.75892">
        <ele>193.1</ele>
        <time>2024-04-10T18:16:48.691Z</time>
      </trkpt>
      <trkpt lat="48.0988" lon="-3.75856">
        <ele>193</ele>
        <time>2024-04-10T18:16:56.507Z</time>
      </trkpt>
      <trkpt lat="48.10016" lon="-3.75734">
        <ele>191.4</ele>
        <time>2024-04-10T18:17:20.744Z</time>
      </trkpt>
      <trkpt lat="48.10115" lon="-3.75651">
        <ele>191</ele>
        <time>2024-04-10T18:17:39.157Z</time>
      </trkpt>
      <trkpt lat="48.10141" lon="-3.75627">
        <ele>190.6</ele>
        <time>2024-04-10T18:17:43.704Z</time>
      </trkpt>
      <trkpt lat="48.10204" lon="-3.75557">
        <ele>190.1</ele>
        <time>2024-04-10T18:17:56.106Z</time>
      </trkpt>
      <trkpt lat="48.10335" lon="-3.75437">
        <ele>188.2</ele>
        <time>2024-04-10T18:18:19.114Z</time>
      </trkpt>
      <trkpt lat="48.10361" lon="-3.75411">
        <ele>188</ele>
        <time>2024-04-10T18:18:24.056Z</time>
      </trkpt>
      <trkpt lat="48.10376" lon="-3.75392">
        <ele>188</ele>
        <time>2024-04-10T18:18:27.351Z</time>
      </trkpt>
      <trkpt lat="48.10391" lon="-3.75369">
        <ele>187.3</ele>
        <time>2024-04-10T18:18:30.077Z</time>
      </trkpt>
      <trkpt lat="48.10463" lon="-3.75247">
        <ele>185.3</ele>
        <time>2024-04-10T18:18:45.545Z</time>
      </trkpt>
      <trkpt lat="48.10568" lon="-3.75067">
        <ele>185</ele>
        <time>2024-04-10T18:19:11.847Z</time>
      </trkpt>
      <trkpt lat="48.10604" lon="-3.74996">
        <ele>183.9</ele>
        <time>2024-04-10T18:19:20.311Z</time>
      </trkpt>
      <trkpt lat="48.10617" lon="-3.74969">
        <ele>182.9</ele>
        <time>2024-04-10T18:19:22.888Z</time>
      </trkpt>
      <trkpt lat="48.10689" lon="-3.74826">
        <ele>179</ele>
        <time>2024-04-10T18:19:38.068Z</time>
      </trkpt>
      <trkpt lat="48.1081" lon="-3.74562">
        <ele>175</ele>
        <time>2024-04-10T18:20:08.408Z</time>
      </trkpt>
      <trkpt lat="48.10874" lon="-3.74422">
        <ele>173</ele>
        <time>2024-04-10T18:20:24.627Z</time>
      </trkpt>
      <trkpt lat="48.10925" lon="-3.74295">
        <ele>171</ele>
        <time>2024-04-10T18:20:38.494Z</time>
      </trkpt>
      <trkpt lat="48.10947" lon="-3.7425">
        <ele>170</ele>
        <time>2024-04-10T18:20:43.438Z</time>
      </trkpt>
      <trkpt lat="48.10973" lon="-3.74207">
        <ele>169</ele>
        <time>2024-04-10T18:20:48.623Z</time>
      </trkpt>
      <trkpt lat="48.11016" lon="-3.74148">
        <ele>168</ele>
        <time>2024-04-10T18:20:57.008Z</time>
      </trkpt>
      <trkpt lat="48.11039" lon="-3.74122">
        <ele>167.6</ele>
        <time>2024-04-10T18:21:01.269Z</time>
      </trkpt>
      <trkpt lat="48.11108" lon="-3.74057">
        <ele>166</ele>
        <time>2024-04-10T18:21:12.747Z</time>
      </trkpt>
      <trkpt lat="48.11129" lon="-3.74033">
        <ele>165.4</ele>
        <time>2024-04-10T18:21:16.373Z</time>
      </trkpt>
      <trkpt lat="48.1115" lon="-3.74006">
        <ele>165</ele>
        <time>2024-04-10T18:21:20.445Z</time>
      </trkpt>
      <trkpt lat="48.11239" lon="-3.73868">
        <ele>164</ele>
        <time>2024-04-10T18:21:40.435Z</time>
      </trkpt>
      <trkpt lat="48.1137" lon="-3.73675">
        <ele>164</ele>
        <time>2024-04-10T18:22:11.260Z</time>
      </trkpt>
      <trkpt lat="48.11544" lon="-3.7343">
        <ele>164.6</ele>
        <time>2024-04-10T18:22:52.298Z</time>
      </trkpt>
      <trkpt lat="48.11691" lon="-3.73262">
        <ele>164.6</ele>
        <time>2024-04-10T18:23:23.316Z</time>
      </trkpt>
      <trkpt lat="48.11771" lon="-3.73155">
        <ele>165</ele>
        <time>2024-04-10T18:23:41.965Z</time>
      </trkpt>
      <trkpt lat="48.11826" lon="-3.73083">
        <ele>165.7</ele>
        <time>2024-04-10T18:23:55.426Z</time>
      </trkpt>
      <trkpt lat="48.11864" lon="-3.73051">
        <ele>166</ele>
        <time>2024-04-10T18:24:03.245Z</time>
      </trkpt>
      <trkpt lat="48.11945" lon="-3.72998">
        <ele>167</ele>
        <time>2024-04-10T18:24:19.823Z</time>
      </trkpt>
      <trkpt lat="48.11968" lon="-3.72979">
        <ele>167</ele>
        <time>2024-04-10T18:24:24.230Z</time>
      </trkpt>
      <trkpt lat="48.12025" lon="-3.72925">
        <ele>167.3</ele>
        <time>2024-04-10T18:24:36.039Z</time>
      </trkpt>
      <trkpt lat="48.12051" lon="-3.72898">
        <ele>167.8</ele>
        <time>2024-04-10T18:24:42.256Z</time>
      </trkpt>
      <trkpt lat="48.12123" lon="-3.7281">
        <ele>168</ele>
        <time>2024-04-10T18:24:58.169Z</time>
      </trkpt>
      <trkpt lat="48.12196" lon="-3.72714">
        <ele>168.1</ele>
        <time>2024-04-10T18:25:14.625Z</time>
      </trkpt>
      <trkpt lat="48.1223" lon="-3.72668">
        <ele>169.3</ele>
        <time>2024-04-10T18:25:24.703Z</time>
      </trkpt>
      <trkpt lat="48.12325" lon="-3.7254">
        <ele>170</ele>
        <time>2024-04-10T18:25:47.304Z</time>
      </trkpt>
      <trkpt lat="48.12367" lon="-3.72486">
        <ele>169.4</ele>
        <time>2024-04-10T18:25:55.710Z</time>
      </trkpt>
      <trkpt lat="48.12384" lon="-3.72467">
        <ele>169</ele>
        <time>2024-04-10T18:25:58.715Z</time>
        <extensions>
          <visugpx:TrkExtension xmlns:visugpx="https://www.visugpx.com/editgpx/">
            <visugpx:node>9</visugpx:node>
            </visugpx:TrkExtension>
        </extensions>
      </trkpt>
      <trkpt lat="48.12384" lon="-3.72467">
        <ele>169</ele>
        <time>2024-04-10T18:25:58.715Z</time>
      </trkpt>
      <trkpt lat="48.12446" lon="-3.72396">
        <ele>168.9</ele>
        <time>2024-04-10T18:26:11.649Z</time>
      </trkpt>
      <trkpt lat="48.12419" lon="-3.72318">
        <ele>168.1</ele>
        <time>2024-04-10T18:26:20.340Z</time>
      </trkpt>
      <trkpt lat="48.12366" lon="-3.72155">
        <ele>167.7</ele>
        <time>2024-04-10T18:26:40.021Z</time>
      </trkpt>
      <trkpt lat="48.12321" lon="-3.72051">
        <ele>166.9</ele>
        <time>2024-04-10T18:26:52.716Z</time>
      </trkpt>
      <trkpt lat="48.12141" lon="-3.71692">
        <ele>165</ele>
        <time>2024-04-10T18:27:40.112Z</time>
      </trkpt>
      <trkpt lat="48.12138" lon="-3.71686">
        <ele>165</ele>
        <time>2024-04-10T18:27:40.951Z</time>
      </trkpt>
      <trkpt lat="48.12063" lon="-3.71539">
        <ele>167</ele>
        <time>2024-04-10T18:28:05.321Z</time>
      </trkpt>
      <trkpt lat="48.12079" lon="-3.71519">
        <ele>167</ele>
        <time>2024-04-10T18:28:08.817Z</time>
      </trkpt>
      <trkpt lat="48.12123" lon="-3.71485">
        <ele>166.8</ele>
        <time>2024-04-10T18:28:16.813Z</time>
      </trkpt>
      <trkpt lat="48.1216" lon="-3.7146">
        <ele>166.2</ele>
        <time>2024-04-10T18:28:22.768Z</time>
      </trkpt>
      <trkpt lat="48.12169" lon="-3.71447">
        <ele>166</ele>
        <time>2024-04-10T18:28:24.584Z</time>
      </trkpt>
      <trkpt lat="48.1213" lon="-3.71424">
        <ele>166.5</ele>
        <time>2024-04-10T18:28:32.495Z</time>
      </trkpt>
      <trkpt lat="48.12113" lon="-3.71402">
        <ele>166.9</ele>
        <time>2024-04-10T18:28:37.004Z</time>
      </trkpt>
      <trkpt lat="48.12103" lon="-3.71378">
        <ele>167.3</ele>
        <time>2024-04-10T18:28:40.934Z</time>
      </trkpt>
      <trkpt lat="48.12097" lon="-3.71356">
        <ele>167.5</ele>
        <time>2024-04-10T18:28:43.950Z</time>
      </trkpt>
      <trkpt lat="48.12085" lon="-3.7126">
        <ele>167.9</ele>
        <time>2024-04-10T18:28:55.558Z</time>
      </trkpt>
      <trkpt lat="48.12079" lon="-3.71231">
        <ele>168.1</ele>
        <time>2024-04-10T18:28:59.304Z</time>
      </trkpt>
      <trkpt lat="48.12071" lon="-3.71206">
        <ele>168.4</ele>
        <time>2024-04-10T18:29:02.956Z</time>
      </trkpt>
      <trkpt lat="48.12044" lon="-3.7115">
        <ele>169</ele>
        <time>2024-04-10T18:29:11.757Z</time>
      </trkpt>
      <trkpt lat="48.11979" lon="-3.71014">
        <ele>170</ele>
        <time>2024-04-10T18:29:32.205Z</time>
      </trkpt>
      <trkpt lat="48.11939" lon="-3.7094">
        <ele>171</ele>
        <time>2024-04-10T18:29:44.686Z</time>
      </trkpt>
      <trkpt lat="48.11903" lon="-3.70881">
        <ele>171</ele>
        <time>2024-04-10T18:29:53.637Z</time>
      </trkpt>
      <trkpt lat="48.11833" lon="-3.70752">
        <ele>170</ele>
        <time>2024-04-10T18:30:10.768Z</time>
      </trkpt>
      <trkpt lat="48.11809" lon="-3.70693">
        <ele>170.9</ele>
        <time>2024-04-10T18:30:20.196Z</time>
      </trkpt>
      <trkpt lat="48.11777" lon="-3.706">
        <ele>172</ele>
        <time>2024-04-10T18:30:33.913Z</time>
      </trkpt>
      <trkpt lat="48.11694" lon="-3.70334">
        <ele>177</ele>
        <time>2024-04-10T18:31:16.704Z</time>
      </trkpt>
      <trkpt lat="48.11676" lon="-3.70285">
        <ele>177</ele>
        <time>2024-04-10T18:31:22.968Z</time>
      </trkpt>
      <trkpt lat="48.11664" lon="-3.70258">
        <ele>177</ele>
        <time>2024-04-10T18:31:26.600Z</time>
      </trkpt>
      <trkpt lat="48.11645" lon="-3.70223">
        <ele>177</ele>
        <time>2024-04-10T18:31:31.653Z</time>
      </trkpt>
      <trkpt lat="48.11626" lon="-3.70196">
        <ele>177</ele>
        <time>2024-04-10T18:31:36.046Z</time>
      </trkpt>
      <trkpt lat="48.1159" lon="-3.70159">
        <ele>177.6</ele>
        <time>2024-04-10T18:31:44.442Z</time>
      </trkpt>
      <trkpt lat="48.11401" lon="-3.6998">
        <ele>181.9</ele>
        <time>2024-04-10T18:32:30.012Z</time>
      </trkpt>
      <trkpt lat="48.11324" lon="-3.69926">
        <ele>183.8</ele>
        <time>2024-04-10T18:32:47.935Z</time>
      </trkpt>
      <trkpt lat="48.11214" lon="-3.69862">
        <ele>185</ele>
        <time>2024-04-10T18:33:09.812Z</time>
      </trkpt>
      <trkpt lat="48.11106" lon="-3.69791">
        <ele>187</ele>
        <time>2024-04-10T18:33:33.272Z</time>
      </trkpt>
      <trkpt lat="48.1102" lon="-3.69741">
        <ele>187.5</ele>
        <time>2024-04-10T18:33:49.581Z</time>
      </trkpt>
      <trkpt lat="48.10985" lon="-3.6973">
        <ele>188</ele>
        <time>2024-04-10T18:33:56.476Z</time>
      </trkpt>
      <trkpt lat="48.10776" lon="-3.69689">
        <ele>188</ele>
        <time>2024-04-10T18:34:31.835Z</time>
      </trkpt>
      <trkpt lat="48.10743" lon="-3.69679">
        <ele>188</ele>
        <time>2024-04-10T18:34:37.483Z</time>
      </trkpt>
      <trkpt lat="48.10692" lon="-3.69653">
        <ele>188.5</ele>
        <time>2024-04-10T18:34:47.381Z</time>
      </trkpt>
      <trkpt lat="48.10657" lon="-3.69634">
        <ele>189.1</ele>
        <time>2024-04-10T18:34:54.721Z</time>
      </trkpt>
      <trkpt lat="48.10611" lon="-3.6961">
        <ele>190</ele>
        <time>2024-04-10T18:35:04.568Z</time>
      </trkpt>
      <trkpt lat="48.10573" lon="-3.69587">
        <ele>190.3</ele>
        <time>2024-04-10T18:35:11.952Z</time>
      </trkpt>
      <trkpt lat="48.10484" lon="-3.69517">
        <ele>192.4</ele>
        <time>2024-04-10T18:35:32.809Z</time>
      </trkpt>
      <trkpt lat="48.10459" lon="-3.69502">
        <ele>192.9</ele>
        <time>2024-04-10T18:35:38.258Z</time>
      </trkpt>
      <trkpt lat="48.10365" lon="-3.69455">
        <ele>195</ele>
        <time>2024-04-10T18:35:58.887Z</time>
      </trkpt>
      <trkpt lat="48.10304" lon="-3.69414">
        <ele>196.1</ele>
        <time>2024-04-10T18:36:12.115Z</time>
      </trkpt>
      <trkpt lat="48.10254" lon="-3.69372">
        <ele>197.9</ele>
        <time>2024-04-10T18:36:25.496Z</time>
      </trkpt>
      <trkpt lat="48.10238" lon="-3.6936">
        <ele>198.4</ele>
        <time>2024-04-10T18:36:29.511Z</time>
      </trkpt>
      <trkpt lat="48.10159" lon="-3.6933">
        <ele>198.6</ele>
        <time>2024-04-10T18:36:43.508Z</time>
      </trkpt>
      <trkpt lat="48.10129" lon="-3.69314">
        <ele>197.6</ele>
        <time>2024-04-10T18:36:47.588Z</time>
      </trkpt>
      <trkpt lat="48.10106" lon="-3.69299">
        <ele>196.6</ele>
        <time>2024-04-10T18:36:50.605Z</time>
      </trkpt>
      <trkpt lat="48.10011" lon="-3.69218">
        <ele>193.4</ele>
        <time>2024-04-10T18:37:04.844Z</time>
      </trkpt>
      <trkpt lat="48.09852" lon="-3.69078">
        <ele>191</ele>
        <time>2024-04-10T18:37:32.326Z</time>
      </trkpt>
      <trkpt lat="48.09842" lon="-3.69064">
        <ele>191</ele>
        <time>2024-04-10T18:37:34.623Z</time>
      </trkpt>
      <trkpt lat="48.09827" lon="-3.69032">
        <ele>191</ele>
        <time>2024-04-10T18:37:39.003Z</time>
      </trkpt>
      <trkpt lat="48.09805" lon="-3.68966">
        <ele>191</ele>
        <time>2024-04-10T18:37:47.267Z</time>
      </trkpt>
      <trkpt lat="48.09771" lon="-3.6885">
        <ele>191.1</ele>
        <time>2024-04-10T18:38:01.621Z</time>
      </trkpt>
      <trkpt lat="48.09744" lon="-3.6875">
        <ele>192</ele>
        <time>2024-04-10T18:38:15.297Z</time>
      </trkpt>
      <trkpt lat="48.09719" lon="-3.68668">
        <ele>192</ele>
        <time>2024-04-10T18:38:25.395Z</time>
      </trkpt>
      <trkpt lat="48.09698" lon="-3.6861">
        <ele>192</ele>
        <time>2024-04-10T18:38:32.787Z</time>
      </trkpt>
      <trkpt lat="48.0968" lon="-3.68569">
        <ele>192</ele>
        <time>2024-04-10T18:38:38.284Z</time>
      </trkpt>
      <trkpt lat="48.09654" lon="-3.68514">
        <ele>192</ele>
        <time>2024-04-10T18:38:45.834Z</time>
      </trkpt>
      <trkpt lat="48.09616" lon="-3.68446">
        <ele>191.2</ele>
        <time>2024-04-10T18:38:54.618Z</time>
      </trkpt>
      <trkpt lat="48.09464" lon="-3.68159">
        <ele>190.2</ele>
        <time>2024-04-10T18:39:34.112Z</time>
      </trkpt>
      <trkpt lat="48.09415" lon="-3.68085">
        <ele>190.9</ele>
        <time>2024-04-10T18:39:47.000Z</time>
      </trkpt>
      <trkpt lat="48.09392" lon="-3.68057">
        <ele>191.9</ele>
        <time>2024-04-10T18:39:54.110Z</time>
      </trkpt>
      <trkpt lat="48.09367" lon="-3.6803">
        <ele>192.9</ele>
        <time>2024-04-10T18:40:01.392Z</time>
      </trkpt>
      <trkpt lat="48.09311" lon="-3.67974">
        <ele>195.8</ele>
        <time>2024-04-10T18:40:19.459Z</time>
      </trkpt>
      <trkpt lat="48.09238" lon="-3.67906">
        <ele>197.7</ele>
        <time>2024-04-10T18:40:37.533Z</time>
      </trkpt>
      <trkpt lat="48.09195" lon="-3.67873">
        <ele>198</ele>
        <time>2024-04-10T18:40:46.142Z</time>
      </trkpt>
      <trkpt lat="48.09153" lon="-3.67855">
        <ele>198.6</ele>
        <time>2024-04-10T18:40:54.543Z</time>
      </trkpt>
      <trkpt lat="48.09092" lon="-3.67838">
        <ele>199</ele>
        <time>2024-04-10T18:41:05.624Z</time>
      </trkpt>
      <trkpt lat="48.09035" lon="-3.67833">
        <ele>199</ele>
        <time>2024-04-10T18:41:15.202Z</time>
      </trkpt>
      <trkpt lat="48.08887" lon="-3.67829">
        <ele>199.2</ele>
        <time>2024-04-10T18:41:40.356Z</time>
      </trkpt>
      <trkpt lat="48.08618" lon="-3.67816">
        <ele>201.8</ele>
        <time>2024-04-10T18:42:29.994Z</time>
      </trkpt>
      <trkpt lat="48.08607" lon="-3.67815">
        <ele>202</ele>
        <time>2024-04-10T18:42:32.214Z</time>
      </trkpt>
      <trkpt lat="48.08209" lon="-3.67799">
        <ele>195.8</ele>
        <time>2024-04-10T18:43:30.235Z</time>
      </trkpt>
      <trkpt lat="48.08134" lon="-3.67795">
        <ele>193.3</ele>
        <time>2024-04-10T18:43:39.710Z</time>
      </trkpt>
      <trkpt lat="48.08106" lon="-3.67789">
        <ele>193.5</ele>
        <time>2024-04-10T18:43:44.793Z</time>
      </trkpt>
      <trkpt lat="48.08081" lon="-3.67776">
        <ele>193.9</ele>
        <time>2024-04-10T18:43:49.956Z</time>
      </trkpt>
      <trkpt lat="48.08063" lon="-3.67761">
        <ele>193.8</ele>
        <time>2024-04-10T18:43:53.258Z</time>
      </trkpt>
      <trkpt lat="48.08045" lon="-3.6774">
        <ele>193.8</ele>
        <time>2024-04-10T18:43:57.087Z</time>
      </trkpt>
      <trkpt lat="48.07819" lon="-3.67416">
        <ele>191</ele>
        <time>2024-04-10T18:44:45.420Z</time>
      </trkpt>
      <trkpt lat="48.07574" lon="-3.67063">
        <ele>183.9</ele>
        <time>2024-04-10T18:45:32.811Z</time>
      </trkpt>
      <trkpt lat="48.07554" lon="-3.67045">
        <ele>184</ele>
        <time>2024-04-10T18:45:36.891Z</time>
      </trkpt>
      <trkpt lat="48.07546" lon="-3.67037">
        <ele>183.9</ele>
        <time>2024-04-10T18:45:38.358Z</time>
      </trkpt>
      <trkpt lat="48.07276" lon="-3.66785">
        <ele>189.8</ele>
        <time>2024-04-10T18:46:42.727Z</time>
      </trkpt>
      <trkpt lat="48.07248" lon="-3.66768">
        <ele>190.4</ele>
        <time>2024-04-10T18:46:48.927Z</time>
      </trkpt>
      <trkpt lat="48.07203" lon="-3.66747">
        <ele>191.1</ele>
        <time>2024-04-10T18:46:58.097Z</time>
      </trkpt>
      <trkpt lat="48.07177" lon="-3.66729">
        <ele>191.8</ele>
        <time>2024-04-10T18:47:04.277Z</time>
      </trkpt>
      <trkpt lat="48.07168" lon="-3.6672">
        <ele>192</ele>
        <time>2024-04-10T18:47:06.465Z</time>
      </trkpt>
      <trkpt lat="48.07132" lon="-3.66671">
        <ele>193</ele>
        <time>2024-04-10T18:47:16.524Z</time>
      </trkpt>
      <trkpt lat="48.07076" lon="-3.66587">
        <ele>194.3</ele>
        <time>2024-04-10T18:47:32.202Z</time>
      </trkpt>
      <trkpt lat="48.07058" lon="-3.66551">
        <ele>194.9</ele>
        <time>2024-04-10T18:47:38.373Z</time>
      </trkpt>
      <trkpt lat="48.07033" lon="-3.66479">
        <ele>195</ele>
        <time>2024-04-10T18:47:47.631Z</time>
      </trkpt>
      <trkpt lat="48.07022" lon="-3.66458">
        <ele>195.1</ele>
        <time>2024-04-10T18:47:50.789Z</time>
      </trkpt>
      <trkpt lat="48.0701" lon="-3.66438">
        <ele>195</ele>
        <time>2024-04-10T18:47:53.649Z</time>
      </trkpt>
      <trkpt lat="48.06994" lon="-3.66418">
        <ele>195</ele>
        <time>2024-04-10T18:47:57.146Z</time>
      </trkpt>
      <trkpt lat="48.06955" lon="-3.66376">
        <ele>194.5</ele>
        <time>2024-04-10T18:48:04.471Z</time>
      </trkpt>
      <trkpt lat="48.06781" lon="-3.6622">
        <ele>189.9</ele>
        <time>2024-04-10T18:48:32.322Z</time>
      </trkpt>
      <trkpt lat="48.06777" lon="-3.66214">
        <ele>189.7</ele>
        <time>2024-04-10T18:48:33.026Z</time>
      </trkpt>
      <trkpt lat="48.06775" lon="-3.66204">
        <ele>189.3</ele>
        <time>2024-04-10T18:48:33.771Z</time>
      </trkpt>
      <trkpt lat="48.0675" lon="-3.662">
        <ele>189.2</ele>
        <time>2024-04-10T18:48:37.834Z</time>
      </trkpt>
      <trkpt lat="48.06712" lon="-3.66195">
        <ele>189</ele>
        <time>2024-04-10T18:48:43.927Z</time>
      </trkpt>
      <trkpt lat="48.06683" lon="-3.66197">
        <ele>188.6</ele>
        <time>2024-04-10T18:48:48.223Z</time>
      </trkpt>
      <trkpt lat="48.06646" lon="-3.6621">
        <ele>188.1</ele>
        <time>2024-04-10T18:48:53.879Z</time>
      </trkpt>
      <trkpt lat="48.06578" lon="-3.66244">
        <ele>186.8</ele>
        <time>2024-04-10T18:49:04.102Z</time>
      </trkpt>
      <trkpt lat="48.06564" lon="-3.66252">
        <ele>186.3</ele>
        <time>2024-04-10T18:49:05.993Z</time>
      </trkpt>
      <trkpt lat="48.06559" lon="-3.66192">
        <ele>185.1</ele>
        <time>2024-04-10T18:49:11.239Z</time>
      </trkpt>
      <trkpt lat="48.06534" lon="-3.66086">
        <ele>184</ele>
        <time>2024-04-10T18:49:22.274Z</time>
      </trkpt>
      <trkpt lat="48.06515" lon="-3.66033">
        <ele>182.6</ele>
        <time>2024-04-10T18:49:27.291Z</time>
      </trkpt>
      <trkpt lat="48.065" lon="-3.66001">
        <ele>182</ele>
        <time>2024-04-10T18:49:30.869Z</time>
      </trkpt>
      <trkpt lat="48.06488" lon="-3.65977">
        <ele>181.6</ele>
        <time>2024-04-10T18:49:33.681Z</time>
      </trkpt>
      <trkpt lat="48.06463" lon="-3.6594">
        <ele>180.9</ele>
        <time>2024-04-10T18:49:38.621Z</time>
      </trkpt>
      <trkpt lat="48.06435" lon="-3.65907">
        <ele>180</ele>
        <time>2024-04-10T18:49:43.414Z</time>
      </trkpt>
      <trkpt lat="48.06349" lon="-3.65825">
        <ele>179</ele>
        <time>2024-04-10T18:49:59.043Z</time>
      </trkpt>
      <trkpt lat="48.0632" lon="-3.65798">
        <ele>179</ele>
        <time>2024-04-10T18:50:04.773Z</time>
      </trkpt>
      <trkpt lat="48.06286" lon="-3.65765">
        <ele>178.3</ele>
        <time>2024-04-10T18:50:10.594Z</time>
      </trkpt>
      <trkpt lat="48.06157" lon="-3.65648">
        <ele>176.9</ele>
        <time>2024-04-10T18:50:33.823Z</time>
      </trkpt>
      <trkpt lat="48.06127" lon="-3.65621">
        <ele>176.8</ele>
        <time>2024-04-10T18:50:39.540Z</time>
      </trkpt>
      <trkpt lat="48.06097" lon="-3.65603">
        <ele>176.6</ele>
        <time>2024-04-10T18:50:44.658Z</time>
      </trkpt>
      <trkpt lat="48.06079" lon="-3.65593">
        <ele>176.7</ele>
        <time>2024-04-10T18:50:48.045Z</time>
      </trkpt>
      <trkpt lat="48.0605" lon="-3.65583">
        <ele>177</ele>
        <time>2024-04-10T18:50:53.557Z</time>
      </trkpt>
      <trkpt lat="48.06022" lon="-3.65577">
        <ele>177.2</ele>
        <time>2024-04-10T18:50:58.640Z</time>
      </trkpt>
      <trkpt lat="48.05987" lon="-3.65568">
        <ele>177.6</ele>
        <time>2024-04-10T18:51:05.298Z</time>
      </trkpt>
      <trkpt lat="48.05949" lon="-3.65554">
        <ele>177.3</ele>
        <time>2024-04-10T18:51:11.412Z</time>
      </trkpt>
      <trkpt lat="48.05926" lon="-3.65544">
        <ele>177.6</ele>
        <time>2024-04-10T18:51:15.961Z</time>
      </trkpt>
      <trkpt lat="48.05907" lon="-3.65531">
        <ele>177.5</ele>
        <time>2024-04-10T18:51:19.312Z</time>
      </trkpt>
      <trkpt lat="48.05886" lon="-3.65513">
        <ele>176.8</ele>
        <time>2024-04-10T18:51:22.473Z</time>
      </trkpt>
      <trkpt lat="48.05834" lon="-3.65458">
        <ele>175.5</ele>
        <time>2024-04-10T18:51:31.381Z</time>
      </trkpt>
      <trkpt lat="48.05818" lon="-3.65437">
        <ele>175.6</ele>
        <time>2024-04-10T18:51:35.117Z</time>
      </trkpt>
      <trkpt lat="48.05706" lon="-3.6531">
        <ele>174.9</ele>
        <time>2024-04-10T18:51:57.619Z</time>
      </trkpt>
      <trkpt lat="48.05611" lon="-3.65197">
        <ele>176</ele>
        <time>2024-04-10T18:52:19.868Z</time>
      </trkpt>
      <trkpt lat="48.05593" lon="-3.65176">
        <ele>175.8</ele>
        <time>2024-04-10T18:52:23.399Z</time>
      </trkpt>
      <trkpt lat="48.05565" lon="-3.65147">
        <ele>175.3</ele>
        <time>2024-04-10T18:52:28.400Z</time>
      </trkpt>
      <trkpt lat="48.05453" lon="-3.65053">
        <ele>174</ele>
        <time>2024-04-10T18:52:48.027Z</time>
      </trkpt>
      <trkpt lat="48.0536" lon="-3.64957">
        <ele>175.1</ele>
        <time>2024-04-10T18:53:08.881Z</time>
      </trkpt>
      <trkpt lat="48.05332" lon="-3.64922">
        <ele>176.2</ele>
        <time>2024-04-10T18:53:17.276Z</time>
      </trkpt>
      <trkpt lat="48.05289" lon="-3.64882">
        <ele>177.4</ele>
        <time>2024-04-10T18:53:28.110Z</time>
      </trkpt>
      <trkpt lat="48.05263" lon="-3.64862">
        <ele>177.5</ele>
        <time>2024-04-10T18:53:33.178Z</time>
      </trkpt>
      <trkpt lat="48.05218" lon="-3.64816">
        <ele>177.1</ele>
        <time>2024-04-10T18:53:41.719Z</time>
      </trkpt>
      <trkpt lat="48.05201" lon="-3.64799">
        <ele>176.9</ele>
        <time>2024-04-10T18:53:44.853Z</time>
      </trkpt>
      <trkpt lat="48.05185" lon="-3.64778">
        <ele>177.3</ele>
        <time>2024-04-10T18:53:49.171Z</time>
      </trkpt>
      <trkpt lat="48.05148" lon="-3.64737">
        <ele>178.3</ele>
        <time>2024-04-10T18:53:58.810Z</time>
      </trkpt>
      <trkpt lat="48.05123" lon="-3.64705">
        <ele>179.9</ele>
        <time>2024-04-10T18:54:08.273Z</time>
      </trkpt>
      <trkpt lat="48.05079" lon="-3.64609">
        <ele>185.4</ele>
        <time>2024-04-10T18:54:38.212Z</time>
      </trkpt>
      <trkpt lat="48.0505" lon="-3.64543">
        <ele>188.7</ele>
        <time>2024-04-10T18:54:56.404Z</time>
      </trkpt>
      <trkpt lat="48.05003" lon="-3.64455">
        <ele>191</ele>
        <time>2024-04-10T18:55:13.806Z</time>
      </trkpt>
      <trkpt lat="48.04992" lon="-3.6444">
        <ele>191</ele>
        <time>2024-04-10T18:55:16.303Z</time>
      </trkpt>
      <trkpt lat="48.0498" lon="-3.64429">
        <ele>191</ele>
        <time>2024-04-10T18:55:18.664Z</time>
      </trkpt>
      <trkpt lat="48.04957" lon="-3.64419">
        <ele>191</ele>
        <time>2024-04-10T18:55:22.682Z</time>
      </trkpt>
      <trkpt lat="48.04927" lon="-3.64412">
        <ele>191</ele>
        <time>2024-04-10T18:55:27.775Z</time>
      </trkpt>
      <trkpt lat="48.04913" lon="-3.64411">
        <ele>190.9</ele>
        <time>2024-04-10T18:55:29.976Z</time>
      </trkpt>
      <trkpt lat="48.04901" lon="-3.64414">
        <ele>190.4</ele>
        <time>2024-04-10T18:55:31.426Z</time>
      </trkpt>
      <trkpt lat="48.04894" lon="-3.64414">
        <ele>190.2</ele>
        <time>2024-04-10T18:55:32.343Z</time>
      </trkpt>
      <trkpt lat="48.04888" lon="-3.64415">
        <ele>190</ele>
        <time>2024-04-10T18:55:33.106Z</time>
      </trkpt>
      <trkpt lat="48.04881" lon="-3.64412">
        <ele>190</ele>
        <time>2024-04-10T18:55:34.327Z</time>
      </trkpt>
      <trkpt lat="48.04865" lon="-3.64406">
        <ele>190</ele>
        <time>2024-04-10T18:55:37.095Z</time>
      </trkpt>
      <trkpt lat="48.04852" lon="-3.64401">
        <ele>189.7</ele>
        <time>2024-04-10T18:55:38.943Z</time>
      </trkpt>
      <trkpt lat="48.04845" lon="-3.64398">
        <ele>189.4</ele>
        <time>2024-04-10T18:55:39.810Z</time>
      </trkpt>
      <trkpt lat="48.04827" lon="-3.64391">
        <ele>188.8</ele>
        <time>2024-04-10T18:55:42.177Z</time>
      </trkpt>
      <trkpt lat="48.0482" lon="-3.64386">
        <ele>188.6</ele>
        <time>2024-04-10T18:55:43.215Z</time>
      </trkpt>
      <trkpt lat="48.04799" lon="-3.64352">
        <ele>188.8</ele>
        <time>2024-04-10T18:55:48.743Z</time>
      </trkpt>
      <trkpt lat="48.04764" lon="-3.643">
        <ele>187.6</ele>
        <time>2024-04-10T18:55:55.426Z</time>
      </trkpt>
      <trkpt lat="48.04686" lon="-3.64175">
        <ele>184.3</ele>
        <time>2024-04-10T18:56:10.362Z</time>
      </trkpt>
      <trkpt lat="48.04653" lon="-3.64135">
        <ele>182.5</ele>
        <time>2024-04-10T18:56:15.378Z</time>
      </trkpt>
      <trkpt lat="48.04641" lon="-3.64119">
        <ele>182.1</ele>
        <time>2024-04-10T18:56:17.546Z</time>
      </trkpt>
      <trkpt lat="48.04506" lon="-3.63949">
        <ele>179.2</ele>
        <time>2024-04-10T18:56:43.074Z</time>
      </trkpt>
      <trkpt lat="48.04427" lon="-3.63848">
        <ele>178.2</ele>
        <time>2024-04-10T18:56:59.028Z</time>
        <extensions>
          <visugpx:TrkExtension xmlns:visugpx="https://www.visugpx.com/editgpx/">
            <visugpx:node>10</visugpx:node>
            </visugpx:TrkExtension>
        </extensions>
      </trkpt>
      <trkpt lat="48.04344" lon="-3.63743">
        <ele>177.1</ele>
        <time>2024-04-10T18:57:15.643Z</time>
      </trkpt>
      <trkpt lat="48.04316" lon="-3.63709">
        <ele>177.5</ele>
        <time>2024-04-10T18:57:22.392Z</time>
      </trkpt>
      <trkpt lat="48.04289" lon="-3.63693">
        <ele>177.4</ele>
        <time>2024-04-10T18:57:27.109Z</time>
      </trkpt>
      <trkpt lat="48.04257" lon="-3.63682">
        <ele>177.9</ele>
        <time>2024-04-10T18:57:33.522Z</time>
      </trkpt>
      <trkpt lat="48.04013" lon="-3.63618">
        <ele>184.5</ele>
        <time>2024-04-10T18:58:28.291Z</time>
      </trkpt>
      <trkpt lat="48.03937" lon="-3.63596">
        <ele>187.3</ele>
        <time>2024-04-10T18:58:47.397Z</time>
      </trkpt>
      <trkpt lat="48.039" lon="-3.6358">
        <ele>188.1</ele>
        <time>2024-04-10T18:58:55.378Z</time>
      </trkpt>
      <trkpt lat="48.03849" lon="-3.63553">
        <ele>189.1</ele>
        <time>2024-04-10T18:59:06.316Z</time>
      </trkpt>
      <trkpt lat="48.03817" lon="-3.63535">
        <ele>189.9</ele>
        <time>2024-04-10T18:59:13.606Z</time>
      </trkpt>
      <trkpt lat="48.03783" lon="-3.63507">
        <ele>190.6</ele>
        <time>2024-04-10T18:59:21.416Z</time>
      </trkpt>
      <trkpt lat="48.03779" lon="-3.63511">
        <ele>190.6</ele>
        <time>2024-04-10T18:59:22.223Z</time>
      </trkpt>
      <trkpt lat="48.03739" lon="-3.63516">
        <ele>190.4</ele>
        <time>2024-04-10T18:59:28.650Z</time>
      </trkpt>
      <trkpt lat="48.0371" lon="-3.63521">
        <ele>190.2</ele>
        <time>2024-04-10T18:59:33.244Z</time>
      </trkpt>
      <trkpt lat="48.0365" lon="-3.6354">
        <ele>190</ele>
        <time>2024-04-10T18:59:43.222Z</time>
      </trkpt>
      <trkpt lat="48.0352" lon="-3.63584">
        <ele>188.7</ele>
        <time>2024-04-10T19:00:03.660Z</time>
      </trkpt>
      <trkpt lat="48.03544" lon="-3.63724">
        <ele>188</ele>
        <time>2024-04-10T19:00:18.817Z</time>
      </trkpt>
      <trkpt lat="48.03618" lon="-3.64112">
        <ele>187</ele>
        <time>2024-04-10T19:01:02.526Z</time>
      </trkpt>
      <trkpt lat="48.03628" lon="-3.64181">
        <ele>187</ele>
        <time>2024-04-10T19:01:10.445Z</time>
      </trkpt>
      <trkpt lat="48.03635" lon="-3.64247">
        <ele>187</ele>
        <time>2024-04-10T19:01:17.941Z</time>
      </trkpt>
      <trkpt lat="48.0364" lon="-3.64322">
        <ele>187.1</ele>
        <time>2024-04-10T19:01:26.558Z</time>
      </trkpt>
      <trkpt lat="48.0364" lon="-3.64381">
        <ele>186.4</ele>
        <time>2024-04-10T19:01:32.201Z</time>
      </trkpt>
      <trkpt lat="48.03627" lon="-3.64641">
        <ele>184.9</ele>
        <time>2024-04-10T19:01:59.210Z</time>
      </trkpt>
      <trkpt lat="48.03591" lon="-3.65312">
        <ele>175</ele>
        <time>2024-04-10T19:03:01.361Z</time>
      </trkpt>
      <trkpt lat="48.03583" lon="-3.65378">
        <ele>175</ele>
        <time>2024-04-10T19:03:08.885Z</time>
      </trkpt>
      <trkpt lat="48.03575" lon="-3.65436">
        <ele>174.7</ele>
        <time>2024-04-10T19:03:15.077Z</time>
      </trkpt>
      <trkpt lat="48.03555" lon="-3.65542">
        <ele>174.5</ele>
        <time>2024-04-10T19:03:27.119Z</time>
      </trkpt>
      <trkpt lat="48.03521" lon="-3.65715">
        <ele>173.8</ele>
        <time>2024-04-10T19:03:46.279Z</time>
      </trkpt>
      <trkpt lat="48.03503" lon="-3.6579">
        <ele>174.1</ele>
        <time>2024-04-10T19:03:55.718Z</time>
      </trkpt>
      <trkpt lat="48.03486" lon="-3.65851">
        <ele>173.8</ele>
        <time>2024-04-10T19:04:02.678Z</time>
      </trkpt>
      <trkpt lat="48.0347" lon="-3.65898">
        <ele>173.9</ele>
        <time>2024-04-10T19:04:08.757Z</time>
      </trkpt>
      <trkpt lat="48.03388" lon="-3.66103">
        <ele>174</ele>
        <time>2024-04-10T19:04:35.713Z</time>
      </trkpt>
      <trkpt lat="48.0336" lon="-3.66174">
        <ele>173</ele>
        <time>2024-04-10T19:04:43.572Z</time>
      </trkpt>
      <trkpt lat="48.03328" lon="-3.66246">
        <ele>171.8</ele>
        <time>2024-04-10T19:04:51.636Z</time>
      </trkpt>
      <trkpt lat="48.0329" lon="-3.66314">
        <ele>171.4</ele>
        <time>2024-04-10T19:05:00.972Z</time>
      </trkpt>
      <trkpt lat="48.03261" lon="-3.66353">
        <ele>170.4</ele>
        <time>2024-04-10T19:05:06.200Z</time>
      </trkpt>
      <trkpt lat="48.03208" lon="-3.66416">
        <ele>169</ele>
        <time>2024-04-10T19:05:15.651Z</time>
      </trkpt>
      <trkpt lat="48.03096" lon="-3.66535">
        <ele>168.3</ele>
        <time>2024-04-10T19:05:37.626Z</time>
      </trkpt>
      <trkpt lat="48.03007" lon="-3.66629">
        <ele>170.6</ele>
        <time>2024-04-10T19:06:00.287Z</time>
      </trkpt>
      <trkpt lat="48.02952" lon="-3.66689">
        <ele>171</ele>
        <time>2024-04-10T19:06:12.377Z</time>
      </trkpt>
      <trkpt lat="48.02929" lon="-3.66722">
        <ele>170.4</ele>
        <time>2024-04-10T19:06:16.895Z</time>
      </trkpt>
      <trkpt lat="48.02913" lon="-3.66767">
        <ele>168.9</ele>
        <time>2024-04-10T19:06:20.874Z</time>
      </trkpt>
      <trkpt lat="48.02814" lon="-3.67089">
        <ele>159.3</ele>
        <time>2024-04-10T19:06:49.242Z</time>
      </trkpt>
      <trkpt lat="48.02604" lon="-3.67767">
        <ele>155</ele>
        <time>2024-04-10T19:08:06.657Z</time>
      </trkpt>
      <trkpt lat="48.02518" lon="-3.68047">
        <ele>151.2</ele>
        <time>2024-04-10T19:08:35.963Z</time>
      </trkpt>
      <trkpt lat="48.02493" lon="-3.68125">
        <ele>150.7</ele>
        <time>2024-04-10T19:08:44.922Z</time>
      </trkpt>
      <trkpt lat="48.02493" lon="-3.68125">
        <ele>150.7</ele>
        <time>2024-04-10T19:08:44.922Z</time>
        <extensions>
          <visugpx:TrkExtension xmlns:visugpx="https://www.visugpx.com/editgpx/">
            <visugpx:node>11</visugpx:node>
            </visugpx:TrkExtension>
        </extensions>
      </trkpt>
      <trkpt lat="48.0245" lon="-3.6826">
        <ele>149.2</ele>
        <time>2024-04-10T19:08:59.568Z</time>
      </trkpt>
      <trkpt lat="48.02402" lon="-3.6842">
        <ele>145.9</ele>
        <time>2024-04-10T19:09:14.981Z</time>
      </trkpt>
      <trkpt lat="48.02391" lon="-3.68449">
        <ele>145</ele>
        <time>2024-04-10T19:09:17.653Z</time>
      </trkpt>
      <trkpt lat="48.02374" lon="-3.68474">
        <ele>144.5</ele>
        <time>2024-04-10T19:09:20.973Z</time>
      </trkpt>
      <trkpt lat="48.02369" lon="-3.68491">
        <ele>144.3</ele>
        <time>2024-04-10T19:09:22.775Z</time>
      </trkpt>
      <trkpt lat="48.02369" lon="-3.68513">
        <ele>144.2</ele>
        <time>2024-04-10T19:09:25.092Z</time>
      </trkpt>
      <trkpt lat="48.02372" lon="-3.68526">
        <ele>144</ele>
        <time>2024-04-10T19:09:26.365Z</time>
      </trkpt>
      <trkpt lat="48.0237" lon="-3.68539">
        <ele>143.9</ele>
        <time>2024-04-10T19:09:27.715Z</time>
      </trkpt>
      <trkpt lat="48.02367" lon="-3.68544">
        <ele>143.9</ele>
        <time>2024-04-10T19:09:28.469Z</time>
      </trkpt>
      <trkpt lat="48.02364" lon="-3.68548">
        <ele>143.9</ele>
        <time>2024-04-10T19:09:29.143Z</time>
      </trkpt>
      <trkpt lat="48.02354" lon="-3.68581">
        <ele>143.1</ele>
        <time>2024-04-10T19:09:32.209Z</time>
      </trkpt>
      <trkpt lat="48.02348" lon="-3.68602">
        <ele>142.3</ele>
        <time>2024-04-10T19:09:33.893Z</time>
      </trkpt>
      <trkpt lat="48.02347" lon="-3.68605">
        <ele>142.2</ele>
        <time>2024-04-10T19:09:34.153Z</time>
      </trkpt>
      <trkpt lat="48.02339" lon="-3.68635">
        <ele>141.8</ele>
        <time>2024-04-10T19:09:37.223Z</time>
      </trkpt>
      <trkpt lat="48.02327" lon="-3.68679">
        <ele>142.8</ele>
        <time>2024-04-10T19:09:44.647Z</time>
      </trkpt>
      <trkpt lat="48.02325" lon="-3.68694">
        <ele>142.7</ele>
        <time>2024-04-10T19:09:46.215Z</time>
      </trkpt>
      <trkpt lat="48.02325" lon="-3.68725">
        <ele>143.4</ele>
        <time>2024-04-10T19:09:51.189Z</time>
      </trkpt>
      <trkpt lat="48.02328" lon="-3.68745">
        <ele>143.8</ele>
        <time>2024-04-10T19:09:54.308Z</time>
      </trkpt>
      <trkpt lat="48.02361" lon="-3.68888">
        <ele>146</ele>
        <time>2024-04-10T19:10:15.496Z</time>
      </trkpt>
      <trkpt lat="48.02373" lon="-3.68937">
        <ele>145.7</ele>
        <time>2024-04-10T19:10:20.903Z</time>
      </trkpt>
      <trkpt lat="48.02412" lon="-3.69114">
        <ele>155.1</ele>
        <time>2024-04-10T19:11:12.055Z</time>
      </trkpt>
      <trkpt lat="48.02422" lon="-3.69165">
        <ele>157.7</ele>
        <time>2024-04-10T19:11:26.198Z</time>
      </trkpt>
      <trkpt lat="48.0245" lon="-3.69342">
        <ele>165.9</ele>
        <time>2024-04-10T19:12:10.970Z</time>
      </trkpt>
      <trkpt lat="48.0246" lon="-3.69415">
        <ele>168.4</ele>
        <time>2024-04-10T19:12:25.584Z</time>
      </trkpt>
      <trkpt lat="48.02462" lon="-3.69427">
        <ele>168.5</ele>
        <time>2024-04-10T19:12:27.148Z</time>
      </trkpt>
      <trkpt lat="48.02465" lon="-3.69436">
        <ele>168.4</ele>
        <time>2024-04-10T19:12:28.134Z</time>
      </trkpt>
      <trkpt lat="48.02472" lon="-3.69448">
        <ele>168.1</ele>
        <time>2024-04-10T19:12:29.533Z</time>
      </trkpt>
      <trkpt lat="48.02479" lon="-3.69452">
        <ele>168.4</ele>
        <time>2024-04-10T19:12:31.471Z</time>
      </trkpt>
      <trkpt lat="48.02484" lon="-3.69461">
        <ele>168.8</ele>
        <time>2024-04-10T19:12:33.794Z</time>
      </trkpt>
      <trkpt lat="48.02485" lon="-3.69472">
        <ele>169</ele>
        <time>2024-04-10T19:12:35.440Z</time>
      </trkpt>
      <trkpt lat="48.02483" lon="-3.69482">
        <ele>169</ele>
        <time>2024-04-10T19:12:36.612Z</time>
      </trkpt>
      <trkpt lat="48.02478" lon="-3.69491">
        <ele>169</ele>
        <time>2024-04-10T19:12:37.924Z</time>
      </trkpt>
      <trkpt lat="48.02477" lon="-3.69506">
        <ele>169.2</ele>
        <time>2024-04-10T19:12:39.992Z</time>
      </trkpt>
      <trkpt lat="48.02478" lon="-3.69523">
        <ele>169.8</ele>
        <time>2024-04-10T19:12:43.444Z</time>
      </trkpt>
      <trkpt lat="48.02481" lon="-3.6954">
        <ele>170.3</ele>
        <time>2024-04-10T19:12:46.578Z</time>
      </trkpt>
      <trkpt lat="48.02489" lon="-3.69591">
        <ele>170.4</ele>
        <time>2024-04-10T19:12:52.618Z</time>
      </trkpt>
      <trkpt lat="48.02491" lon="-3.69622">
        <ele>170.6</ele>
        <time>2024-04-10T19:12:56.457Z</time>
      </trkpt>
      <trkpt lat="48.02489" lon="-3.69685">
        <ele>171</ele>
        <time>2024-04-10T19:13:04.223Z</time>
      </trkpt>
      <trkpt lat="48.02482" lon="-3.69735">
        <ele>171.3</ele>
        <time>2024-04-10T19:13:10.469Z</time>
      </trkpt>
      <trkpt lat="48.0247" lon="-3.69777">
        <ele>171.1</ele>
        <time>2024-04-10T19:13:15.290Z</time>
      </trkpt>
      <trkpt lat="48.02458" lon="-3.6981">
        <ele>172.1</ele>
        <time>2024-04-10T19:13:21.767Z</time>
      </trkpt>
      <trkpt lat="48.02398" lon="-3.6994">
        <ele>175.6</ele>
        <time>2024-04-10T19:13:46.924Z</time>
      </trkpt>
      <trkpt lat="48.02359" lon="-3.70043">
        <ele>179.2</ele>
        <time>2024-04-10T19:14:08.807Z</time>
      </trkpt>
      <trkpt lat="48.02352" lon="-3.70062">
        <ele>179.7</ele>
        <time>2024-04-10T19:14:12.316Z</time>
      </trkpt>
      <trkpt lat="48.02342" lon="-3.70088">
        <ele>180</ele>
        <time>2024-04-10T19:14:16.223Z</time>
      </trkpt>
      <trkpt lat="48.02339" lon="-3.701">
        <ele>180</ele>
        <time>2024-04-10T19:14:17.660Z</time>
      </trkpt>
      <trkpt lat="48.02337" lon="-3.70104">
        <ele>180</ele>
        <time>2024-04-10T19:14:18.220Z</time>
      </trkpt>
      <trkpt lat="48.02325" lon="-3.70138">
        <ele>181</ele>
        <time>2024-04-10T19:14:24.777Z</time>
      </trkpt>
      <trkpt lat="48.02312" lon="-3.70175">
        <ele>181.2</ele>
        <time>2024-04-10T19:14:29.804Z</time>
      </trkpt>
      <trkpt lat="48.02255" lon="-3.70337">
        <ele>180</ele>
        <time>2024-04-10T19:14:48.569Z</time>
      </trkpt>
      <trkpt lat="48.02238" lon="-3.70399">
        <ele>179.1</ele>
        <time>2024-04-10T19:14:54.856Z</time>
      </trkpt>
      <trkpt lat="48.02231" lon="-3.70443">
        <ele>177.7</ele>
        <time>2024-04-10T19:14:58.332Z</time>
      </trkpt>
      <trkpt lat="48.02228" lon="-3.7047">
        <ele>177.1</ele>
        <time>2024-04-10T19:15:00.652Z</time>
      </trkpt>
      <trkpt lat="48.02219" lon="-3.7063">
        <ele>168.6</ele>
        <time>2024-04-10T19:15:11.461Z</time>
      </trkpt>
      <trkpt lat="48.02213" lon="-3.70683">
        <ele>166.1</ele>
        <time>2024-04-10T19:15:15.080Z</time>
      </trkpt>
      <trkpt lat="48.02211" lon="-3.70698">
        <ele>165.5</ele>
        <time>2024-04-10T19:15:16.162Z</time>
      </trkpt>
      <trkpt lat="48.02205" lon="-3.7072">
        <ele>164.8</ele>
        <time>2024-04-10T19:15:18.017Z</time>
      </trkpt>
      <trkpt lat="48.02198" lon="-3.70744">
        <ele>164.3</ele>
        <time>2024-04-10T19:15:20.311Z</time>
      </trkpt>
      <trkpt lat="48.02148" lon="-3.7087">
        <ele>164</ele>
        <time>2024-04-10T19:15:36.282Z</time>
      </trkpt>
      <trkpt lat="48.02129" lon="-3.70923">
        <ele>165.5</ele>
        <time>2024-04-10T19:15:46.343Z</time>
      </trkpt>
      <trkpt lat="48.02118" lon="-3.70964">
        <ele>166.7</ele>
        <time>2024-04-10T19:15:54.036Z</time>
      </trkpt>
      <trkpt lat="48.02107" lon="-3.71034">
        <ele>168.5</ele>
        <time>2024-04-10T19:16:06.085Z</time>
      </trkpt>
      <trkpt lat="48.02104" lon="-3.71078">
        <ele>170.5</ele>
        <time>2024-04-10T19:16:17.003Z</time>
      </trkpt>
      <trkpt lat="48.02099" lon="-3.71288">
        <ele>174.4</ele>
        <time>2024-04-10T19:16:48.466Z</time>
      </trkpt>
      <trkpt lat="48.02104" lon="-3.71317">
        <ele>174.3</ele>
        <time>2024-04-10T19:16:51.673Z</time>
      </trkpt>
      <trkpt lat="48.02107" lon="-3.71323">
        <ele>174.1</ele>
        <time>2024-04-10T19:16:52.275Z</time>
      </trkpt>
      <trkpt lat="48.02108" lon="-3.71328">
        <ele>174.1</ele>
        <time>2024-04-10T19:16:52.861Z</time>
      </trkpt>
      <trkpt lat="48.02107" lon="-3.71338">
        <ele>174.1</ele>
        <time>2024-04-10T19:16:53.995Z</time>
      </trkpt>
      <trkpt lat="48.02102" lon="-3.71345">
        <ele>174.3</ele>
        <time>2024-04-10T19:16:55.554Z</time>
      </trkpt>
      <trkpt lat="48.02099" lon="-3.71347">
        <ele>174.4</ele>
        <time>2024-04-10T19:16:56.313Z</time>
      </trkpt>
      <trkpt lat="48.02091" lon="-3.7137">
        <ele>174.7</ele>
        <time>2024-04-10T19:16:59.774Z</time>
      </trkpt>
      <trkpt lat="48.02074" lon="-3.71482">
        <ele>176</ele>
        <time>2024-04-10T19:17:15.048Z</time>
      </trkpt>
      <trkpt lat="48.02066" lon="-3.71532">
        <ele>176</ele>
        <time>2024-04-10T19:17:20.817Z</time>
      </trkpt>
      <trkpt lat="48.02032" lon="-3.71802">
        <ele>177.9</ele>
        <time>2024-04-10T19:17:54.943Z</time>
      </trkpt>
      <trkpt lat="48.02033" lon="-3.71834">
        <ele>178</ele>
        <time>2024-04-10T19:17:58.703Z</time>
      </trkpt>
      <trkpt lat="48.02036" lon="-3.71842">
        <ele>178</ele>
        <time>2024-04-10T19:17:59.732Z</time>
      </trkpt>
      <trkpt lat="48.02035" lon="-3.71853">
        <ele>178</ele>
        <time>2024-04-10T19:18:00.978Z</time>
      </trkpt>
      <trkpt lat="48.02029" lon="-3.71861">
        <ele>178</ele>
        <time>2024-04-10T19:18:02.326Z</time>
      </trkpt>
      <trkpt lat="48.0202" lon="-3.71894">
        <ele>178.2</ele>
        <time>2024-04-10T19:18:06.667Z</time>
      </trkpt>
      <trkpt lat="48.02004" lon="-3.72013">
        <ele>180.5</ele>
        <time>2024-04-10T19:18:24.962Z</time>
      </trkpt>
      <trkpt lat="48.02001" lon="-3.72043">
        <ele>181</ele>
        <time>2024-04-10T19:18:29.348Z</time>
      </trkpt>
      <trkpt lat="48.01987" lon="-3.72151">
        <ele>183.5</ele>
        <time>2024-04-10T19:18:47.046Z</time>
      </trkpt>
      <trkpt lat="48.01986" lon="-3.72181">
        <ele>184</ele>
        <time>2024-04-10T19:18:51.401Z</time>
      </trkpt>
      <trkpt lat="48.0199" lon="-3.72207">
        <ele>185.1</ele>
        <time>2024-04-10T19:18:57.480Z</time>
      </trkpt>
      <trkpt lat="48.01998" lon="-3.72236">
        <ele>186.4</ele>
        <time>2024-04-10T19:19:04.657Z</time>
      </trkpt>
      <trkpt lat="48.02009" lon="-3.72258">
        <ele>187.1</ele>
        <time>2024-04-10T19:19:09.297Z</time>
      </trkpt>
      <trkpt lat="48.02032" lon="-3.72298">
        <ele>188.7</ele>
        <time>2024-04-10T19:19:19.035Z</time>
      </trkpt>
      <trkpt lat="48.02004" lon="-3.7235">
        <ele>189.6</ele>
        <time>2024-04-10T19:19:28.225Z</time>
      </trkpt>
      <trkpt lat="48.02001" lon="-3.72371">
        <ele>190</ele>
        <time>2024-04-10T19:19:31.444Z</time>
      </trkpt>
      <trkpt lat="48.02001" lon="-3.72383">
        <ele>190</ele>
        <time>2024-04-10T19:19:32.791Z</time>
      </trkpt>
      <trkpt lat="48.02002" lon="-3.7239">
        <ele>190.1</ele>
        <time>2024-04-10T19:19:33.784Z</time>
      </trkpt>
      <trkpt lat="48.01999" lon="-3.72398">
        <ele>190.3</ele>
        <time>2024-04-10T19:19:35.236Z</time>
      </trkpt>
      <trkpt lat="48.01994" lon="-3.724">
        <ele>190.4</ele>
        <time>2024-04-10T19:19:36.292Z</time>
      </trkpt>
      <trkpt lat="48.01991" lon="-3.72399">
        <ele>190.4</ele>
        <time>2024-04-10T19:19:36.807Z</time>
      </trkpt>
      <trkpt lat="48.01973" lon="-3.72404">
        <ele>190.5</ele>
        <time>2024-04-10T19:19:40.045Z</time>
      </trkpt>
      <trkpt lat="48.01971" lon="-3.72408">
        <ele>190.6</ele>
        <time>2024-04-10T19:19:40.812Z</time>
      </trkpt>
      <trkpt lat="48.01965" lon="-3.72417">
        <ele>190.7</ele>
        <time>2024-04-10T19:19:42.414Z</time>
      </trkpt>
      <trkpt lat="48.01885" lon="-3.72564">
        <ele>190.9</ele>
        <time>2024-04-10T19:20:04.001Z</time>
      </trkpt>
      <trkpt lat="48.01879" lon="-3.7258">
        <ele>190.6</ele>
        <time>2024-04-10T19:20:05.661Z</time>
      </trkpt>
      <trkpt lat="48.01864" lon="-3.72617">
        <ele>191.1</ele>
        <time>2024-04-10T19:20:11.437Z</time>
      </trkpt>
      <trkpt lat="48.01853" lon="-3.72657">
        <ele>190.7</ele>
        <time>2024-04-10T19:20:15.717Z</time>
      </trkpt>
      <trkpt lat="48.01788" lon="-3.72949">
        <ele>186.2</ele>
        <time>2024-04-10T19:20:44.171Z</time>
      </trkpt>
      <trkpt lat="48.01769" lon="-3.73002">
        <ele>184.6</ele>
        <time>2024-04-10T19:20:49.011Z</time>
      </trkpt>
      <trkpt lat="48.01755" lon="-3.7303">
        <ele>183.9</ele>
        <time>2024-04-10T19:20:52.041Z</time>
      </trkpt>
      <trkpt lat="48.01683" lon="-3.73148">
        <ele>179.8</ele>
        <time>2024-04-10T19:21:05.029Z</time>
      </trkpt>
      <trkpt lat="48.01661" lon="-3.73194">
        <ele>179</ele>
        <time>2024-04-10T19:21:10.288Z</time>
      </trkpt>
      <trkpt lat="48.01621" lon="-3.73298">
        <ele>177.9</ele>
        <time>2024-04-10T19:21:22.172Z</time>
      </trkpt>
      <trkpt lat="48.01605" lon="-3.73347">
        <ele>177.1</ele>
        <time>2024-04-10T19:21:27.211Z</time>
      </trkpt>
      <trkpt lat="48.01598" lon="-3.73386">
        <ele>176.5</ele>
        <time>2024-04-10T19:21:30.934Z</time>
      </trkpt>
      <trkpt lat="48.01582" lon="-3.73635">
        <ele>173.9</ele>
        <time>2024-04-10T19:21:55.325Z</time>
      </trkpt>
      <trkpt lat="48.0158" lon="-3.73664">
        <ele>173.8</ele>
        <time>2024-04-10T19:21:58.444Z</time>
      </trkpt>
      <trkpt lat="48.01553" lon="-3.74023">
        <ele>168.6</ele>
        <time>2024-04-10T19:22:31.942Z</time>
      </trkpt>
      <trkpt lat="48.01547" lon="-3.74056">
        <ele>167.4</ele>
        <time>2024-04-10T19:22:34.462Z</time>
      </trkpt>
      <trkpt lat="48.01541" lon="-3.74081">
        <ele>167</ele>
        <time>2024-04-10T19:22:36.905Z</time>
      </trkpt>
      <trkpt lat="48.01531" lon="-3.74107">
        <ele>167.1</ele>
        <time>2024-04-10T19:22:40.437Z</time>
      </trkpt>
      <trkpt lat="48.01442" lon="-3.74295">
        <ele>166.1</ele>
        <time>2024-04-10T19:23:04.766Z</time>
      </trkpt>
      <trkpt lat="48.01349" lon="-3.74463">
        <ele>160.3</ele>
        <time>2024-04-10T19:23:22.321Z</time>
      </trkpt>
      <trkpt lat="48.01326" lon="-3.74499">
        <ele>158.6</ele>
        <time>2024-04-10T19:23:26.024Z</time>
        <extensions>
          <visugpx:TrkExtension xmlns:visugpx="https://www.visugpx.com/editgpx/">
            <visugpx:node>12</visugpx:node>
            </visugpx:TrkExtension>
        </extensions>
      </trkpt>
      <trkpt lat="48.01247" lon="-3.74626">
        <ele>152.6</ele>
        <time>2024-04-10T19:23:38.866Z</time>
      </trkpt>
      <trkpt lat="48.01234" lon="-3.74651">
        <ele>150.5</ele>
        <time>2024-04-10T19:23:40.998Z</time>
      </trkpt>
      <trkpt lat="48.01225" lon="-3.74673">
        <ele>149.9</ele>
        <time>2024-04-10T19:23:43.152Z</time>
      </trkpt>
      <trkpt lat="48.01215" lon="-3.74709">
        <ele>147.8</ele>
        <time>2024-04-10T19:23:45.777Z</time>
      </trkpt>
      <trkpt lat="48.01212" lon="-3.74723">
        <ele>147.1</ele>
        <time>2024-04-10T19:23:46.767Z</time>
      </trkpt>
      <trkpt lat="48.01208" lon="-3.74766">
        <ele>145.4</ele>
        <time>2024-04-10T19:23:49.842Z</time>
      </trkpt>
      <trkpt lat="48.01209" lon="-3.74809">
        <ele>144.1</ele>
        <time>2024-04-10T19:23:53.175Z</time>
      </trkpt>
      <trkpt lat="48.01218" lon="-3.74932">
        <ele>148.7</ele>
        <time>2024-04-10T19:24:19.201Z</time>
      </trkpt>
      <trkpt lat="48.01221" lon="-3.75013">
        <ele>151</ele>
        <time>2024-04-10T19:24:33.639Z</time>
      </trkpt>
      <trkpt lat="48.0122" lon="-3.75061">
        <ele>152.3</ele>
        <time>2024-04-10T19:24:41.988Z</time>
      </trkpt>
      <trkpt lat="48.0121" lon="-3.7522">
        <ele>154.6</ele>
        <time>2024-04-10T19:25:04.309Z</time>
      </trkpt>
      <trkpt lat="48.01207" lon="-3.75256">
        <ele>154.7</ele>
        <time>2024-04-10T19:25:08.545Z</time>
      </trkpt>
      <trkpt lat="48.012" lon="-3.75359">
        <ele>151.5</ele>
        <time>2024-04-10T19:25:16.506Z</time>
      </trkpt>
      <trkpt lat="48.01197" lon="-3.75418">
        <ele>151</ele>
        <time>2024-04-10T19:25:22.423Z</time>
      </trkpt>
      <trkpt lat="48.01192" lon="-3.75501">
        <ele>148.9</ele>
        <time>2024-04-10T19:25:29.236Z</time>
      </trkpt>
      <trkpt lat="48.01192" lon="-3.7556">
        <ele>147.6</ele>
        <time>2024-04-10T19:25:34.233Z</time>
      </trkpt>
      <trkpt lat="48.01194" lon="-3.75595">
        <ele>146.9</ele>
        <time>2024-04-10T19:25:37.282Z</time>
      </trkpt>
      <trkpt lat="48.012" lon="-3.75666">
        <ele>146.8</ele>
        <time>2024-04-10T19:25:45.156Z</time>
      </trkpt>
      <trkpt lat="48.01207" lon="-3.7572">
        <ele>147</ele>
        <time>2024-04-10T19:25:51.662Z</time>
      </trkpt>
      <trkpt lat="48.01289" lon="-3.76211">
        <ele>169</ele>
        <time>2024-04-10T19:27:52.256Z</time>
      </trkpt>
      <trkpt lat="48.01303" lon="-3.76312">
        <ele>171.3</ele>
        <time>2024-04-10T19:28:08.727Z</time>
      </trkpt>
      <trkpt lat="48.01309" lon="-3.7641">
        <ele>173.2</ele>
        <time>2024-04-10T19:28:23.651Z</time>
      </trkpt>
      <trkpt lat="48.0131" lon="-3.76523">
        <ele>173.5</ele>
        <time>2024-04-10T19:28:36.827Z</time>
      </trkpt>
      <trkpt lat="48.01312" lon="-3.76694">
        <ele>172.5</ele>
        <time>2024-04-10T19:28:54.531Z</time>
      </trkpt>
      <trkpt lat="48.0131" lon="-3.76797">
        <ele>172.2</ele>
        <time>2024-04-10T19:29:05.632Z</time>
      </trkpt>
      <trkpt lat="48.01302" lon="-3.7696">
        <ele>172.9</ele>
        <time>2024-04-10T19:29:25.149Z</time>
      </trkpt>
      <trkpt lat="48.013" lon="-3.77042">
        <ele>173.9</ele>
        <time>2024-04-10T19:29:36.215Z</time>
      </trkpt>
      <trkpt lat="48.01297" lon="-3.77303">
        <ele>177</ele>
        <time>2024-04-10T19:30:11.243Z</time>
      </trkpt>
      <trkpt lat="48.01296" lon="-3.77336">
        <ele>177.7</ele>
        <time>2024-04-10T19:30:16.418Z</time>
      </trkpt>
      <trkpt lat="48.01291" lon="-3.7737">
        <ele>178</ele>
        <time>2024-04-10T19:30:20.857Z</time>
      </trkpt>
      <trkpt lat="48.0128" lon="-3.77416">
        <ele>178</ele>
        <time>2024-04-10T19:30:26.339Z</time>
      </trkpt>
      <trkpt lat="48.01276" lon="-3.77432">
        <ele>177.4</ele>
        <time>2024-04-10T19:30:27.597Z</time>
      </trkpt>
      <trkpt lat="48.01262" lon="-3.77464">
        <ele>177.3</ele>
        <time>2024-04-10T19:30:31.733Z</time>
      </trkpt>
      <trkpt lat="48.01246" lon="-3.77496">
        <ele>177</ele>
        <time>2024-04-10T19:30:35.778Z</time>
      </trkpt>
      <trkpt lat="48.01215" lon="-3.77549">
        <ele>176.8</ele>
        <time>2024-04-10T19:30:43.370Z</time>
      </trkpt>
      <trkpt lat="48.012" lon="-3.77566">
        <ele>176.1</ele>
        <time>2024-04-10T19:30:45.679Z</time>
      </trkpt>
      <trkpt lat="48.0118" lon="-3.77586">
        <ele>176</ele>
        <time>2024-04-10T19:30:49.561Z</time>
      </trkpt>
      <trkpt lat="48.01172" lon="-3.77593">
        <ele>175.7</ele>
        <time>2024-04-10T19:30:50.740Z</time>
      </trkpt>
      <trkpt lat="48.01053" lon="-3.77668">
        <ele>173</ele>
        <time>2024-04-10T19:31:08.733Z</time>
      </trkpt>
      <trkpt lat="48.01035" lon="-3.77683">
        <ele>173</ele>
        <time>2024-04-10T19:31:12.190Z</time>
      </trkpt>
      <trkpt lat="48.00903" lon="-3.7781">
        <ele>170.5</ele>
        <time>2024-04-10T19:31:34.997Z</time>
      </trkpt>
      <trkpt lat="48.00829" lon="-3.77878">
        <ele>168.8</ele>
        <time>2024-04-10T19:31:47.234Z</time>
      </trkpt>
      <trkpt lat="48.00646" lon="-3.78033">
        <ele>166.3</ele>
        <time>2024-04-10T19:32:18.884Z</time>
      </trkpt>
      <trkpt lat="48.00611" lon="-3.78057">
        <ele>165</ele>
        <time>2024-04-10T19:32:23.730Z</time>
      </trkpt>
      <trkpt lat="48.00342" lon="-3.78204">
        <ele>156.3</ele>
        <time>2024-04-10T19:33:00.717Z</time>
      </trkpt>
      <trkpt lat="48.0031" lon="-3.78228">
        <ele>156</ele>
        <time>2024-04-10T19:33:06.275Z</time>
      </trkpt>
      <trkpt lat="48.00282" lon="-3.78252">
        <ele>155.2</ele>
        <time>2024-04-10T19:33:10.631Z</time>
      </trkpt>
      <trkpt lat="48.00251" lon="-3.78281">
        <ele>155</ele>
        <time>2024-04-10T19:33:16.461Z</time>
      </trkpt>
      <trkpt lat="48.00219" lon="-3.78322">
        <ele>155</ele>
        <time>2024-04-10T19:33:23.532Z</time>
      </trkpt>
      <trkpt lat="48.00188" lon="-3.78371">
        <ele>154.6</ele>
        <time>2024-04-10T19:33:30.506Z</time>
      </trkpt>
      <trkpt lat="48.00175" lon="-3.78394">
        <ele>155.2</ele>
        <time>2024-04-10T19:33:35.121Z</time>
      </trkpt>
      <trkpt lat="48.00155" lon="-3.7844">
        <ele>155.6</ele>
        <time>2024-04-10T19:33:41.976Z</time>
      </trkpt>
      <trkpt lat="48.00139" lon="-3.78481">
        <ele>156</ele>
        <time>2024-04-10T19:33:48.012Z</time>
      </trkpt>
      <trkpt lat="48.00125" lon="-3.78521">
        <ele>157.5</ele>
        <time>2024-04-10T19:33:56.813Z</time>
      </trkpt>
      <trkpt lat="48.00064" lon="-3.7874">
        <ele>162</ele>
        <time>2024-04-10T19:34:32.589Z</time>
      </trkpt>
      <trkpt lat="48.00043" lon="-3.78906">
        <ele>167.6</ele>
        <time>2024-04-10T19:35:05.476Z</time>
      </trkpt>
      <trkpt lat="48.00036" lon="-3.78942">
        <ele>168</ele>
        <time>2024-04-10T19:35:10.413Z</time>
      </trkpt>
      <trkpt lat="48.00025" lon="-3.78973">
        <ele>168.9</ele>
        <time>2024-04-10T19:35:16.359Z</time>
      </trkpt>
      <trkpt lat="48.00012" lon="-3.78998">
        <ele>169</ele>
        <time>2024-04-10T19:35:20.079Z</time>
      </trkpt>
      <trkpt lat="47.99996" lon="-3.79024">
        <ele>168.1</ele>
        <time>2024-04-10T19:35:22.959Z</time>
      </trkpt>
      <trkpt lat="47.99807" lon="-3.79238">
        <ele>160.7</ele>
        <time>2024-04-10T19:35:53.383Z</time>
      </trkpt>
      <trkpt lat="47.9977" lon="-3.7928">
        <ele>159.6</ele>
        <time>2024-04-10T19:35:59.711Z</time>
      </trkpt>
      <trkpt lat="47.99757" lon="-3.79291">
        <ele>159</ele>
        <time>2024-04-10T19:36:01.504Z</time>
      </trkpt>
      <trkpt lat="47.99741" lon="-3.793">
        <ele>158.7</ele>
        <time>2024-04-10T19:36:03.953Z</time>
      </trkpt>
      <trkpt lat="47.99614" lon="-3.79347">
        <ele>159.5</ele>
        <time>2024-04-10T19:36:27.242Z</time>
      </trkpt>
      <trkpt lat="47.99472" lon="-3.79428">
        <ele>157.4</ele>
        <time>2024-04-10T19:36:49.731Z</time>
      </trkpt>
      <trkpt lat="47.99413" lon="-3.79464">
        <ele>155.4</ele>
        <time>2024-04-10T19:36:57.896Z</time>
      </trkpt>
      <trkpt lat="47.99377" lon="-3.79481">
        <ele>153.9</ele>
        <time>2024-04-10T19:37:02.441Z</time>
      </trkpt>
      <trkpt lat="47.99294" lon="-3.79512">
        <ele>152</ele>
        <time>2024-04-10T19:37:14.233Z</time>
      </trkpt>
      <trkpt lat="47.99226" lon="-3.7954">
        <ele>151.4</ele>
        <time>2024-04-10T19:37:25.170Z</time>
      </trkpt>
      <trkpt lat="47.99131" lon="-3.79576">
        <ele>148.7</ele>
        <time>2024-04-10T19:37:38.110Z</time>
      </trkpt>
      <trkpt lat="47.99124" lon="-3.79579">
        <ele>148.5</ele>
        <time>2024-04-10T19:37:39.072Z</time>
      </trkpt>
      <trkpt lat="47.99072" lon="-3.796">
        <ele>146.8</ele>
        <time>2024-04-10T19:37:45.965Z</time>
      </trkpt>
      <trkpt lat="47.99046" lon="-3.79614">
        <ele>145.6</ele>
        <time>2024-04-10T19:37:49.204Z</time>
      </trkpt>
      <trkpt lat="47.98999" lon="-3.79645">
        <ele>144</ele>
        <time>2024-04-10T19:37:55.799Z</time>
      </trkpt>
      <trkpt lat="47.98952" lon="-3.79672">
        <ele>142.5</ele>
        <time>2024-04-10T19:38:02.332Z</time>
      </trkpt>
      <trkpt lat="47.98931" lon="-3.79682">
        <ele>141.8</ele>
        <time>2024-04-10T19:38:05.148Z</time>
      </trkpt>
      <trkpt lat="47.98907" lon="-3.7969">
        <ele>140.7</ele>
        <time>2024-04-10T19:38:08.003Z</time>
      </trkpt>
      <trkpt lat="47.98849" lon="-3.797">
        <ele>138.6</ele>
        <time>2024-04-10T19:38:15.229Z</time>
      </trkpt>
      <trkpt lat="47.98761" lon="-3.79714">
        <ele>134.2</ele>
        <time>2024-04-10T19:38:25.158Z</time>
      </trkpt>
      <trkpt lat="47.98734" lon="-3.79713">
        <ele>133.3</ele>
        <time>2024-04-10T19:38:28.568Z</time>
      </trkpt>
      <trkpt lat="47.98611" lon="-3.79681">
        <ele>132.5</ele>
        <time>2024-04-10T19:38:48.299Z</time>
      </trkpt>
      <trkpt lat="47.98578" lon="-3.79679">
        <ele>132.2</ele>
        <time>2024-04-10T19:38:53.394Z</time>
      </trkpt>
      <trkpt lat="47.9855" lon="-3.79681">
        <ele>131.6</ele>
        <time>2024-04-10T19:38:57.283Z</time>
      </trkpt>
      <trkpt lat="47.98495" lon="-3.797">
        <ele>130.4</ele>
        <time>2024-04-10T19:39:05.125Z</time>
      </trkpt>
      <trkpt lat="47.98388" lon="-3.79746">
        <ele>129.7</ele>
        <time>2024-04-10T19:39:22.740Z</time>
      </trkpt>
      <trkpt lat="47.98342" lon="-3.79771">
        <ele>129.4</ele>
        <time>2024-04-10T19:39:30.496Z</time>
      </trkpt>
      <trkpt lat="47.98305" lon="-3.79803">
        <ele>128.8</ele>
        <time>2024-04-10T19:39:36.809Z</time>
      </trkpt>
      <trkpt lat="47.98281" lon="-3.79832">
        <ele>128.5</ele>
        <time>2024-04-10T19:39:41.544Z</time>
      </trkpt>
      <trkpt lat="47.9826" lon="-3.79871">
        <ele>129.4</ele>
        <time>2024-04-10T19:39:48.969Z</time>
      </trkpt>
      <trkpt lat="47.98195" lon="-3.80021">
        <ele>127</ele>
        <time>2024-04-10T19:40:05.750Z</time>
      </trkpt>
      <trkpt lat="47.98168" lon="-3.8006">
        <ele>127</ele>
        <time>2024-04-10T19:40:12.050Z</time>
      </trkpt>
      <trkpt lat="47.98151" lon="-3.80082">
        <ele>127.6</ele>
        <time>2024-04-10T19:40:17.025Z</time>
      </trkpt>
      <trkpt lat="47.98129" lon="-3.80101">
        <ele>128.2</ele>
        <time>2024-04-10T19:40:22.457Z</time>
      </trkpt>
      <trkpt lat="47.98097" lon="-3.8012">
        <ele>128</ele>
        <time>2024-04-10T19:40:27.928Z</time>
      </trkpt>
      <trkpt lat="47.98068" lon="-3.80134">
        <ele>127.2</ele>
        <time>2024-04-10T19:40:31.994Z</time>
      </trkpt>
      <trkpt lat="47.98003" lon="-3.80148">
        <ele>126</ele>
        <time>2024-04-10T19:40:41.347Z</time>
      </trkpt>
      <trkpt lat="47.97952" lon="-3.80158">
        <ele>125.7</ele>
        <time>2024-04-10T19:40:49.519Z</time>
      </trkpt>
      <trkpt lat="47.9791" lon="-3.80165">
        <ele>125.9</ele>
        <time>2024-04-10T19:40:56.940Z</time>
      </trkpt>
      <trkpt lat="47.97825" lon="-3.80181">
        <ele>126.2</ele>
        <time>2024-04-10T19:41:11.804Z</time>
      </trkpt>
      <trkpt lat="47.97454" lon="-3.80249">
        <ele>129</ele>
        <time>2024-04-10T19:42:19.254Z</time>
      </trkpt>
      <trkpt lat="47.97202" lon="-3.80292">
        <ele>128.9</ele>
        <time>2024-04-10T19:43:01.643Z</time>
      </trkpt>
      <trkpt lat="47.9717" lon="-3.80301">
        <ele>129.9</ele>
        <time>2024-04-10T19:43:09.183Z</time>
      </trkpt>
      <trkpt lat="47.97145" lon="-3.80311">
        <ele>130.7</ele>
        <time>2024-04-10T19:43:15.190Z</time>
      </trkpt>
      <trkpt lat="47.96952" lon="-3.80423">
        <ele>138.6</ele>
        <time>2024-04-10T19:44:07.520Z</time>
      </trkpt>
      <trkpt lat="47.96902" lon="-3.80462">
        <ele>138.2</ele>
        <time>2024-04-10T19:44:16.379Z</time>
      </trkpt>
      <trkpt lat="47.96874" lon="-3.80488">
        <ele>137.7</ele>
        <time>2024-04-10T19:44:21.201Z</time>
      </trkpt>
      <trkpt lat="47.96858" lon="-3.80507">
        <ele>137.7</ele>
        <time>2024-04-10T19:44:24.630Z</time>
      </trkpt>
      <trkpt lat="47.9685" lon="-3.80516">
        <ele>137.3</ele>
        <time>2024-04-10T19:44:25.834Z</time>
      </trkpt>
      <trkpt lat="47.96728" lon="-3.80682">
        <ele>135.2</ele>
        <time>2024-04-10T19:44:50.485Z</time>
      </trkpt>
      <trkpt lat="47.96719" lon="-3.80693">
        <ele>134.2</ele>
        <time>2024-04-10T19:44:51.655Z</time>
        <extensions>
          <visugpx:TrkExtension xmlns:visugpx="https://www.visugpx.com/editgpx/">
            <visugpx:node>13</visugpx:node>
            </visugpx:TrkExtension>
        </extensions>
      </trkpt>
      <trkpt lat="47.96692" lon="-3.80726">
        <ele>133.4</ele>
        <time>2024-04-10T19:44:56.436Z</time>
      </trkpt>
      <trkpt lat="47.96635" lon="-3.80789">
        <ele>131.5</ele>
        <time>2024-04-10T19:45:05.854Z</time>
      </trkpt>
      <trkpt lat="47.96464" lon="-3.80933">
        <ele>124</ele>
        <time>2024-04-10T19:45:29.749Z</time>
      </trkpt>
      <trkpt lat="47.96322" lon="-3.81047">
        <ele>124</ele>
        <time>2024-04-10T19:45:56.793Z</time>
      </trkpt>
      <trkpt lat="47.96257" lon="-3.81103">
        <ele>122.4</ele>
        <time>2024-04-10T19:46:07.212Z</time>
      </trkpt>
      <trkpt lat="47.96227" lon="-3.81132">
        <ele>121.3</ele>
        <time>2024-04-10T19:46:11.813Z</time>
      </trkpt>
      <trkpt lat="47.96157" lon="-3.81238">
        <ele>119.8</ele>
        <time>2024-04-10T19:46:26.406Z</time>
      </trkpt>
      <trkpt lat="47.96122" lon="-3.81293">
        <ele>119.5</ele>
        <time>2024-04-10T19:46:34.472Z</time>
      </trkpt>
      <trkpt lat="47.96079" lon="-3.81362">
        <ele>118.1</ele>
        <time>2024-04-10T19:46:43.174Z</time>
      </trkpt>
      <trkpt lat="47.96042" lon="-3.81415">
        <ele>118.5</ele>
        <time>2024-04-10T19:46:52.455Z</time>
      </trkpt>
      <trkpt lat="47.96035" lon="-3.81431">
        <ele>118.7</ele>
        <time>2024-04-10T19:46:54.965Z</time>
      </trkpt>
      <trkpt lat="47.96035" lon="-3.81433">
        <ele>118.7</ele>
        <time>2024-04-10T19:46:55.190Z</time>
      </trkpt>
      <trkpt lat="47.96032" lon="-3.81439">
        <ele>118.8</ele>
        <time>2024-04-10T19:46:56.220Z</time>
      </trkpt>
      <trkpt lat="47.96028" lon="-3.81439">
        <ele>119</ele>
        <time>2024-04-10T19:46:57.390Z</time>
      </trkpt>
      <trkpt lat="47.96017" lon="-3.81452">
        <ele>118.9</ele>
        <time>2024-04-10T19:46:59.593Z</time>
      </trkpt>
      <trkpt lat="47.96001" lon="-3.81484">
        <ele>118</ele>
        <time>2024-04-10T19:47:02.960Z</time>
      </trkpt>
      <trkpt lat="47.95959" lon="-3.81551">
        <ele>116.9</ele>
        <time>2024-04-10T19:47:11.741Z</time>
      </trkpt>
      <trkpt lat="47.95948" lon="-3.81575">
        <ele>117</ele>
        <time>2024-04-10T19:47:15.174Z</time>
      </trkpt>
      <trkpt lat="47.95943" lon="-3.81593">
        <ele>117</ele>
        <time>2024-04-10T19:47:17.363Z</time>
      </trkpt>
      <trkpt lat="47.95936" lon="-3.8168">
        <ele>118.1</ele>
        <time>2024-04-10T19:47:29.260Z</time>
      </trkpt>
      <trkpt lat="47.95928" lon="-3.81713">
        <ele>118.6</ele>
        <time>2024-04-10T19:47:34.156Z</time>
      </trkpt>
      <trkpt lat="47.95899" lon="-3.81809">
        <ele>120.4</ele>
        <time>2024-04-10T19:47:49.554Z</time>
      </trkpt>
      <trkpt lat="47.95866" lon="-3.81944">
        <ele>117.4</ele>
        <time>2024-04-10T19:48:01.906Z</time>
      </trkpt>
      <trkpt lat="47.95862" lon="-3.81956">
        <ele>117.1</ele>
        <time>2024-04-10T19:48:03.038Z</time>
      </trkpt>
      <trkpt lat="47.95845" lon="-3.81989">
        <ele>116.4</ele>
        <time>2024-04-10T19:48:06.792Z</time>
      </trkpt>
      <trkpt lat="47.95844" lon="-3.82004">
        <ele>116.4</ele>
        <time>2024-04-10T19:48:08.485Z</time>
      </trkpt>
      <trkpt lat="47.9584" lon="-3.82013">
        <ele>116.2</ele>
        <time>2024-04-10T19:48:09.440Z</time>
      </trkpt>
      <trkpt lat="47.95835" lon="-3.8202">
        <ele>116.1</ele>
        <time>2024-04-10T19:48:10.447Z</time>
      </trkpt>
      <trkpt lat="47.95828" lon="-3.82054">
        <ele>116.2</ele>
        <time>2024-04-10T19:48:14.608Z</time>
      </trkpt>
      <trkpt lat="47.95832" lon="-3.82075">
        <ele>116.7</ele>
        <time>2024-04-10T19:48:18.133Z</time>
      </trkpt>
      <trkpt lat="47.95842" lon="-3.82104">
        <ele>117.8</ele>
        <time>2024-04-10T19:48:24.555Z</time>
      </trkpt>
      <trkpt lat="47.95852" lon="-3.82144">
        <ele>119.1</ele>
        <time>2024-04-10T19:48:32.458Z</time>
      </trkpt>
      <trkpt lat="47.95854" lon="-3.82161">
        <ele>119.2</ele>
        <time>2024-04-10T19:48:34.568Z</time>
      </trkpt>
      <trkpt lat="47.95852" lon="-3.82185">
        <ele>119.8</ele>
        <time>2024-04-10T19:48:38.607Z</time>
      </trkpt>
      <trkpt lat="47.95847" lon="-3.82207">
        <ele>120.2</ele>
        <time>2024-04-10T19:48:42.011Z</time>
      </trkpt>
      <trkpt lat="47.9581" lon="-3.82306">
        <ele>120</ele>
        <time>2024-04-10T19:48:54.435Z</time>
      </trkpt>
      <trkpt lat="47.95785" lon="-3.82386">
        <ele>118.7</ele>
        <time>2024-04-10T19:49:02.599Z</time>
      </trkpt>
      <trkpt lat="47.95779" lon="-3.82408">
        <ele>117.6</ele>
        <time>2024-04-10T19:49:04.200Z</time>
      </trkpt>
      <trkpt lat="47.95768" lon="-3.82473">
        <ele>112.8</ele>
        <time>2024-04-10T19:49:08.719Z</time>
      </trkpt>
      <trkpt lat="47.95756" lon="-3.82574">
        <ele>112.8</ele>
        <time>2024-04-10T19:49:20.242Z</time>
      </trkpt>
      <trkpt lat="47.95757" lon="-3.82588">
        <ele>112.9</ele>
        <time>2024-04-10T19:49:21.998Z</time>
      </trkpt>
      <trkpt lat="47.95761" lon="-3.82605">
        <ele>114.4</ele>
        <time>2024-04-10T19:49:30.466Z</time>
      </trkpt>
      <trkpt lat="47.95764" lon="-3.82612">
        <ele>115</ele>
        <time>2024-04-10T19:49:33.905Z</time>
      </trkpt>
      <trkpt lat="47.95767" lon="-3.82618">
        <ele>115</ele>
        <time>2024-04-10T19:49:34.746Z</time>
      </trkpt>
      <trkpt lat="47.95808" lon="-3.82684">
        <ele>116</ele>
        <time>2024-04-10T19:49:46.691Z</time>
      </trkpt>
      <trkpt lat="47.95819" lon="-3.82704">
        <ele>116.7</ele>
        <time>2024-04-10T19:49:51.191Z</time>
      </trkpt>
      <trkpt lat="47.95847" lon="-3.82765">
        <ele>118</ele>
        <time>2024-04-10T19:50:02.092Z</time>
      </trkpt>
      <trkpt lat="47.95866" lon="-3.82802">
        <ele>118.9</ele>
        <time>2024-04-10T19:50:09.168Z</time>
      </trkpt>
      <trkpt lat="47.95875" lon="-3.82816">
        <ele>119</ele>
        <time>2024-04-10T19:50:11.518Z</time>
      </trkpt>
      <trkpt lat="47.95907" lon="-3.82858">
        <ele>119</ele>
        <time>2024-04-10T19:50:18.665Z</time>
      </trkpt>
      <trkpt lat="47.95927" lon="-3.82885">
        <ele>118.1</ele>
        <time>2024-04-10T19:50:22.067Z</time>
      </trkpt>
      <trkpt lat="47.95932" lon="-3.82916">
        <ele>117.6</ele>
        <time>2024-04-10T19:50:24.981Z</time>
      </trkpt>
      <trkpt lat="47.95926" lon="-3.82979">
        <ele>116.3</ele>
        <time>2024-04-10T19:50:30.479Z</time>
      </trkpt>
      <trkpt lat="47.95925" lon="-3.83003">
        <ele>116.1</ele>
        <time>2024-04-10T19:50:32.890Z</time>
      </trkpt>
      <trkpt lat="47.95926" lon="-3.83059">
        <ele>117.1</ele>
        <time>2024-04-10T19:50:41.186Z</time>
      </trkpt>
      <trkpt lat="47.95932" lon="-3.83117">
        <ele>117.7</ele>
        <time>2024-04-10T19:50:48.865Z</time>
      </trkpt>
      <trkpt lat="47.95936" lon="-3.83167">
        <ele>118.3</ele>
        <time>2024-04-10T19:50:55.632Z</time>
      </trkpt>
      <trkpt lat="47.9595" lon="-3.83281">
        <ele>119.8</ele>
        <time>2024-04-10T19:51:11.465Z</time>
      </trkpt>
      <trkpt lat="47.95953" lon="-3.83307">
        <ele>119.7</ele>
        <time>2024-04-10T19:51:14.277Z</time>
      </trkpt>
      <trkpt lat="47.95958" lon="-3.83324">
        <ele>119.9</ele>
        <time>2024-04-10T19:51:16.727Z</time>
      </trkpt>
      <trkpt lat="47.95964" lon="-3.83371">
        <ele>120.5</ele>
        <time>2024-04-10T19:51:23.222Z</time>
      </trkpt>
      <trkpt lat="47.95966" lon="-3.83396">
        <ele>121.1</ele>
        <time>2024-04-10T19:51:27.354Z</time>
      </trkpt>
      <trkpt lat="47.9598" lon="-3.83489">
        <ele>121.4</ele>
        <time>2024-04-10T19:51:38.559Z</time>
      </trkpt>
      <trkpt lat="47.95986" lon="-3.83531">
        <ele>122.1</ele>
        <time>2024-04-10T19:51:44.756Z</time>
      </trkpt>
      <trkpt lat="47.95992" lon="-3.83589">
        <ele>122.8</ele>
        <time>2024-04-10T19:51:52.645Z</time>
      </trkpt>
      <trkpt lat="47.96002" lon="-3.83826">
        <ele>126.9</ele>
        <time>2024-04-10T19:52:27.465Z</time>
      </trkpt>
      <trkpt lat="47.96006" lon="-3.83874">
        <ele>127.1</ele>
        <time>2024-04-10T19:52:33.234Z</time>
      </trkpt>
      <trkpt lat="47.9602" lon="-3.83907">
        <ele>128</ele>
        <time>2024-04-10T19:52:39.558Z</time>
      </trkpt>
      <trkpt lat="47.96033" lon="-3.83929">
        <ele>126.5</ele>
        <time>2024-04-10T19:52:41.536Z</time>
      </trkpt>
      <trkpt lat="47.9606" lon="-3.83965">
        <ele>124.3</ele>
        <time>2024-04-10T19:52:45.314Z</time>
      </trkpt>
      <trkpt lat="47.9607" lon="-3.83972">
        <ele>122.9</ele>
        <time>2024-04-10T19:52:46.426Z</time>
      </trkpt>
      <trkpt lat="47.96084" lon="-3.83979">
        <ele>120.8</ele>
        <time>2024-04-10T19:52:47.912Z</time>
      </trkpt>
      <trkpt lat="47.96091" lon="-3.83984">
        <ele>121.4</ele>
        <time>2024-04-10T19:52:51.180Z</time>
      </trkpt>
      <trkpt lat="47.96164" lon="-3.84026">
        <ele>122</ele>
        <time>2024-04-10T19:53:05.322Z</time>
      </trkpt>
      <trkpt lat="47.96174" lon="-3.84031">
        <ele>121.9</ele>
        <time>2024-04-10T19:53:06.943Z</time>
      </trkpt>
      <trkpt lat="47.96187" lon="-3.84037">
        <ele>121.9</ele>
        <time>2024-04-10T19:53:09.226Z</time>
      </trkpt>
      <trkpt lat="47.96189" lon="-3.84036">
        <ele>121.9</ele>
        <time>2024-04-10T19:53:09.579Z</time>
      </trkpt>
      <trkpt lat="47.96194" lon="-3.84039">
        <ele>122</ele>
        <time>2024-04-10T19:53:10.670Z</time>
      </trkpt>
      <trkpt lat="47.96196" lon="-3.84045">
        <ele>122.1</ele>
        <time>2024-04-10T19:53:11.615Z</time>
      </trkpt>
      <trkpt lat="47.96194" lon="-3.84054">
        <ele>122</ele>
        <time>2024-04-10T19:53:12.539Z</time>
      </trkpt>
      <trkpt lat="47.96198" lon="-3.8408">
        <ele>121.4</ele>
        <time>2024-04-10T19:53:14.790Z</time>
      </trkpt>
      <trkpt lat="47.96237" lon="-3.84177">
        <ele>121.7</ele>
        <time>2024-04-10T19:53:27.993Z</time>
      </trkpt>
      <trkpt lat="47.96301" lon="-3.84345">
        <ele>119.8</ele>
        <time>2024-04-10T19:53:46.999Z</time>
      </trkpt>
      <trkpt lat="47.96311" lon="-3.84365">
        <ele>119.7</ele>
        <time>2024-04-10T19:53:49.651Z</time>
      </trkpt>
      <trkpt lat="47.96322" lon="-3.8438">
        <ele>119.6</ele>
        <time>2024-04-10T19:53:51.999Z</time>
      </trkpt>
      <trkpt lat="47.96333" lon="-3.84382">
        <ele>119.5</ele>
        <time>2024-04-10T19:53:53.709Z</time>
      </trkpt>
      <trkpt lat="47.9634" lon="-3.8439">
        <ele>120</ele>
        <time>2024-04-10T19:53:56.522Z</time>
      </trkpt>
      <trkpt lat="47.96343" lon="-3.84399">
        <ele>120.2</ele>
        <time>2024-04-10T19:53:58.063Z</time>
      </trkpt>
      <trkpt lat="47.96343" lon="-3.84408">
        <ele>120.4</ele>
        <time>2024-04-10T19:53:59.500Z</time>
      </trkpt>
      <trkpt lat="47.96342" lon="-3.84412">
        <ele>120.6</ele>
        <time>2024-04-10T19:54:00.589Z</time>
      </trkpt>
      <trkpt lat="47.96348" lon="-3.84429">
        <ele>120.5</ele>
        <time>2024-04-10T19:54:02.597Z</time>
      </trkpt>
      <trkpt lat="47.96351" lon="-3.84453">
        <ele>120.6</ele>
        <time>2024-04-10T19:54:05.507Z</time>
      </trkpt>
      <trkpt lat="47.96362" lon="-3.84522">
        <ele>122.8</ele>
        <time>2024-04-10T19:54:18.775Z</time>
      </trkpt>
      <trkpt lat="47.9637" lon="-3.84599">
        <ele>123.7</ele>
        <time>2024-04-10T19:54:29.186Z</time>
      </trkpt>
      <trkpt lat="47.96371" lon="-3.8461">
        <ele>123.6</ele>
        <time>2024-04-10T19:54:30.289Z</time>
      </trkpt>
      <trkpt lat="47.96377" lon="-3.84657">
        <ele>124.4</ele>
        <time>2024-04-10T19:54:37.241Z</time>
      </trkpt>
      <trkpt lat="47.96381" lon="-3.84711">
        <ele>124.7</ele>
        <time>2024-04-10T19:54:43.855Z</time>
      </trkpt>
      <trkpt lat="47.96396" lon="-3.84835">
        <ele>124.7</ele>
        <time>2024-04-10T19:54:58.009Z</time>
      </trkpt>
      <trkpt lat="47.96405" lon="-3.84904">
        <ele>123.5</ele>
        <time>2024-04-10T19:55:04.327Z</time>
      </trkpt>
      <trkpt lat="47.96419" lon="-3.85029">
        <ele>125.9</ele>
        <time>2024-04-10T19:55:23.439Z</time>
      </trkpt>
      <trkpt lat="47.96424" lon="-3.85049">
        <ele>125.7</ele>
        <time>2024-04-10T19:55:25.551Z</time>
      </trkpt>
      <trkpt lat="47.96428" lon="-3.8505">
        <ele>125.6</ele>
        <time>2024-04-10T19:55:26.099Z</time>
      </trkpt>
      <trkpt lat="47.96435" lon="-3.85058">
        <ele>125.3</ele>
        <time>2024-04-10T19:55:27.206Z</time>
      </trkpt>
      <trkpt lat="47.96437" lon="-3.8507">
        <ele>125.3</ele>
        <time>2024-04-10T19:55:28.595Z</time>
      </trkpt>
      <trkpt lat="47.96436" lon="-3.85077">
        <ele>125.3</ele>
        <time>2024-04-10T19:55:29.399Z</time>
      </trkpt>
      <trkpt lat="47.96433" lon="-3.85084">
        <ele>125.4</ele>
        <time>2024-04-10T19:55:30.518Z</time>
      </trkpt>
      <trkpt lat="47.96428" lon="-3.85102">
        <ele>125.6</ele>
        <time>2024-04-10T19:55:33.069Z</time>
      </trkpt>
      <trkpt lat="47.96428" lon="-3.85119">
        <ele>125.6</ele>
        <time>2024-04-10T19:55:34.978Z</time>
      </trkpt>
      <trkpt lat="47.96443" lon="-3.85253">
        <ele>125.9</ele>
        <time>2024-04-10T19:55:50.730Z</time>
      </trkpt>
      <trkpt lat="47.96465" lon="-3.85405">
        <ele>125</ele>
        <time>2024-04-10T19:56:06.857Z</time>
      </trkpt>
      <trkpt lat="47.96474" lon="-3.85454">
        <ele>125.3</ele>
        <time>2024-04-10T19:56:13.078Z</time>
      </trkpt>
      <trkpt lat="47.96515" lon="-3.85621">
        <ele>124.7</ele>
        <time>2024-04-10T19:56:32.138Z</time>
      </trkpt>
      <trkpt lat="47.96544" lon="-3.85747">
        <ele>124.8</ele>
        <time>2024-04-10T19:56:47.264Z</time>
      </trkpt>
      <trkpt lat="47.96548" lon="-3.85773">
        <ele>124.1</ele>
        <time>2024-04-10T19:56:49.423Z</time>
      </trkpt>
      <trkpt lat="47.96555" lon="-3.85885">
        <ele>125</ele>
        <time>2024-04-10T19:57:03.642Z</time>
      </trkpt>
      <trkpt lat="47.9656" lon="-3.85949">
        <ele>125</ele>
        <time>2024-04-10T19:57:10.879Z</time>
      </trkpt>
      <trkpt lat="47.96583" lon="-3.86279">
        <ele>125</ele>
        <time>2024-04-10T19:57:48.146Z</time>
      </trkpt>
      <trkpt lat="47.96592" lon="-3.86367">
        <ele>125.6</ele>
        <time>2024-04-10T19:57:59.185Z</time>
      </trkpt>
      <trkpt lat="47.96624" lon="-3.86607">
        <ele>128</ele>
        <time>2024-04-10T19:58:30.994Z</time>
      </trkpt>
      <trkpt lat="47.96646" lon="-3.86757">
        <ele>126.7</ele>
        <time>2024-04-10T19:58:46.362Z</time>
      </trkpt>
      <trkpt lat="47.9668" lon="-3.8699">
        <ele>126</ele>
        <time>2024-04-10T19:59:12.069Z</time>
      </trkpt>
      <trkpt lat="47.96701" lon="-3.87124">
        <ele>127.1</ele>
        <time>2024-04-10T19:59:29.462Z</time>
      </trkpt>
      <trkpt lat="47.96722" lon="-3.87249">
        <ele>128</ele>
        <time>2024-04-10T19:59:45.501Z</time>
        <extensions>
          <visugpx:TrkExtension xmlns:visugpx="https://www.visugpx.com/editgpx/">
            <visugpx:node>14</visugpx:node>
            </visugpx:TrkExtension>
        </extensions>
      </trkpt>
      <trkpt lat="47.96781" lon="-3.87603">
        <ele>120.2</ele>
        <time>2024-04-10T20:00:16.666Z</time>
      </trkpt>
      <trkpt lat="47.96791" lon="-3.87678">
        <ele>117.4</ele>
        <time>2024-04-10T20:00:22.224Z</time>
      </trkpt>
      <trkpt lat="47.96821" lon="-3.8799">
        <ele>114</ele>
        <time>2024-04-10T20:00:52.837Z</time>
      </trkpt>
      <trkpt lat="47.96825" lon="-3.8806">
        <ele>114</ele>
        <time>2024-04-10T20:01:00.728Z</time>
      </trkpt>
      <trkpt lat="47.96824" lon="-3.8818">
        <ele>114.3</ele>
        <time>2024-04-10T20:01:14.700Z</time>
      </trkpt>
      <trkpt lat="47.96817" lon="-3.88401">
        <ele>111.4</ele>
        <time>2024-04-10T20:01:35.568Z</time>
      </trkpt>
      <trkpt lat="47.96814" lon="-3.88457">
        <ele>110.6</ele>
        <time>2024-04-10T20:01:40.793Z</time>
      </trkpt>
      <trkpt lat="47.9681" lon="-3.885">
        <ele>110.3</ele>
        <time>2024-04-10T20:01:45.228Z</time>
      </trkpt>
      <trkpt lat="47.96789" lon="-3.88655">
        <ele>109.2</ele>
        <time>2024-04-10T20:02:01.372Z</time>
      </trkpt>
      <trkpt lat="47.96779" lon="-3.88752">
        <ele>109</ele>
        <time>2024-04-10T20:02:12.084Z</time>
      </trkpt>
      <trkpt lat="47.96776" lon="-3.88803">
        <ele>108.9</ele>
        <time>2024-04-10T20:02:17.678Z</time>
      </trkpt>
      <trkpt lat="47.96763" lon="-3.8912">
        <ele>105.6</ele>
        <time>2024-04-10T20:02:48.681Z</time>
      </trkpt>
      <trkpt lat="47.96765" lon="-3.89202">
        <ele>102.1</ele>
        <time>2024-04-10T20:02:54.313Z</time>
      </trkpt>
      <trkpt lat="47.96785" lon="-3.89369">
        <ele>96.3</ele>
        <time>2024-04-10T20:03:06.943Z</time>
      </trkpt>
      <trkpt lat="47.96799" lon="-3.89474">
        <ele>93.8</ele>
        <time>2024-04-10T20:03:15.887Z</time>
      </trkpt>
      <trkpt lat="47.96805" lon="-3.89508">
        <ele>94.9</ele>
        <time>2024-04-10T20:03:22.496Z</time>
      </trkpt>
      <trkpt lat="47.96812" lon="-3.89539">
        <ele>95.2</ele>
        <time>2024-04-10T20:03:26.707Z</time>
      </trkpt>
      <trkpt lat="47.96827" lon="-3.89586">
        <ele>94.8</ele>
        <time>2024-04-10T20:03:31.971Z</time>
      </trkpt>
      <trkpt lat="47.9684" lon="-3.89621">
        <ele>95.8</ele>
        <time>2024-04-10T20:03:38.677Z</time>
      </trkpt>
      <trkpt lat="47.9688" lon="-3.89718">
        <ele>95.7</ele>
        <time>2024-04-10T20:03:51.314Z</time>
      </trkpt>
      <trkpt lat="47.96898" lon="-3.89767">
        <ele>96</ele>
        <time>2024-04-10T20:03:58.102Z</time>
      </trkpt>
      <trkpt lat="47.96916" lon="-3.89835">
        <ele>94.1</ele>
        <time>2024-04-10T20:04:04.035Z</time>
      </trkpt>
      <trkpt lat="47.96922" lon="-3.89873">
        <ele>94.1</ele>
        <time>2024-04-10T20:04:08.420Z</time>
      </trkpt>
      <trkpt lat="47.96925" lon="-3.89911">
        <ele>94.3</ele>
        <time>2024-04-10T20:04:13.058Z</time>
      </trkpt>
      <trkpt lat="47.96926" lon="-3.89965">
        <ele>94.1</ele>
        <time>2024-04-10T20:04:18.820Z</time>
      </trkpt>
      <trkpt lat="47.9692" lon="-3.90065">
        <ele>91</ele>
        <time>2024-04-10T20:04:26.551Z</time>
      </trkpt>
      <trkpt lat="47.9691" lon="-3.90195">
        <ele>90</ele>
        <time>2024-04-10T20:04:39.789Z</time>
      </trkpt>
      <trkpt lat="47.96901" lon="-3.90293">
        <ele>90.7</ele>
        <time>2024-04-10T20:04:52.117Z</time>
      </trkpt>
      <trkpt lat="47.96892" lon="-3.90399">
        <ele>94.6</ele>
        <time>2024-04-10T20:05:14.303Z</time>
      </trkpt>
      <trkpt lat="47.96882" lon="-3.90479">
        <ele>98.8</ele>
        <time>2024-04-10T20:05:37.178Z</time>
      </trkpt>
      <trkpt lat="47.96835" lon="-3.90815">
        <ele>106.2</ele>
        <time>2024-04-10T20:06:31.319Z</time>
      </trkpt>
      <trkpt lat="47.96824" lon="-3.90903">
        <ele>103</ele>
        <time>2024-04-10T20:06:37.881Z</time>
      </trkpt>
      <trkpt lat="47.96807" lon="-3.91022">
        <ele>107.5</ele>
        <time>2024-04-10T20:07:03.385Z</time>
      </trkpt>
      <trkpt lat="47.96801" lon="-3.91054">
        <ele>108.5</ele>
        <time>2024-04-10T20:07:09.495Z</time>
      </trkpt>
      <trkpt lat="47.96792" lon="-3.9109">
        <ele>109.5</ele>
        <time>2024-04-10T20:07:16.053Z</time>
      </trkpt>
      <trkpt lat="47.96779" lon="-3.91131">
        <ele>110.9</ele>
        <time>2024-04-10T20:07:24.514Z</time>
      </trkpt>
      <trkpt lat="47.96711" lon="-3.91304">
        <ele>114.4</ele>
        <time>2024-04-10T20:07:54.016Z</time>
      </trkpt>
      <trkpt lat="47.96671" lon="-3.91409">
        <ele>113.3</ele>
        <time>2024-04-10T20:08:06.006Z</time>
      </trkpt>
      <trkpt lat="47.96661" lon="-3.91442">
        <ele>113.2</ele>
        <time>2024-04-10T20:08:09.920Z</time>
      </trkpt>
      <trkpt lat="47.96645" lon="-3.91508">
        <ele>112.8</ele>
        <time>2024-04-10T20:08:17.208Z</time>
      </trkpt>
      <trkpt lat="47.96638" lon="-3.91551">
        <ele>113.1</ele>
        <time>2024-04-10T20:08:22.698Z</time>
      </trkpt>
      <trkpt lat="47.96628" lon="-3.91616">
        <ele>112.8</ele>
        <time>2024-04-10T20:08:29.735Z</time>
      </trkpt>
      <trkpt lat="47.96619" lon="-3.9171">
        <ele>113.4</ele>
        <time>2024-04-10T20:08:41.435Z</time>
      </trkpt>
      <trkpt lat="47.96605" lon="-3.91908">
        <ele>115.6</ele>
        <time>2024-04-10T20:09:07.825Z</time>
      </trkpt>
      <trkpt lat="47.96599" lon="-3.91983">
        <ele>115.9</ele>
        <time>2024-04-10T20:09:16.811Z</time>
      </trkpt>
      <trkpt lat="47.96565" lon="-3.92289">
        <ele>118</ele>
        <time>2024-04-10T20:09:55.291Z</time>
      </trkpt>
      <trkpt lat="47.96562" lon="-3.92341">
        <ele>118.2</ele>
        <time>2024-04-10T20:10:01.487Z</time>
      </trkpt>
      <trkpt lat="47.96563" lon="-3.92377">
        <ele>118.2</ele>
        <time>2024-04-10T20:10:05.534Z</time>
      </trkpt>
      <trkpt lat="47.96565" lon="-3.92427">
        <ele>118.9</ele>
        <time>2024-04-10T20:10:12.492Z</time>
      </trkpt>
      <trkpt lat="47.96578" lon="-3.92498">
        <ele>120.3</ele>
        <time>2024-04-10T20:10:23.607Z</time>
      </trkpt>
      <trkpt lat="47.96586" lon="-3.92524">
        <ele>120.7</ele>
        <time>2024-04-10T20:10:27.582Z</time>
      </trkpt>
      <trkpt lat="47.96608" lon="-3.92585">
        <ele>121.4</ele>
        <time>2024-04-10T20:10:36.630Z</time>
      </trkpt>
      <trkpt lat="47.9669" lon="-3.92795">
        <ele>120.6</ele>
        <time>2024-04-10T20:11:02.708Z</time>
      </trkpt>
      <trkpt lat="47.96703" lon="-3.92832">
        <ele>120.7</ele>
        <time>2024-04-10T20:11:07.565Z</time>
      </trkpt>
      <trkpt lat="47.96711" lon="-3.92862">
        <ele>120.6</ele>
        <time>2024-04-10T20:11:11.038Z</time>
      </trkpt>
      <trkpt lat="47.96719" lon="-3.92906">
        <ele>117.3</ele>
        <time>2024-04-10T20:11:14.111Z</time>
      </trkpt>
      <trkpt lat="47.96722" lon="-3.92956">
        <ele>115.6</ele>
        <time>2024-04-10T20:11:17.861Z</time>
      </trkpt>
      <trkpt lat="47.96724" lon="-3.92983">
        <ele>114.7</ele>
        <time>2024-04-10T20:11:19.905Z</time>
      </trkpt>
      <trkpt lat="47.96726" lon="-3.93006">
        <ele>113.9</ele>
        <time>2024-04-10T20:11:21.626Z</time>
      </trkpt>
      <trkpt lat="47.96727" lon="-3.93022">
        <ele>113.1</ele>
        <time>2024-04-10T20:11:22.709Z</time>
      </trkpt>
      <trkpt lat="47.96736" lon="-3.9319">
        <ele>107.3</ele>
        <time>2024-04-10T20:11:35.228Z</time>
      </trkpt>
      <trkpt lat="47.96736" lon="-3.93242">
        <ele>109</ele>
        <time>2024-04-10T20:11:45.266Z</time>
      </trkpt>
      <trkpt lat="47.96737" lon="-3.9326">
        <ele>109.5</ele>
        <time>2024-04-10T20:11:48.443Z</time>
      </trkpt>
      <trkpt lat="47.9674" lon="-3.93299">
        <ele>111.5</ele>
        <time>2024-04-10T20:11:59.329Z</time>
      </trkpt>
      <trkpt lat="47.9674" lon="-3.93309">
        <ele>112.1</ele>
        <time>2024-04-10T20:12:02.657Z</time>
      </trkpt>
      <trkpt lat="47.96744" lon="-3.93371">
        <ele>115</ele>
        <time>2024-04-10T20:12:18.455Z</time>
      </trkpt>
      <trkpt lat="47.96747" lon="-3.93437">
        <ele>117</ele>
        <time>2024-04-10T20:12:30.649Z</time>
      </trkpt>
      <trkpt lat="47.96748" lon="-3.93445">
        <ele>117</ele>
        <time>2024-04-10T20:12:31.563Z</time>
      </trkpt>
      <trkpt lat="47.96758" lon="-3.93603">
        <ele>118.3</ele>
        <time>2024-04-10T20:12:51.683Z</time>
      </trkpt>
      <trkpt lat="47.96764" lon="-3.9369">
        <ele>117</ele>
        <time>2024-04-10T20:12:59.755Z</time>
      </trkpt>
      <trkpt lat="47.96765" lon="-3.93698">
        <ele>117</ele>
        <time>2024-04-10T20:13:00.669Z</time>
      </trkpt>
      <trkpt lat="47.96767" lon="-3.93738">
        <ele>116.7</ele>
        <time>2024-04-10T20:13:04.735Z</time>
      </trkpt>
      <trkpt lat="47.96769" lon="-3.9377">
        <ele>116.1</ele>
        <time>2024-04-10T20:13:07.569Z</time>
      </trkpt>
      <trkpt lat="47.9677" lon="-3.93808">
        <ele>116.3</ele>
        <time>2024-04-10T20:13:12.181Z</time>
      </trkpt>
      <trkpt lat="47.9677" lon="-3.93813">
        <ele>116.4</ele>
        <time>2024-04-10T20:13:12.948Z</time>
      </trkpt>
      <trkpt lat="47.96771" lon="-3.93828">
        <ele>116.4</ele>
        <time>2024-04-10T20:13:14.641Z</time>
      </trkpt>
      <trkpt lat="47.96772" lon="-3.93834">
        <ele>116.4</ele>
        <time>2024-04-10T20:13:15.336Z</time>
      </trkpt>
      <trkpt lat="47.96772" lon="-3.93836">
        <ele>116.4</ele>
        <time>2024-04-10T20:13:15.560Z</time>
      </trkpt>
      <trkpt lat="47.96769" lon="-3.93839">
        <ele>116.6</ele>
        <time>2024-04-10T20:13:16.693Z</time>
      </trkpt>
      <trkpt lat="47.9676" lon="-3.93894">
        <ele>117.2</ele>
        <time>2024-04-10T20:13:24.144Z</time>
      </trkpt>
      <trkpt lat="47.96752" lon="-3.93958">
        <ele>118.5</ele>
        <time>2024-04-10T20:13:34.136Z</time>
      </trkpt>
      <trkpt lat="47.96743" lon="-3.94012">
        <ele>120</ele>
        <time>2024-04-10T20:13:43.795Z</time>
      </trkpt>
      <trkpt lat="47.96741" lon="-3.94038">
        <ele>120</ele>
        <time>2024-04-10T20:13:46.734Z</time>
      </trkpt>
      <trkpt lat="47.96742" lon="-3.94053">
        <ele>120</ele>
        <time>2024-04-10T20:13:48.427Z</time>
      </trkpt>
      <trkpt lat="47.96746" lon="-3.9407">
        <ele>120</ele>
        <time>2024-04-10T20:13:50.451Z</time>
      </trkpt>
      <trkpt lat="47.96749" lon="-3.94071">
        <ele>120</ele>
        <time>2024-04-10T20:13:50.967Z</time>
      </trkpt>
      <trkpt lat="47.96751" lon="-3.94076">
        <ele>120</ele>
        <time>2024-04-10T20:13:51.621Z</time>
      </trkpt>
      <trkpt lat="47.96752" lon="-3.94084">
        <ele>120</ele>
        <time>2024-04-10T20:13:52.535Z</time>
      </trkpt>
      <trkpt lat="47.96748" lon="-3.94089">
        <ele>120</ele>
        <time>2024-04-10T20:13:53.410Z</time>
      </trkpt>
      <trkpt lat="47.96744" lon="-3.9409">
        <ele>119.9</ele>
        <time>2024-04-10T20:13:53.958Z</time>
      </trkpt>
      <trkpt lat="47.96731" lon="-3.94115">
        <ele>119.3</ele>
        <time>2024-04-10T20:13:56.740Z</time>
      </trkpt>
      <trkpt lat="47.9672" lon="-3.94152">
        <ele>118.4</ele>
        <time>2024-04-10T20:14:00.165Z</time>
      </trkpt>
      <trkpt lat="47.96707" lon="-3.94253">
        <ele>114.9</ele>
        <time>2024-04-10T20:14:07.834Z</time>
      </trkpt>
      <trkpt lat="47.96709" lon="-3.94295">
        <ele>113.9</ele>
        <time>2024-04-10T20:14:11.336Z</time>
      </trkpt>
      <trkpt lat="47.96722" lon="-3.94383">
        <ele>114</ele>
        <time>2024-04-10T20:14:21.619Z</time>
      </trkpt>
      <trkpt lat="47.96741" lon="-3.94511">
        <ele>118.1</ele>
        <time>2024-04-10T20:14:46.260Z</time>
      </trkpt>
      <trkpt lat="47.96774" lon="-3.94723">
        <ele>124.9</ele>
        <time>2024-04-10T20:15:27.144Z</time>
      </trkpt>
      <trkpt lat="47.96778" lon="-3.94757">
        <ele>125</ele>
        <time>2024-04-10T20:15:31.187Z</time>
      </trkpt>
      <trkpt lat="47.9678" lon="-3.94799">
        <ele>125.1</ele>
        <time>2024-04-10T20:15:36.080Z</time>
      </trkpt>
      <trkpt lat="47.96783" lon="-3.94952">
        <ele>122.1</ele>
        <time>2024-04-10T20:15:49.429Z</time>
      </trkpt>
      <trkpt lat="47.96788" lon="-3.94999">
        <ele>120.8</ele>
        <time>2024-04-10T20:15:53.235Z</time>
      </trkpt>
      <trkpt lat="47.96793" lon="-3.95028">
        <ele>120.1</ele>
        <time>2024-04-10T20:15:55.736Z</time>
      </trkpt>
      <trkpt lat="47.96804" lon="-3.95068">
        <ele>120.4</ele>
        <time>2024-04-10T20:16:01.114Z</time>
      </trkpt>
      <trkpt lat="47.96813" lon="-3.95093">
        <ele>120.2</ele>
        <time>2024-04-10T20:16:04.008Z</time>
      </trkpt>
      <trkpt lat="47.96832" lon="-3.95138">
        <ele>120.9</ele>
        <time>2024-04-10T20:16:11.300Z</time>
      </trkpt>
      <trkpt lat="47.96839" lon="-3.95153">
        <ele>120.7</ele>
        <time>2024-04-10T20:16:13.072Z</time>
      </trkpt>
      <trkpt lat="47.96886" lon="-3.95254">
        <ele>118.8</ele>
        <time>2024-04-10T20:16:24.344Z</time>
      </trkpt>
      <trkpt lat="47.96907" lon="-3.95303">
        <ele>117.1</ele>
        <time>2024-04-10T20:16:28.902Z</time>
      </trkpt>
      <trkpt lat="47.96919" lon="-3.95338">
        <ele>115.8</ele>
        <time>2024-04-10T20:16:31.863Z</time>
      </trkpt>
      <trkpt lat="47.96923" lon="-3.95358">
        <ele>115.1</ele>
        <time>2024-04-10T20:16:33.427Z</time>
      </trkpt>
      <trkpt lat="47.9693" lon="-3.954">
        <ele>114.3</ele>
        <time>2024-04-10T20:16:37.252Z</time>
      </trkpt>
      <trkpt lat="47.9697" lon="-3.95712">
        <ele>107.4</ele>
        <time>2024-04-10T20:17:04.283Z</time>
      </trkpt>
      <trkpt lat="47.96975" lon="-3.95759">
        <ele>106.9</ele>
        <time>2024-04-10T20:17:08.922Z</time>
      </trkpt>
      <trkpt lat="47.96977" lon="-3.95848">
        <ele>105.4</ele>
        <time>2024-04-10T20:17:16.945Z</time>
      </trkpt>
      <trkpt lat="47.96974" lon="-3.9599">
        <ele>102.4</ele>
        <time>2024-04-10T20:17:29.118Z</time>
      </trkpt>
      <trkpt lat="47.96972" lon="-3.96232">
        <ele>98</ele>
        <time>2024-04-10T20:17:50.579Z</time>
      </trkpt>
      <trkpt lat="47.9697" lon="-3.96358">
        <ele>97.1</ele>
        <time>2024-04-10T20:18:03.414Z</time>
      </trkpt>
      <trkpt lat="47.96972" lon="-3.9639">
        <ele>97</ele>
        <time>2024-04-10T20:18:06.870Z</time>
      </trkpt>
      <trkpt lat="47.9698" lon="-3.96458">
        <ele>98.1</ele>
        <time>2024-04-10T20:18:16.771Z</time>
      </trkpt>
      <trkpt lat="47.97003" lon="-3.96619">
        <ele>97.7</ele>
        <time>2024-04-10T20:18:34.640Z</time>
      </trkpt>
      <trkpt lat="47.97014" lon="-3.96715">
        <ele>96.9</ele>
        <time>2024-04-10T20:18:44.419Z</time>
      </trkpt>
      <trkpt lat="47.97017" lon="-3.96761">
        <ele>97</ele>
        <time>2024-04-10T20:18:49.774Z</time>
      </trkpt>
      <trkpt lat="47.9702" lon="-3.96915">
        <ele>98.7</ele>
        <time>2024-04-10T20:19:10.188Z</time>
      </trkpt>
      <trkpt lat="47.9702" lon="-3.97192">
        <ele>94.7</ele>
        <time>2024-04-10T20:19:35.885Z</time>
      </trkpt>
      <trkpt lat="47.97024" lon="-3.97261">
        <ele>92.5</ele>
        <time>2024-04-10T20:19:41.169Z</time>
      </trkpt>
      <trkpt lat="47.97037" lon="-3.97374">
        <ele>89.7</ele>
        <time>2024-04-10T20:19:50.633Z</time>
      </trkpt>
      <trkpt lat="47.97045" lon="-3.97431">
        <ele>89.4</ele>
        <time>2024-04-10T20:19:56.724Z</time>
      </trkpt>
      <trkpt lat="47.97059" lon="-3.97517">
        <ele>89.1</ele>
        <time>2024-04-10T20:20:06.204Z</time>
      </trkpt>
      <trkpt lat="47.97104" lon="-3.97776">
        <ele>86.5</ele>
        <time>2024-04-10T20:20:32.550Z</time>
      </trkpt>
      <trkpt lat="47.97111" lon="-3.97829">
        <ele>87</ele>
        <time>2024-04-10T20:20:39.512Z</time>
      </trkpt>
      <trkpt lat="47.97114" lon="-3.97867">
        <ele>87.7</ele>
        <time>2024-04-10T20:20:45.219Z</time>
      </trkpt>
      <trkpt lat="47.97115" lon="-3.97909">
        <ele>87.1</ele>
        <time>2024-04-10T20:20:49.126Z</time>
      </trkpt>
      <trkpt lat="47.97114" lon="-3.98107">
        <ele>90.2</ele>
        <time>2024-04-10T20:21:17.391Z</time>
      </trkpt>
      <trkpt lat="47.97115" lon="-3.98152">
        <ele>91.2</ele>
        <time>2024-04-10T20:21:24.573Z</time>
      </trkpt>
      <trkpt lat="47.97117" lon="-3.98188">
        <ele>91.6</ele>
        <time>2024-04-10T20:21:29.363Z</time>
      </trkpt>
      <trkpt lat="47.97121" lon="-3.98219">
        <ele>92.1</ele>
        <time>2024-04-10T20:21:33.883Z</time>
        <extensions>
          <visugpx:TrkExtension xmlns:visugpx="https://www.visugpx.com/editgpx/">
            <visugpx:node>15</visugpx:node>
            </visugpx:TrkExtension>
        </extensions>
      </trkpt>
      <trkpt lat="47.97132" lon="-3.98306">
        <ele>92.5</ele>
        <time>2024-04-10T20:21:44.501Z</time>
      </trkpt>
      <trkpt lat="47.97142" lon="-3.98358">
        <ele>93.1</ele>
        <time>2024-04-10T20:21:51.676Z</time>
      </trkpt>
      <trkpt lat="47.97161" lon="-3.98434">
        <ele>90.8</ele>
        <time>2024-04-10T20:21:58.091Z</time>
      </trkpt>
      <trkpt lat="47.97246" lon="-3.9875">
        <ele>89.1</ele>
        <time>2024-04-10T20:22:33.781Z</time>
      </trkpt>
      <trkpt lat="47.97297" lon="-3.98934">
        <ele>90.9</ele>
        <time>2024-04-10T20:22:59.357Z</time>
      </trkpt>
      <trkpt lat="47.97346" lon="-3.99125">
        <ele>86.4</ele>
        <time>2024-04-10T20:23:16.705Z</time>
      </trkpt>
      <trkpt lat="47.97453" lon="-3.9956">
        <ele>84.8</ele>
        <time>2024-04-10T20:24:06.301Z</time>
      </trkpt>
      <trkpt lat="47.97492" lon="-3.9972">
        <ele>87.7</ele>
        <time>2024-04-10T20:24:31.166Z</time>
      </trkpt>
      <trkpt lat="47.975" lon="-3.99751">
        <ele>86</ele>
        <time>2024-04-10T20:24:33.405Z</time>
      </trkpt>
      <trkpt lat="47.97513" lon="-3.99789">
        <ele>86.3</ele>
        <time>2024-04-10T20:24:38.719Z</time>
      </trkpt>
      <trkpt lat="47.97517" lon="-3.99795">
        <ele>86.2</ele>
        <time>2024-04-10T20:24:39.530Z</time>
      </trkpt>
      <trkpt lat="47.97517" lon="-3.99799">
        <ele>86.2</ele>
        <time>2024-04-10T20:24:39.980Z</time>
      </trkpt>
      <trkpt lat="47.97518" lon="-3.99814">
        <ele>86.7</ele>
        <time>2024-04-10T20:24:42.916Z</time>
      </trkpt>
      <trkpt lat="47.9752" lon="-3.99826">
        <ele>87</ele>
        <time>2024-04-10T20:24:44.961Z</time>
      </trkpt>
      <trkpt lat="47.97533" lon="-3.99898">
        <ele>88.5</ele>
        <time>2024-04-10T20:24:56.433Z</time>
      </trkpt>
      <trkpt lat="47.97537" lon="-3.99945">
        <ele>90.7</ele>
        <time>2024-04-10T20:25:08.420Z</time>
      </trkpt>
      <trkpt lat="47.97538" lon="-3.99954">
        <ele>90.6</ele>
        <time>2024-04-10T20:25:09.304Z</time>
      </trkpt>
      <trkpt lat="47.97542" lon="-3.99971">
        <ele>90.5</ele>
        <time>2024-04-10T20:25:11.178Z</time>
      </trkpt>
      <trkpt lat="47.97546" lon="-3.99981">
        <ele>90.7</ele>
        <time>2024-04-10T20:25:12.883Z</time>
      </trkpt>
      <trkpt lat="47.9755" lon="-3.99986">
        <ele>90.7</ele>
        <time>2024-04-10T20:25:13.758Z</time>
      </trkpt>
      <trkpt lat="47.97553" lon="-3.99996">
        <ele>90.9</ele>
        <time>2024-04-10T20:25:15.391Z</time>
      </trkpt>
      <trkpt lat="47.97554" lon="-4.00002">
        <ele>91.1</ele>
        <time>2024-04-10T20:25:16.577Z</time>
      </trkpt>
      <trkpt lat="47.97558" lon="-4.00025">
        <ele>90.9</ele>
        <time>2024-04-10T20:25:18.956Z</time>
      </trkpt>
      <trkpt lat="47.97571" lon="-4.00076">
        <ele>91.3</ele>
        <time>2024-04-10T20:25:25.783Z</time>
      </trkpt>
      <trkpt lat="47.97576" lon="-4.00104">
        <ele>91.5</ele>
        <time>2024-04-10T20:25:29.384Z</time>
      </trkpt>
      <trkpt lat="47.97588" lon="-4.00166">
        <ele>91</ele>
        <time>2024-04-10T20:25:35.903Z</time>
      </trkpt>
      <trkpt lat="47.97618" lon="-4.00326">
        <ele>89.4</ele>
        <time>2024-04-10T20:25:52.280Z</time>
      </trkpt>
      <trkpt lat="47.97638" lon="-4.00417">
        <ele>87</ele>
        <time>2024-04-10T20:26:00.129Z</time>
      </trkpt>
      <trkpt lat="47.97654" lon="-4.00485">
        <ele>85.4</ele>
        <time>2024-04-10T20:26:06.228Z</time>
      </trkpt>
      <trkpt lat="47.97672" lon="-4.00554">
        <ele>87</ele>
        <time>2024-04-10T20:26:17.917Z</time>
      </trkpt>
      <trkpt lat="47.97676" lon="-4.00572">
        <ele>87</ele>
        <time>2024-04-10T20:26:20.047Z</time>
      </trkpt>
      <trkpt lat="47.97715" lon="-4.00718">
        <ele>92</ele>
        <time>2024-04-10T20:26:49.887Z</time>
      </trkpt>
      <trkpt lat="47.97737" lon="-4.00799">
        <ele>92</ele>
        <time>2024-04-10T20:26:59.703Z</time>
      </trkpt>
      <trkpt lat="47.97781" lon="-4.00941">
        <ele>93.1</ele>
        <time>2024-04-10T20:27:19.187Z</time>
      </trkpt>
      <trkpt lat="47.9779" lon="-4.00958">
        <ele>93</ele>
        <time>2024-04-10T20:27:21.470Z</time>
      </trkpt>
      <trkpt lat="47.97796" lon="-4.00963">
        <ele>92.8</ele>
        <time>2024-04-10T20:27:22.366Z</time>
      </trkpt>
      <trkpt lat="47.978" lon="-4.00966">
        <ele>92.6</ele>
        <time>2024-04-10T20:27:22.886Z</time>
      </trkpt>
      <trkpt lat="47.97805" lon="-4.00976">
        <ele>92</ele>
        <time>2024-04-10T20:27:23.727Z</time>
      </trkpt>
      <trkpt lat="47.97807" lon="-4.00983">
        <ele>92</ele>
        <time>2024-04-10T20:27:24.582Z</time>
      </trkpt>
      <trkpt lat="47.97806" lon="-4.00989">
        <ele>92</ele>
        <time>2024-04-10T20:27:25.276Z</time>
      </trkpt>
      <trkpt lat="47.97802" lon="-4.01002">
        <ele>92</ele>
        <time>2024-04-10T20:27:26.883Z</time>
      </trkpt>
      <trkpt lat="47.97799" lon="-4.01005">
        <ele>92</ele>
        <time>2024-04-10T20:27:27.488Z</time>
      </trkpt>
      <trkpt lat="47.97789" lon="-4.01022">
        <ele>92</ele>
        <time>2024-04-10T20:27:30.030Z</time>
      </trkpt>
      <trkpt lat="47.97787" lon="-4.01033">
        <ele>91.7</ele>
        <time>2024-04-10T20:27:30.951Z</time>
      </trkpt>
      <trkpt lat="47.97787" lon="-4.01048">
        <ele>90.8</ele>
        <time>2024-04-10T20:27:31.962Z</time>
      </trkpt>
      <trkpt lat="47.97791" lon="-4.01062">
        <ele>89.4</ele>
        <time>2024-04-10T20:27:32.987Z</time>
      </trkpt>
      <trkpt lat="47.978" lon="-4.01145">
        <ele>86.4</ele>
        <time>2024-04-10T20:27:39.153Z</time>
      </trkpt>
      <trkpt lat="47.97804" lon="-4.01181">
        <ele>88.4</ele>
        <time>2024-04-10T20:27:50.099Z</time>
      </trkpt>
      <trkpt lat="47.97814" lon="-4.01245">
        <ele>86.7</ele>
        <time>2024-04-10T20:27:55.437Z</time>
      </trkpt>
      <trkpt lat="47.9786" lon="-4.01481">
        <ele>87.9</ele>
        <time>2024-04-10T20:28:25.070Z</time>
      </trkpt>
      <trkpt lat="47.97864" lon="-4.01494">
        <ele>88</ele>
        <time>2024-04-10T20:28:26.851Z</time>
      </trkpt>
      <trkpt lat="47.97878" lon="-4.01514">
        <ele>88</ele>
        <time>2024-04-10T20:28:30.100Z</time>
      </trkpt>
      <trkpt lat="47.97887" lon="-4.01527">
        <ele>88</ele>
        <time>2024-04-10T20:28:32.200Z</time>
      </trkpt>
      <trkpt lat="47.97896" lon="-4.01552">
        <ele>88.2</ele>
        <time>2024-04-10T20:28:35.736Z</time>
      </trkpt>
      <trkpt lat="47.97918" lon="-4.01569">
        <ele>89</ele>
        <time>2024-04-10T20:28:41.577Z</time>
      </trkpt>
      <trkpt lat="47.97963" lon="-4.01584">
        <ele>90.7</ele>
        <time>2024-04-10T20:28:53.053Z</time>
      </trkpt>
      <trkpt lat="47.97972" lon="-4.0159">
        <ele>91</ele>
        <time>2024-04-10T20:28:55.328Z</time>
      </trkpt>
      <trkpt lat="47.97986" lon="-4.01603">
        <ele>91</ele>
        <time>2024-04-10T20:28:58.093Z</time>
      </trkpt>
      <trkpt lat="47.97994" lon="-4.01615">
        <ele>91.1</ele>
        <time>2024-04-10T20:29:00.166Z</time>
      </trkpt>
      <trkpt lat="47.98005" lon="-4.01635">
        <ele>91.9</ele>
        <time>2024-04-10T20:29:04.997Z</time>
      </trkpt>
      <trkpt lat="47.98036" lon="-4.0172">
        <ele>93.3</ele>
        <time>2024-04-10T20:29:18.546Z</time>
      </trkpt>
      <trkpt lat="47.98046" lon="-4.01757">
        <ele>93.7</ele>
        <time>2024-04-10T20:29:23.749Z</time>
      </trkpt>
      <trkpt lat="47.98058" lon="-4.01816">
        <ele>93.7</ele>
        <time>2024-04-10T20:29:30.673Z</time>
      </trkpt>
      <trkpt lat="47.98066" lon="-4.01891">
        <ele>93</ele>
        <time>2024-04-10T20:29:38.198Z</time>
      </trkpt>
      <trkpt lat="47.98069" lon="-4.01947">
        <ele>91.4</ele>
        <time>2024-04-10T20:29:42.633Z</time>
      </trkpt>
      <trkpt lat="47.98072" lon="-4.02004">
        <ele>91</ele>
        <time>2024-04-10T20:29:48.466Z</time>
      </trkpt>
      <trkpt lat="47.98078" lon="-4.02172">
        <ele>85.8</ele>
        <time>2024-04-10T20:30:01.413Z</time>
      </trkpt>
      <trkpt lat="47.98079" lon="-4.02183">
        <ele>85.3</ele>
        <time>2024-04-10T20:30:02.161Z</time>
      </trkpt>
      <trkpt lat="47.9808" lon="-4.0223">
        <ele>84.5</ele>
        <time>2024-04-10T20:30:06.388Z</time>
      </trkpt>
      <trkpt lat="47.9808" lon="-4.02239">
        <ele>84.2</ele>
        <time>2024-04-10T20:30:07.064Z</time>
      </trkpt>
      <trkpt lat="47.98086" lon="-4.02382">
        <ele>82.4</ele>
        <time>2024-04-10T20:30:20.666Z</time>
      </trkpt>
      <trkpt lat="47.98095" lon="-4.02583">
        <ele>77.9</ele>
        <time>2024-04-10T20:30:37.684Z</time>
      </trkpt>
      <trkpt lat="47.98103" lon="-4.02608">
        <ele>75.4</ele>
        <time>2024-04-10T20:30:39.551Z</time>
      </trkpt>
      <trkpt lat="47.98112" lon="-4.02617">
        <ele>74.9</ele>
        <time>2024-04-10T20:30:40.796Z</time>
      </trkpt>
      <trkpt lat="47.98114" lon="-4.02627">
        <ele>74.8</ele>
        <time>2024-04-10T20:30:41.825Z</time>
      </trkpt>
      <trkpt lat="47.98112" lon="-4.02642">
        <ele>74.1</ele>
        <time>2024-04-10T20:30:42.855Z</time>
      </trkpt>
      <trkpt lat="47.98106" lon="-4.02652">
        <ele>74</ele>
        <time>2024-04-10T20:30:44.217Z</time>
      </trkpt>
      <trkpt lat="47.98101" lon="-4.02679">
        <ele>73.3</ele>
        <time>2024-04-10T20:30:46.514Z</time>
      </trkpt>
      <trkpt lat="47.98106" lon="-4.02765">
        <ele>70.5</ele>
        <time>2024-04-10T20:30:53.054Z</time>
      </trkpt>
      <trkpt lat="47.9811" lon="-4.02794">
        <ele>69.4</ele>
        <time>2024-04-10T20:30:55.194Z</time>
      </trkpt>
      <trkpt lat="47.98112" lon="-4.02822">
        <ele>68.4</ele>
        <time>2024-04-10T20:30:57.262Z</time>
      </trkpt>
      <trkpt lat="47.98114" lon="-4.0286">
        <ele>66.7</ele>
        <time>2024-04-10T20:30:59.831Z</time>
      </trkpt>
      <trkpt lat="47.98114" lon="-4.02914">
        <ele>65.1</ele>
        <time>2024-04-10T20:31:04.043Z</time>
      </trkpt>
      <trkpt lat="47.9812" lon="-4.0303">
        <ele>65.4</ele>
        <time>2024-04-10T20:31:17.601Z</time>
      </trkpt>
      <trkpt lat="47.98123" lon="-4.03109">
        <ele>67</ele>
        <time>2024-04-10T20:31:29.795Z</time>
      </trkpt>
      <trkpt lat="47.98122" lon="-4.0329">
        <ele>68.8</ele>
        <time>2024-04-10T20:31:53.368Z</time>
      </trkpt>
      <trkpt lat="47.98122" lon="-4.03334">
        <ele>67.4</ele>
        <time>2024-04-10T20:31:56.722Z</time>
      </trkpt>
      <trkpt lat="47.98132" lon="-4.03364">
        <ele>66</ele>
        <time>2024-04-10T20:31:59.040Z</time>
      </trkpt>
      <trkpt lat="47.98146" lon="-4.03369">
        <ele>66.6</ele>
        <time>2024-04-10T20:32:02.837Z</time>
      </trkpt>
      <trkpt lat="47.98158" lon="-4.0338">
        <ele>67.1</ele>
        <time>2024-04-10T20:32:06.285Z</time>
      </trkpt>
      <trkpt lat="47.98166" lon="-4.03396">
        <ele>67</ele>
        <time>2024-04-10T20:32:08.377Z</time>
      </trkpt>
      <trkpt lat="47.98172" lon="-4.03418">
        <ele>67.1</ele>
        <time>2024-04-10T20:32:11.213Z</time>
      </trkpt>
      <trkpt lat="47.98172" lon="-4.0343">
        <ele>66.7</ele>
        <time>2024-04-10T20:32:12.114Z</time>
      </trkpt>
      <trkpt lat="47.98169" lon="-4.03453">
        <ele>66.1</ele>
        <time>2024-04-10T20:32:14.022Z</time>
      </trkpt>
      <trkpt lat="47.98166" lon="-4.03464">
        <ele>66</ele>
        <time>2024-04-10T20:32:15.211Z</time>
      </trkpt>
      <trkpt lat="47.9818" lon="-4.03549">
        <ele>65.1</ele>
        <time>2024-04-10T20:32:23.766Z</time>
      </trkpt>
      <trkpt lat="47.98204" lon="-4.03682">
        <ele>65.7</ele>
        <time>2024-04-10T20:32:40.242Z</time>
      </trkpt>
      <trkpt lat="47.98209" lon="-4.03726">
        <ele>66.1</ele>
        <time>2024-04-10T20:32:45.966Z</time>
      </trkpt>
      <trkpt lat="47.98211" lon="-4.03766">
        <ele>67.5</ele>
        <time>2024-04-10T20:32:54.041Z</time>
      </trkpt>
      <trkpt lat="47.98212" lon="-4.03803">
        <ele>68.8</ele>
        <time>2024-04-10T20:33:01.526Z</time>
      </trkpt>
      <trkpt lat="47.98219" lon="-4.03908">
        <ele>71.4</ele>
        <time>2024-04-10T20:33:19.092Z</time>
      </trkpt>
      <trkpt lat="47.98229" lon="-4.0398">
        <ele>72.9</ele>
        <time>2024-04-10T20:33:30.459Z</time>
      </trkpt>
      <trkpt lat="47.98236" lon="-4.04014">
        <ele>73.7</ele>
        <time>2024-04-10T20:33:36.160Z</time>
      </trkpt>
      <trkpt lat="47.9825" lon="-4.04052">
        <ele>73.1</ele>
        <time>2024-04-10T20:33:40.214Z</time>
      </trkpt>
      <trkpt lat="47.98259" lon="-4.04073">
        <ele>73</ele>
        <time>2024-04-10T20:33:42.861Z</time>
      </trkpt>
      <trkpt lat="47.98269" lon="-4.04091">
        <ele>73.1</ele>
        <time>2024-04-10T20:33:45.656Z</time>
      </trkpt>
      <trkpt lat="47.98286" lon="-4.04113">
        <ele>73.5</ele>
        <time>2024-04-10T20:33:50.169Z</time>
      </trkpt>
      <trkpt lat="47.9834" lon="-4.04162">
        <ele>74.2</ele>
        <time>2024-04-10T20:34:01.991Z</time>
      </trkpt>
      <trkpt lat="47.98351" lon="-4.04171">
        <ele>74.5</ele>
        <time>2024-04-10T20:34:04.681Z</time>
      </trkpt>
      <trkpt lat="47.98421" lon="-4.04235">
        <ele>76.2</ele>
        <time>2024-04-10T20:34:21.676Z</time>
      </trkpt>
      <trkpt lat="47.98431" lon="-4.04244">
        <ele>76.6</ele>
        <time>2024-04-10T20:34:24.493Z</time>
      </trkpt>
      <trkpt lat="47.98495" lon="-4.04315">
        <ele>78.8</ele>
        <time>2024-04-10T20:34:42.308Z</time>
      </trkpt>
      <trkpt lat="47.9853" lon="-4.04347">
        <ele>80</ele>
        <time>2024-04-10T20:34:51.651Z</time>
      </trkpt>
      <trkpt lat="47.98649" lon="-4.04456">
        <ele>79.7</ele>
        <time>2024-04-10T20:35:14.596Z</time>
      </trkpt>
      <trkpt lat="47.98667" lon="-4.04472">
        <ele>79</ele>
        <time>2024-04-10T20:35:17.238Z</time>
      </trkpt>
      <trkpt lat="47.9868" lon="-4.04488">
        <ele>78.6</ele>
        <time>2024-04-10T20:35:19.531Z</time>
      </trkpt>
      <trkpt lat="47.98692" lon="-4.04508">
        <ele>78.5</ele>
        <time>2024-04-10T20:35:22.394Z</time>
      </trkpt>
      <trkpt lat="47.98705" lon="-4.04535">
        <ele>78.1</ele>
        <time>2024-04-10T20:35:25.572Z</time>
      </trkpt>
      <trkpt lat="47.98721" lon="-4.04576">
        <ele>78.1</ele>
        <time>2024-04-10T20:35:30.901Z</time>
      </trkpt>
      <trkpt lat="47.98727" lon="-4.04589">
        <ele>77.7</ele>
        <time>2024-04-10T20:35:32.191Z</time>
      </trkpt>
      <trkpt lat="47.9874" lon="-4.04624">
        <ele>77.6</ele>
        <time>2024-04-10T20:35:36.530Z</time>
      </trkpt>
      <trkpt lat="47.98749" lon="-4.04661">
        <ele>77.1</ele>
        <time>2024-04-10T20:35:40.261Z</time>
      </trkpt>
      <trkpt lat="47.98756" lon="-4.04705">
        <ele>76.2</ele>
        <time>2024-04-10T20:35:44.189Z</time>
      </trkpt>
      <trkpt lat="47.9876" lon="-4.04744">
        <ele>74.8</ele>
        <time>2024-04-10T20:35:47.087Z</time>
      </trkpt>
      <trkpt lat="47.98766" lon="-4.04818">
        <ele>74</ele>
        <time>2024-04-10T20:35:54.329Z</time>
      </trkpt>
      <trkpt lat="47.98767" lon="-4.04838">
        <ele>74.1</ele>
        <time>2024-04-10T20:35:56.750Z</time>
      </trkpt>
      <trkpt lat="47.98765" lon="-4.04864">
        <ele>73.8</ele>
        <time>2024-04-10T20:35:59.269Z</time>
      </trkpt>
      <trkpt lat="47.98758" lon="-4.04894">
        <ele>73.2</ele>
        <time>2024-04-10T20:36:02.062Z</time>
      </trkpt>
      <trkpt lat="47.98735" lon="-4.04961">
        <ele>72.9</ele>
        <time>2024-04-10T20:36:10.059Z</time>
      </trkpt>
      <trkpt lat="47.98727" lon="-4.04991">
        <ele>71.4</ele>
        <time>2024-04-10T20:36:12.235Z</time>
      </trkpt>
      <trkpt lat="47.98724" lon="-4.05006">
        <ele>71.2</ele>
        <time>2024-04-10T20:36:13.717Z</time>
      </trkpt>
      <trkpt lat="47.98723" lon="-4.05029">
        <ele>70.8</ele>
        <time>2024-04-10T20:36:15.780Z</time>
      </trkpt>
      <trkpt lat="47.98724" lon="-4.0504">
        <ele>70.8</ele>
        <time>2024-04-10T20:36:17.027Z</time>
      </trkpt>
      <trkpt lat="47.98732" lon="-4.05063">
        <ele>69.1</ele>
        <time>2024-04-10T20:36:18.773Z</time>
      </trkpt>
      <trkpt lat="47.98742" lon="-4.05084">
        <ele>68.9</ele>
        <time>2024-04-10T20:36:21.375Z</time>
      </trkpt>
      <trkpt lat="47.98795" lon="-4.05165">
        <ele>66.5</ele>
        <time>2024-04-10T20:36:31.069Z</time>
      </trkpt>
      <trkpt lat="47.98813" lon="-4.05197">
        <ele>64.5</ele>
        <time>2024-04-10T20:36:33.885Z</time>
      </trkpt>
      <trkpt lat="47.98822" lon="-4.0522">
        <ele>63.5</ele>
        <time>2024-04-10T20:36:35.803Z</time>
      </trkpt>
      <trkpt lat="47.98832" lon="-4.05252">
        <ele>65.6</ele>
        <time>2024-04-10T20:36:47.432Z</time>
      </trkpt>
      <trkpt lat="47.98837" lon="-4.05277">
        <ele>66.6</ele>
        <time>2024-04-10T20:36:53.045Z</time>
      </trkpt>
      <trkpt lat="47.98846" lon="-4.05334">
        <ele>64.5</ele>
        <time>2024-04-10T20:36:57.331Z</time>
      </trkpt>
      <trkpt lat="47.98864" lon="-4.05499">
        <ele>62.3</ele>
        <time>2024-04-10T20:37:13.082Z</time>
      </trkpt>
      <trkpt lat="47.98871" lon="-4.05575">
        <ele>60.9</ele>
        <time>2024-04-10T20:37:19.876Z</time>
      </trkpt>
      <trkpt lat="47.98879" lon="-4.05617">
        <ele>60.2</ele>
        <time>2024-04-10T20:37:23.847Z</time>
      </trkpt>
      <trkpt lat="47.98902" lon="-4.05693">
        <ele>59.1</ele>
        <time>2024-04-10T20:37:31.703Z</time>
      </trkpt>
      <trkpt lat="47.98917" lon="-4.05738">
        <ele>59.5</ele>
        <time>2024-04-10T20:37:38.051Z</time>
      </trkpt>
      <trkpt lat="47.98929" lon="-4.05783">
        <ele>58.3</ele>
        <time>2024-04-10T20:37:42.032Z</time>
      </trkpt>
      <trkpt lat="47.98943" lon="-4.05853">
        <ele>58.2</ele>
        <time>2024-04-10T20:37:50.077Z</time>
      </trkpt>
      <trkpt lat="47.98946" lon="-4.05882">
        <ele>57.6</ele>
        <time>2024-04-10T20:37:52.610Z</time>
      </trkpt>
      <trkpt lat="47.98945" lon="-4.05907">
        <ele>57.2</ele>
        <time>2024-04-10T20:37:54.889Z</time>
      </trkpt>
      <trkpt lat="47.98943" lon="-4.0593">
        <ele>57.2</ele>
        <time>2024-04-10T20:37:57.493Z</time>
      </trkpt>
      <trkpt lat="47.98942" lon="-4.05936">
        <ele>57.3</ele>
        <time>2024-04-10T20:37:58.383Z</time>
        <extensions>
          <visugpx:TrkExtension xmlns:visugpx="https://www.visugpx.com/editgpx/">
            <visugpx:node>16</visugpx:node>
            </visugpx:TrkExtension>
        </extensions>
      </trkpt>
      <trkpt lat="47.98936" lon="-4.0596">
        <ele>57</ele>
        <time>2024-04-10T20:38:00.841Z</time>
      </trkpt>
      <trkpt lat="47.98928" lon="-4.05977">
        <ele>56.2</ele>
        <time>2024-04-10T20:38:02.323Z</time>
      </trkpt>
      <trkpt lat="47.98915" lon="-4.05997">
        <ele>56.5</ele>
        <time>2024-04-10T20:38:06.000Z</time>
      </trkpt>
      <trkpt lat="47.98899" lon="-4.06033">
        <ele>54.6</ele>
        <time>2024-04-10T20:38:08.930Z</time>
      </trkpt>
      <trkpt lat="47.98892" lon="-4.06053">
        <ele>55.1</ele>
        <time>2024-04-10T20:38:12.526Z</time>
      </trkpt>
      <trkpt lat="47.98889" lon="-4.06072">
        <ele>56</ele>
        <time>2024-04-10T20:38:17.431Z</time>
      </trkpt>
      <trkpt lat="47.98889" lon="-4.061">
        <ele>56.6</ele>
        <time>2024-04-10T20:38:21.837Z</time>
      </trkpt>
      <trkpt lat="47.98892" lon="-4.06118">
        <ele>55.7</ele>
        <time>2024-04-10T20:38:23.086Z</time>
      </trkpt>
      <trkpt lat="47.98899" lon="-4.06139">
        <ele>53.7</ele>
        <time>2024-04-10T20:38:24.667Z</time>
      </trkpt>
      <trkpt lat="47.9894" lon="-4.06209">
        <ele>49.2</ele>
        <time>2024-04-10T20:38:30.933Z</time>
      </trkpt>
      <trkpt lat="47.98951" lon="-4.06237">
        <ele>47.9</ele>
        <time>2024-04-10T20:38:33.215Z</time>
      </trkpt>
      <trkpt lat="47.98955" lon="-4.06262">
        <ele>47.5</ele>
        <time>2024-04-10T20:38:35.566Z</time>
      </trkpt>
      <trkpt lat="47.98956" lon="-4.06285">
        <ele>47.2</ele>
        <time>2024-04-10T20:38:37.741Z</time>
      </trkpt>
      <trkpt lat="47.98946" lon="-4.06348">
        <ele>46.1</ele>
        <time>2024-04-10T20:38:43.562Z</time>
      </trkpt>
      <trkpt lat="47.98945" lon="-4.06369">
        <ele>45.5</ele>
        <time>2024-04-10T20:38:45.224Z</time>
      </trkpt>
      <trkpt lat="47.98947" lon="-4.06386">
        <ele>44.1</ele>
        <time>2024-04-10T20:38:46.386Z</time>
      </trkpt>
      <trkpt lat="47.98951" lon="-4.06407">
        <ele>43.4</ele>
        <time>2024-04-10T20:38:48.046Z</time>
      </trkpt>
      <trkpt lat="47.98954" lon="-4.06416">
        <ele>42.9</ele>
        <time>2024-04-10T20:38:48.724Z</time>
      </trkpt>
      <trkpt lat="47.98966" lon="-4.06436">
        <ele>42.2</ele>
        <time>2024-04-10T20:38:50.900Z</time>
      </trkpt>
      <trkpt lat="47.98977" lon="-4.06446">
        <ele>41.5</ele>
        <time>2024-04-10T20:38:52.300Z</time>
      </trkpt>
      <trkpt lat="47.99019" lon="-4.06472">
        <ele>39.6</ele>
        <time>2024-04-10T20:38:57.692Z</time>
      </trkpt>
      <trkpt lat="47.99029" lon="-4.06484">
        <ele>39.1</ele>
        <time>2024-04-10T20:38:59.244Z</time>
      </trkpt>
      <trkpt lat="47.99035" lon="-4.06492">
        <ele>38.1</ele>
        <time>2024-04-10T20:39:00.053Z</time>
      </trkpt>
      <trkpt lat="47.99042" lon="-4.0651">
        <ele>37.8</ele>
        <time>2024-04-10T20:39:01.984Z</time>
      </trkpt>
      <trkpt lat="47.99051" lon="-4.06541">
        <ele>37.2</ele>
        <time>2024-04-10T20:39:04.994Z</time>
      </trkpt>
      <trkpt lat="47.99056" lon="-4.06574">
        <ele>35.8</ele>
        <time>2024-04-10T20:39:07.343Z</time>
      </trkpt>
      <trkpt lat="47.99059" lon="-4.06645">
        <ele>33.9</ele>
        <time>2024-04-10T20:39:13.066Z</time>
      </trkpt>
      <trkpt lat="47.99062" lon="-4.06672">
        <ele>33.1</ele>
        <time>2024-04-10T20:39:15.209Z</time>
      </trkpt>
      <trkpt lat="47.99066" lon="-4.06693">
        <ele>32.6</ele>
        <time>2024-04-10T20:39:17.042Z</time>
      </trkpt>
      <trkpt lat="47.99089" lon="-4.06773">
        <ele>28.5</ele>
        <time>2024-04-10T20:39:22.907Z</time>
      </trkpt>
      <trkpt lat="47.99093" lon="-4.06799">
        <ele>28.7</ele>
        <time>2024-04-10T20:39:26.252Z</time>
      </trkpt>
      <trkpt lat="47.99094" lon="-4.0683">
        <ele>28.4</ele>
        <time>2024-04-10T20:39:29.308Z</time>
      </trkpt>
      <trkpt lat="47.99092" lon="-4.06861">
        <ele>27.3</ele>
        <time>2024-04-10T20:39:31.599Z</time>
      </trkpt>
      <trkpt lat="47.99075" lon="-4.06961">
        <ele>23.2</ele>
        <time>2024-04-10T20:39:38.871Z</time>
      </trkpt>
      <trkpt lat="47.99075" lon="-4.06997">
        <ele>22.5</ele>
        <time>2024-04-10T20:39:42.015Z</time>
      </trkpt>
      <trkpt lat="47.99082" lon="-4.07037">
        <ele>21.2</ele>
        <time>2024-04-10T20:39:45.178Z</time>
      </trkpt>
      <trkpt lat="47.99093" lon="-4.07098">
        <ele>18.1</ele>
        <time>2024-04-10T20:39:49.434Z</time>
      </trkpt>
      <trkpt lat="47.99096" lon="-4.07122">
        <ele>17.1</ele>
        <time>2024-04-10T20:39:51.135Z</time>
      </trkpt>
      <trkpt lat="47.99096" lon="-4.07167">
        <ele>15.7</ele>
        <time>2024-04-10T20:39:54.590Z</time>
      </trkpt>
      <trkpt lat="47.99093" lon="-4.07207">
        <ele>15.7</ele>
        <time>2024-04-10T20:39:59.109Z</time>
      </trkpt>
      <trkpt lat="47.99094" lon="-4.07253">
        <ele>13.8</ele>
        <time>2024-04-10T20:40:02.306Z</time>
      </trkpt>
      <trkpt lat="47.99095" lon="-4.07263">
        <ele>13.7</ele>
        <time>2024-04-10T20:40:03.299Z</time>
      </trkpt>
      <trkpt lat="47.99098" lon="-4.07274">
        <ele>13.5</ele>
        <time>2024-04-10T20:40:04.369Z</time>
      </trkpt>
      <trkpt lat="47.99108" lon="-4.07287">
        <ele>13.1</ele>
        <time>2024-04-10T20:40:06.083Z</time>
      </trkpt>
      <trkpt lat="47.99118" lon="-4.07292">
        <ele>12.6</ele>
        <time>2024-04-10T20:40:07.285Z</time>
      </trkpt>
      <trkpt lat="47.99127" lon="-4.07306">
        <ele>13</ele>
        <time>2024-04-10T20:40:10.296Z</time>
      </trkpt>
      <trkpt lat="47.99132" lon="-4.07319">
        <ele>13</ele>
        <time>2024-04-10T20:40:11.979Z</time>
      </trkpt>
      <trkpt lat="47.99134" lon="-4.0734">
        <ele>13</ele>
        <time>2024-04-10T20:40:14.361Z</time>
      </trkpt>
      <trkpt lat="47.99131" lon="-4.07354">
        <ele>13</ele>
        <time>2024-04-10T20:40:16.011Z</time>
      </trkpt>
      <trkpt lat="47.99128" lon="-4.07361">
        <ele>13</ele>
        <time>2024-04-10T20:40:16.944Z</time>
      </trkpt>
      <trkpt lat="47.99117" lon="-4.07378">
        <ele>12.1</ele>
        <time>2024-04-10T20:40:18.638Z</time>
      </trkpt>
      <trkpt lat="47.99114" lon="-4.07402">
        <ele>11.4</ele>
        <time>2024-04-10T20:40:20.561Z</time>
      </trkpt>
      <trkpt lat="47.99114" lon="-4.07408">
        <ele>11.2</ele>
        <time>2024-04-10T20:40:21.011Z</time>
      </trkpt>
      <trkpt lat="47.99115" lon="-4.07418">
        <ele>10.9</ele>
        <time>2024-04-10T20:40:21.799Z</time>
      </trkpt>
      <trkpt lat="47.99118" lon="-4.07438">
        <ele>10.8</ele>
        <time>2024-04-10T20:40:23.950Z</time>
      </trkpt>
      <trkpt lat="47.9912" lon="-4.07464">
        <ele>10.2</ele>
        <time>2024-04-10T20:40:26.145Z</time>
      </trkpt>
      <trkpt lat="47.99124" lon="-4.07521">
        <ele>11.1</ele>
        <time>2024-04-10T20:40:34.331Z</time>
      </trkpt>
      <trkpt lat="47.99132" lon="-4.07559">
        <ele>10.4</ele>
        <time>2024-04-10T20:40:37.887Z</time>
      </trkpt>
      <trkpt lat="47.99157" lon="-4.07618">
        <ele>10.2</ele>
        <time>2024-04-10T20:40:45.418Z</time>
      </trkpt>
      <trkpt lat="47.99168" lon="-4.0764">
        <ele>9.9</ele>
        <time>2024-04-10T20:40:48.079Z</time>
      </trkpt>
      <trkpt lat="47.99183" lon="-4.07677">
        <ele>9.8</ele>
        <time>2024-04-10T20:40:52.781Z</time>
      </trkpt>
      <trkpt lat="47.99208" lon="-4.07733">
        <ele>9.6</ele>
        <time>2024-04-10T20:41:00.030Z</time>
      </trkpt>
      <trkpt lat="47.9922" lon="-4.07767">
        <ele>10.5</ele>
        <time>2024-04-10T20:41:06.291Z</time>
      </trkpt>
      <trkpt lat="47.99233" lon="-4.07816">
        <ele>9.3</ele>
        <time>2024-04-10T20:41:10.721Z</time>
      </trkpt>
      <trkpt lat="47.99241" lon="-4.07857">
        <ele>9.7</ele>
        <time>2024-04-10T20:41:16.232Z</time>
      </trkpt>
      <trkpt lat="47.99247" lon="-4.07908">
        <ele>8.9</ele>
        <time>2024-04-10T20:41:20.974Z</time>
      </trkpt>
      <trkpt lat="47.99249" lon="-4.07947">
        <ele>8.4</ele>
        <time>2024-04-10T20:41:24.676Z</time>
      </trkpt>
      <trkpt lat="47.99248" lon="-4.07986">
        <ele>8.5</ele>
        <time>2024-04-10T20:41:29.222Z</time>
      </trkpt>
      <trkpt lat="47.99246" lon="-4.08007">
        <ele>8.9</ele>
        <time>2024-04-10T20:41:32.416Z</time>
      </trkpt>
      <trkpt lat="47.99243" lon="-4.0812">
        <ele>8.2</ele>
        <time>2024-04-10T20:41:44.073Z</time>
      </trkpt>
      <trkpt lat="47.99243" lon="-4.08139">
        <ele>8</ele>
        <time>2024-04-10T20:41:45.924Z</time>
      </trkpt>
      <trkpt lat="47.99243" lon="-4.08161">
        <ele>8</ele>
        <time>2024-04-10T20:41:48.393Z</time>
      </trkpt>
      <trkpt lat="47.99248" lon="-4.08188">
        <ele>8.1</ele>
        <time>2024-04-10T20:41:51.705Z</time>
      </trkpt>
      <trkpt lat="47.99249" lon="-4.0819">
        <ele>8</ele>
        <time>2024-04-10T20:41:51.880Z</time>
      </trkpt>
      <trkpt lat="47.99249" lon="-4.08195">
        <ele>8</ele>
        <time>2024-04-10T20:41:52.442Z</time>
      </trkpt>
      <trkpt lat="47.99251" lon="-4.08206">
        <ele>7.6</ele>
        <time>2024-04-10T20:41:53.282Z</time>
      </trkpt>
      <trkpt lat="47.99251" lon="-4.08216">
        <ele>7.2</ele>
        <time>2024-04-10T20:41:53.985Z</time>
      </trkpt>
      <trkpt lat="47.99253" lon="-4.08264">
        <ele>6.9</ele>
        <time>2024-04-10T20:41:58.940Z</time>
      </trkpt>
      <trkpt lat="47.9926" lon="-4.08339">
        <ele>7.9</ele>
        <time>2024-04-10T20:42:09.323Z</time>
      </trkpt>
      <trkpt lat="47.99338" lon="-4.08828">
        <ele>5.8</ele>
        <time>2024-04-10T20:43:02.569Z</time>
      </trkpt>
      <trkpt lat="47.9934" lon="-4.08827">
        <ele>5.8</ele>
        <time>2024-04-10T20:43:02.923Z</time>
      </trkpt>
      <trkpt lat="47.99341" lon="-4.08832">
        <ele>6</ele>
        <time>2024-04-10T20:43:04.046Z</time>
      </trkpt>
      <trkpt lat="47.99342" lon="-4.08838">
        <ele>6</ele>
        <time>2024-04-10T20:43:04.740Z</time>
      </trkpt>
      <trkpt lat="47.99339" lon="-4.08839">
        <ele>6</ele>
        <time>2024-04-10T20:43:05.255Z</time>
      </trkpt>
      <trkpt lat="47.99353" lon="-4.08925">
        <ele>6.3</ele>
        <time>2024-04-10T20:43:15.690Z</time>
      </trkpt>
      <trkpt lat="47.99363" lon="-4.08983">
        <ele>6</ele>
        <time>2024-04-10T20:43:21.963Z</time>
      </trkpt>
      <trkpt lat="47.99373" lon="-4.09051">
        <ele>6</ele>
        <time>2024-04-10T20:43:29.779Z</time>
      </trkpt>
      <trkpt lat="47.99375" lon="-4.09064">
        <ele>6</ele>
        <time>2024-04-10T20:43:31.276Z</time>
      </trkpt>
      <trkpt lat="47.99389" lon="-4.09128">
        <ele>6</ele>
        <time>2024-04-10T20:43:38.835Z</time>
      </trkpt>
      <trkpt lat="47.99391" lon="-4.09136">
        <ele>6</ele>
        <time>2024-04-10T20:43:39.794Z</time>
      </trkpt>
      <trkpt lat="47.99401" lon="-4.09187">
        <ele>6</ele>
        <time>2024-04-10T20:43:45.760Z</time>
      </trkpt>
      <trkpt lat="47.99403" lon="-4.09198">
        <ele>6</ele>
        <time>2024-04-10T20:43:47.039Z</time>
      </trkpt>
      <trkpt lat="47.99415" lon="-4.09269">
        <ele>5.4</ele>
        <time>2024-04-10T20:43:54.390Z</time>
      </trkpt>
      <trkpt lat="47.99417" lon="-4.09285">
        <ele>5.3</ele>
        <time>2024-04-10T20:43:56.069Z</time>
      </trkpt>
      <trkpt lat="47.99418" lon="-4.09295">
        <ele>5.6</ele>
        <time>2024-04-10T20:43:57.913Z</time>
      </trkpt>
      <trkpt lat="47.99429" lon="-4.09358">
        <ele>6</ele>
        <time>2024-04-10T20:44:05.910Z</time>
      </trkpt>
      <trkpt lat="47.9943" lon="-4.09359">
        <ele>6</ele>
        <time>2024-04-10T20:44:06.112Z</time>
      </trkpt>
      <trkpt lat="47.99441" lon="-4.09417">
        <ele>6</ele>
        <time>2024-04-10T20:44:12.879Z</time>
      </trkpt>
      <trkpt lat="47.99448" lon="-4.0944">
        <ele>5.3</ele>
        <time>2024-04-10T20:44:14.890Z</time>
      </trkpt>
      <trkpt lat="47.99453" lon="-4.09453">
        <ele>5.5</ele>
        <time>2024-04-10T20:44:16.951Z</time>
      </trkpt>
      <trkpt lat="47.99465" lon="-4.09484">
        <ele>5.6</ele>
        <time>2024-04-10T20:44:21.136Z</time>
      </trkpt>
      <trkpt lat="47.99477" lon="-4.09513">
        <ele>5.2</ele>
        <time>2024-04-10T20:44:24.406Z</time>
      </trkpt>
      <trkpt lat="47.99487" lon="-4.09525">
        <ele>5.5</ele>
        <time>2024-04-10T20:44:27.141Z</time>
      </trkpt>
      <trkpt lat="47.99501" lon="-4.09542">
        <ele>6</ele>
        <time>2024-04-10T20:44:31.178Z</time>
      </trkpt>
      <trkpt lat="47.9951" lon="-4.09552">
        <ele>6</ele>
        <time>2024-04-10T20:44:33.059Z</time>
      </trkpt>
      <trkpt lat="47.99512" lon="-4.09555">
        <ele>6</ele>
        <time>2024-04-10T20:44:33.534Z</time>
      </trkpt>
      <trkpt lat="47.99525" lon="-4.09569">
        <ele>5.5</ele>
        <time>2024-04-10T20:44:35.591Z</time>
      </trkpt>
      <trkpt lat="47.99534" lon="-4.09581">
        <ele>4.6</ele>
        <time>2024-04-10T20:44:36.805Z</time>
      </trkpt>
      <trkpt lat="47.99542" lon="-4.09594">
        <ele>4.4</ele>
        <time>2024-04-10T20:44:38.507Z</time>
      </trkpt>
      <trkpt lat="47.99547" lon="-4.09606">
        <ele>4.7</ele>
        <time>2024-04-10T20:44:40.723Z</time>
      </trkpt>
      <trkpt lat="47.99552" lon="-4.09629">
        <ele>4.8</ele>
        <time>2024-04-10T20:44:43.606Z</time>
      </trkpt>
      <trkpt lat="47.99554" lon="-4.09654">
        <ele>4.9</ele>
        <time>2024-04-10T20:44:46.599Z</time>
      </trkpt>
      <trkpt lat="47.99552" lon="-4.0968">
        <ele>4.9</ele>
        <time>2024-04-10T20:44:49.537Z</time>
      </trkpt>
      <trkpt lat="47.99542" lon="-4.09787">
        <ele>4</ele>
        <time>2024-04-10T20:45:00.362Z</time>
      </trkpt>
      <trkpt lat="47.99536" lon="-4.0985">
        <ele>3.3</ele>
        <time>2024-04-10T20:45:06.522Z</time>
      </trkpt>
      <trkpt lat="47.99535" lon="-4.09862">
        <ele>3.5</ele>
        <time>2024-04-10T20:45:08.273Z</time>
      </trkpt>
      <trkpt lat="47.99531" lon="-4.09898">
        <ele>4.1</ele>
        <time>2024-04-10T20:45:13.549Z</time>
      </trkpt>
      <trkpt lat="47.9953" lon="-4.09913">
        <ele>4.1</ele>
        <time>2024-04-10T20:45:15.241Z</time>
      </trkpt>
      <trkpt lat="47.99527" lon="-4.09944">
        <ele>4</ele>
        <time>2024-04-10T20:45:18.604Z</time>
      </trkpt>
      <trkpt lat="47.99522" lon="-4.09998">
        <ele>4</ele>
        <time>2024-04-10T20:45:24.723Z</time>
      </trkpt>
      <trkpt lat="47.9952" lon="-4.10021">
        <ele>4.3</ele>
        <time>2024-04-10T20:45:27.890Z</time>
      </trkpt>
      <trkpt lat="47.99513" lon="-4.10096">
        <ele>3.7</ele>
        <time>2024-04-10T20:45:35.518Z</time>
      </trkpt>
      <trkpt lat="47.99512" lon="-4.10105">
        <ele>3.8</ele>
        <time>2024-04-10T20:45:36.725Z</time>
      </trkpt>
      <trkpt lat="47.99511" lon="-4.10116">
        <ele>3.7</ele>
        <time>2024-04-10T20:45:37.827Z</time>
      </trkpt>
      <trkpt lat="47.99509" lon="-4.10139">
        <ele>3</ele>
        <time>2024-04-10T20:45:39.625Z</time>
      </trkpt>
      <trkpt lat="47.99508" lon="-4.10147">
        <ele>3.1</ele>
        <time>2024-04-10T20:45:40.725Z</time>
      </trkpt>
      <trkpt lat="47.99507" lon="-4.1016">
        <ele>3.3</ele>
        <time>2024-04-10T20:45:42.581Z</time>
      </trkpt>
      <trkpt lat="47.99505" lon="-4.10178">
        <ele>3.7</ele>
        <time>2024-04-10T20:45:45.476Z</time>
      </trkpt>
      <trkpt lat="47.99505" lon="-4.10183">
        <ele>3.8</ele>
        <time>2024-04-10T20:45:46.244Z</time>
      </trkpt>
      <trkpt lat="47.99504" lon="-4.10191">
        <ele>4</ele>
        <time>2024-04-10T20:45:47.597Z</time>
      </trkpt>
      <trkpt lat="47.99503" lon="-4.10197">
        <ele>4.1</ele>
        <time>2024-04-10T20:45:48.487Z</time>
      </trkpt>
      <trkpt lat="47.99497" lon="-4.10257">
        <ele>3.8</ele>
        <time>2024-04-10T20:45:54.845Z</time>
      </trkpt>
      <trkpt lat="47.99496" lon="-4.10263">
        <ele>3.8</ele>
        <time>2024-04-10T20:45:55.540Z</time>
      </trkpt>
      <trkpt lat="47.99479" lon="-4.10344">
        <ele>3.2</ele>
        <time>2024-04-10T20:46:04.188Z</time>
      </trkpt>
      <trkpt lat="47.99458" lon="-4.10437">
        <ele>3.8</ele>
        <time>2024-04-10T20:46:16.238Z</time>
      </trkpt>
      <trkpt lat="47.9945" lon="-4.10469">
        <ele>3.9</ele>
        <time>2024-04-10T20:46:20.238Z</time>
      </trkpt>
      <trkpt lat="47.99427" lon="-4.10557">
        <ele>4</ele>
        <time>2024-04-10T20:46:31.005Z</time>
      </trkpt>
      <trkpt lat="47.99419" lon="-4.10587">
        <ele>4</ele>
        <time>2024-04-10T20:46:34.630Z</time>
      </trkpt>
      <trkpt lat="47.99424" lon="-4.10594">
        <ele>4</ele>
        <time>2024-04-10T20:46:35.780Z</time>
      </trkpt>
      <trkpt lat="47.99426" lon="-4.10601">
        <ele>4</ele>
        <time>2024-04-10T20:46:36.634Z</time>
      </trkpt>
      <trkpt lat="47.99417" lon="-4.10692">
        <ele>4</ele>
        <time>2024-04-10T20:46:46.961Z</time>
      </trkpt>
      <trkpt lat="47.99417" lon="-4.10712">
        <ele>4</ele>
        <time>2024-04-10T20:46:49.206Z</time>
      </trkpt>
      <trkpt lat="47.99421" lon="-4.10729">
        <ele>4</ele>
        <time>2024-04-10T20:46:51.229Z</time>
      </trkpt>
      <trkpt lat="47.9943" lon="-4.10752">
        <ele>4</ele>
        <time>2024-04-10T20:46:54.220Z</time>
      </trkpt>
      <trkpt lat="47.99441" lon="-4.10764">
        <ele>4</ele>
        <time>2024-04-10T20:46:56.505Z</time>
      </trkpt>
      <trkpt lat="47.9947" lon="-4.10793">
        <ele>4.5</ele>
        <time>2024-04-10T20:47:03.257Z</time>
      </trkpt>
      <trkpt lat="47.9949" lon="-4.10807">
        <ele>5</ele>
        <time>2024-04-10T20:47:07.927Z</time>
      </trkpt>
      <trkpt lat="47.99507" lon="-4.10815">
        <ele>5</ele>
        <time>2024-04-10T20:47:10.917Z</time>
      </trkpt>
      <trkpt lat="47.9954" lon="-4.10826">
        <ele>5</ele>
        <time>2024-04-10T20:47:16.589Z</time>
      </trkpt>
      <trkpt lat="47.99572" lon="-4.10836">
        <ele>5.6</ele>
        <time>2024-04-10T20:47:23.189Z</time>
      </trkpt>
      <trkpt lat="47.99607" lon="-4.10847">
        <ele>6</ele>
        <time>2024-04-10T20:47:29.888Z</time>
      </trkpt>
      <trkpt lat="47.99626" lon="-4.10853">
        <ele>6</ele>
        <time>2024-04-10T20:47:33.146Z</time>
      </trkpt>
      <trkpt lat="47.99647" lon="-4.10861">
        <ele>6.3</ele>
        <time>2024-04-10T20:47:37.318Z</time>
      </trkpt>
      <trkpt lat="47.99706" lon="-4.10912">
        <ele>7</ele>
        <time>2024-04-10T20:47:49.966Z</time>
      </trkpt>
      <trkpt lat="47.99726" lon="-4.10929">
        <ele>7.5</ele>
        <time>2024-04-10T20:47:54.784Z</time>
      </trkpt>
      <trkpt lat="47.99745" lon="-4.10945">
        <ele>8.8</ele>
        <time>2024-04-10T20:48:02.015Z</time>
      </trkpt>
      <trkpt lat="47.99789" lon="-4.10983">
        <ele>10.2</ele>
        <time>2024-04-10T20:48:13.366Z</time>
      </trkpt>
      <trkpt lat="47.99846" lon="-4.11031">
        <ele>12.6</ele>
        <time>2024-04-10T20:48:29.613Z</time>
      </trkpt>
      <trkpt lat="47.9994" lon="-4.11112">
        <ele>18</ele>
        <time>2024-04-10T20:49:01.272Z</time>
      </trkpt>
      <trkpt lat="47.99955" lon="-4.11125">
        <ele>18.7</ele>
        <time>2024-04-10T20:49:05.773Z</time>
      </trkpt>
      <trkpt lat="47.99983" lon="-4.1115">
        <ele>19.6</ele>
        <time>2024-04-10T20:49:13.062Z</time>
      </trkpt>
      <trkpt lat="47.99997" lon="-4.11171">
        <ele>20.4</ele>
        <time>2024-04-10T20:49:18.209Z</time>
      </trkpt>
      <trkpt lat="48.00007" lon="-4.11199">
        <ele>21.8</ele>
        <time>2024-04-10T20:49:25.870Z</time>
      </trkpt>
      <trkpt lat="48.00012" lon="-4.11225">
        <ele>21.7</ele>
        <time>2024-04-10T20:49:28.754Z</time>
      </trkpt>
      <trkpt lat="48.00013" lon="-4.11239">
        <ele>21.6</ele>
        <time>2024-04-10T20:49:30.187Z</time>
      </trkpt>
      <trkpt lat="48.00047" lon="-4.11264">
        <ele>18.3</ele>
        <time>2024-04-10T20:49:34.001Z</time>
      </trkpt>
      <trkpt lat="48.00056" lon="-4.11273">
        <ele>17.1</ele>
        <time>2024-04-10T20:49:35.091Z</time>
      </trkpt>
      <trkpt lat="48.00084" lon="-4.11294">
        <ele>15</ele>
        <time>2024-04-10T20:49:38.244Z</time>
      </trkpt>
      <trkpt lat="48.00095" lon="-4.11303">
        <ele>14.2</ele>
        <time>2024-04-10T20:49:39.529Z</time>
      </trkpt>
      <trkpt lat="48.00103" lon="-4.1131">
        <ele>13.7</ele>
        <time>2024-04-10T20:49:40.540Z</time>
      </trkpt>
      <trkpt lat="48.00136" lon="-4.11337">
        <ele>11.4</ele>
        <time>2024-04-10T20:49:44.459Z</time>
      </trkpt>
      <trkpt lat="48.00156" lon="-4.11352">
        <ele>10</ele>
        <time>2024-04-10T20:49:46.769Z</time>
      </trkpt>
      <trkpt lat="48.0019" lon="-4.1138">
        <ele>6.6</ele>
        <time>2024-04-10T20:49:50.676Z</time>
      </trkpt>
      <trkpt lat="48.00197" lon="-4.11383">
        <ele>6.2</ele>
        <time>2024-04-10T20:49:51.465Z</time>
      </trkpt>
      <trkpt lat="48.00203" lon="-4.11387">
        <ele>6</ele>
        <time>2024-04-10T20:49:52.313Z</time>
      </trkpt>
      <trkpt lat="48.00213" lon="-4.11394">
        <ele>6</ele>
        <time>2024-04-10T20:49:54.166Z</time>
      </trkpt>
      <trkpt lat="48.00222" lon="-4.11393">
        <ele>6</ele>
        <time>2024-04-10T20:49:55.680Z</time>
      </trkpt>
      <trkpt lat="48.00224" lon="-4.11391">
        <ele>5.9</ele>
        <time>2024-04-10T20:49:55.965Z</time>
      </trkpt>
      <trkpt lat="48.00232" lon="-4.11389">
        <ele>5.6</ele>
        <time>2024-04-10T20:49:56.962Z</time>
      </trkpt>
      <trkpt lat="48.00235" lon="-4.1139">
        <ele>5.5</ele>
        <time>2024-04-10T20:49:57.352Z</time>
      </trkpt>
      <trkpt lat="48.00237" lon="-4.11393">
        <ele>5.5</ele>
        <time>2024-04-10T20:49:57.827Z</time>
      </trkpt>
      <trkpt lat="48.0024" lon="-4.11404">
        <ele>5.4</ele>
        <time>2024-04-10T20:49:59.016Z</time>
      </trkpt>
      <trkpt lat="48.00246" lon="-4.11417">
        <ele>5.1</ele>
        <time>2024-04-10T20:50:00.402Z</time>
      </trkpt>
      <trkpt lat="48.00254" lon="-4.11426">
        <ele>5</ele>
        <time>2024-04-10T20:50:01.934Z</time>
      </trkpt>
      <trkpt lat="48.0027" lon="-4.11438">
        <ele>5</ele>
        <time>2024-04-10T20:50:04.937Z</time>
      </trkpt>
      <trkpt lat="48.00294" lon="-4.1146">
        <ele>4.7</ele>
        <time>2024-04-10T20:50:09.220Z</time>
      </trkpt>
      <trkpt lat="48.003" lon="-4.1147">
        <ele>4.9</ele>
        <time>2024-04-10T20:50:11.112Z</time>
      </trkpt>
      <trkpt lat="48.00304" lon="-4.11477">
        <ele>5</ele>
        <time>2024-04-10T20:50:12.328Z</time>
      </trkpt>
      <trkpt lat="48.00343" lon="-4.1157">
        <ele>5.8</ele>
        <time>2024-04-10T20:50:26.043Z</time>
      </trkpt>
      <trkpt lat="48.00343" lon="-4.11572">
        <ele>5.9</ele>
        <time>2024-04-10T20:50:26.587Z</time>
      </trkpt>
      <trkpt lat="48.00348" lon="-4.1158">
        <ele>5.9</ele>
        <time>2024-04-10T20:50:27.816Z</time>
      </trkpt>
      <trkpt lat="48.00355" lon="-4.11594">
        <ele>6</ele>
        <time>2024-04-10T20:50:29.949Z</time>
      </trkpt>
      <trkpt lat="48.00359" lon="-4.11607">
        <ele>6</ele>
        <time>2024-04-10T20:50:31.555Z</time>
      </trkpt>
      <trkpt lat="48.00361" lon="-4.11614">
        <ele>6</ele>
        <time>2024-04-10T20:50:32.409Z</time>
      </trkpt>
      <trkpt lat="48.00362" lon="-4.11617">
        <ele>6</ele>
        <time>2024-04-10T20:50:32.785Z</time>
      </trkpt>
      <trkpt lat="48.00384" lon="-4.11673">
        <ele>7</ele>
        <time>2024-04-10T20:50:42.012Z</time>
      </trkpt>
      <trkpt lat="48.00393" lon="-4.1169">
        <ele>7</ele>
        <time>2024-04-10T20:50:44.445Z</time>
      </trkpt>
      <trkpt lat="48.00418" lon="-4.11721">
        <ele>8</ele>
        <time>2024-04-10T20:50:51.973Z</time>
      </trkpt>
      <trkpt lat="48.00422" lon="-4.11723">
        <ele>8</ele>
        <time>2024-04-10T20:50:52.681Z</time>
      </trkpt>
      <trkpt lat="48.00423" lon="-4.11727">
        <ele>8.2</ele>
        <time>2024-04-10T20:50:53.770Z</time>
      </trkpt>
      <trkpt lat="48.00423" lon="-4.11729">
        <ele>8.2</ele>
        <time>2024-04-10T20:50:53.994Z</time>
      </trkpt>
      <trkpt lat="48.00459" lon="-4.11758">
        <ele>9.1</ele>
        <time>2024-04-10T20:51:02.583Z</time>
      </trkpt>
      <trkpt lat="48.00469" lon="-4.11731">
        <ele>8</ele>
        <time>2024-04-10T20:51:04.845Z</time>
      </trkpt>
      <trkpt lat="48.00478" lon="-4.11721">
        <ele>7.7</ele>
        <time>2024-04-10T20:51:06.335Z</time>
      </trkpt>
      <trkpt lat="48.00484" lon="-4.11719">
        <ele>7.5</ele>
        <time>2024-04-10T20:51:07.116Z</time>
      </trkpt>
      <trkpt lat="48.00511" lon="-4.11712">
        <ele>6.6</ele>
        <time>2024-04-10T20:51:10.588Z</time>
      </trkpt>
      <trkpt lat="48.00537" lon="-4.117">
        <ele>6.5</ele>
        <time>2024-04-10T20:51:14.998Z</time>
      </trkpt>
      <trkpt lat="48.00596" lon="-4.11658">
        <ele>6.3</ele>
        <time>2024-04-10T20:51:25.650Z</time>
      </trkpt>
      <trkpt lat="48.00613" lon="-4.11648">
        <ele>6.3</ele>
        <time>2024-04-10T20:51:28.714Z</time>
      </trkpt>
      <trkpt lat="48.00619" lon="-4.11646">
        <ele>6.2</ele>
        <time>2024-04-10T20:51:29.605Z</time>
      </trkpt>
      <trkpt lat="48.00624" lon="-4.11637">
        <ele>6</ele>
        <time>2024-04-10T20:51:30.655Z</time>
      </trkpt>
      <trkpt lat="48.0063" lon="-4.11634">
        <ele>6</ele>
        <time>2024-04-10T20:51:31.716Z</time>
      </trkpt>
      <trkpt lat="48.00636" lon="-4.11632">
        <ele>6</ele>
        <time>2024-04-10T20:51:32.747Z</time>
      </trkpt>
      <trkpt lat="48.00643" lon="-4.11635">
        <ele>6.1</ele>
        <time>2024-04-10T20:51:34.148Z</time>
      </trkpt>
      <trkpt lat="48.00649" lon="-4.11631">
        <ele>6.3</ele>
        <time>2024-04-10T20:51:35.664Z</time>
      </trkpt>
      <trkpt lat="48.00657" lon="-4.11625">
        <ele>6.3</ele>
        <time>2024-04-10T20:51:37.166Z</time>
      </trkpt>
      <trkpt lat="48.00683" lon="-4.11606">
        <ele>6.5</ele>
        <time>2024-04-10T20:51:42.358Z</time>
      </trkpt>
      <trkpt lat="48.00698" lon="-4.11599">
        <ele>6.6</ele>
        <time>2024-04-10T20:51:45.162Z</time>
      </trkpt>
      <trkpt lat="48.0071" lon="-4.11595">
        <ele>6.4</ele>
        <time>2024-04-10T20:51:46.943Z</time>
      </trkpt>
      <trkpt lat="48.00708" lon="-4.11582">
        <ele>6</ele>
        <time>2024-04-10T20:51:47.979Z</time>
      </trkpt>
      <trkpt lat="48.00717" lon="-4.11578">
        <ele>6</ele>
        <time>2024-04-10T20:51:49.554Z</time>
        <extensions>
          <visugpx:TrkExtension xmlns:visugpx="https://www.visugpx.com/editgpx/">
            <visugpx:node>17</visugpx:node>
            </visugpx:TrkExtension>
        </extensions>
      </trkpt>
    </trkseg>
  </trk>
</gpx>